[[{"header":{"parameterUnit":"m.s-1","parameterCategory":1,"la1":30.6,"la2":29.2853,"lo1":-89.7004,"lo2":-87.6739,"dy":0.0162,"dx":0.0183,"nx":112,"ny":82,"refTime":"2026-03-10T12:00:00:Z","depth":0,"parameterNumber":2,"parameterNumberName":"U-component_of_WINDS"},"data":[0.0,0.0,0.0,0.0,0.0,0.0,0.0,0.0,0.0,0.0,0.0,0.0,0.0,0.0,0.0,0.0,0.0,0.0,0.0,0.0,0.0,0.0,0.0,0.0,0.0,0.0,0.0,0.0,0.0,0.0,0.0,0.0,0.0,0.0,0.0,0.0,0.0,0.0,0.0,0.0,0.0,0.0,0.0,0.0,0.0,0.0,0.0,0.0,0.0,0.0,0.0,0.0,0.0,0.0,0.0,0.0,0.0,0.0,0.0,0.0,0.0,0.0,0.0,0.0,0.0,0.0,0.0,0.0,0.0,0.0,0.0,0.0,0.0,0.0,0.0,0.0,0.0,0.0,0.0,0.0,0.0,0.0,0.0,0.0,0.0,0.0,0.0,0.0,0.0,0.0,-0.8275,-0.9062,-1.0093,-1.0717,-1.0717,-1.0534,-0.9944,-0.8818,0.0,0.0,0.0,0.0,0.0,0.0,0.0,0.0,0.0,0.0,0.0,0.0,0.0,0.0,0.0,0.0,0.0,0.0,0.0,0.0,0.0,0.0,0.0,0.0,0.0,0.0,0.0,0.0,0.0,0.0,0.0,0.0,0.0,0.0,0.0,0.0,0.0,0.0,0.0,0.0,0.0,0.0,0.0,0.0,0.0,0.0,0.0,0.0,0.0,0.0,0.0,0.0,0.0,0.0,0.0,0.0,0.0,0.0,0.0,0.0,0.0,0.0,0.0,0.0,0.0,0.0,0.0,0.0,0.0,0.0,0.0,0.0,0.0,0.0,0.0,0.0,0.0,0.0,0.0,0.0,0.0,0.0,0.0,0.0,0.0,0.0,0.0,0.0,0.0,0.0,0.0,0.0,0.0,0.0,0.0,0.0,0.0,0.0,0.0,0.0,0.0,0.0,0.0,0.0,-0.8282,-0.9903,-1.046,-1.0717,-1.0717,-1.0351,-0.9768,-0.8954,0.0,0.0,0.0,0.0,0.0,0.0,0.0,0.0,0.0,0.0,0.0,0.0,0.0,0.0,0.0,0.0,0.0,0.0,0.0,0.0,0.0,0.0,0.0,0.0,0.0,0.0,0.0,0.0,0.0,0.0,0.0,0.0,0.0,0.0,0.0,0.0,0.0,0.0,0.0,0.0,0.0,0.0,0.0,0.0,0.0,0.0,0.0,0.0,0.0,0.0,0.0,0.0,0.0,0.0,0.0,0.0,0.0,0.0,0.0,0.0,0.0,0.0,0.0,0.0,0.0,0.0,0.0,0.0,0.0,0.0,0.0,0.0,0.0,0.0,0.0,0.0,0.0,0.0,0.0,0.0,0.0,0.0,0.0,0.0,0.0,0.0,0.0,0.0,0.0,0.0,0.0,0.0,0.0,0.0,0.0,0.0,0.0,0.0,0.0,0.0,0.0,0.0,0.0,-0.8153,-0.8859,-1.0249,-1.0588,-1.0717,-1.0717,-1.046,-0.9903,-0.8994,-0.8296,0.0,0.0,0.0,0.0,0.0,0.0,0.0,0.0,0.0,0.0,0.0,0.0,0.0,0.0,0.0,0.0,0.0,0.0,0.0,0.0,0.0,0.0,0.0,0.0,0.0,0.0,0.0,0.0,0.0,0.0,0.0,0.0,0.0,0.0,0.0,0.0,0.0,0.0,0.0,0.0,0.0,0.0,0.0,0.0,0.0,0.0,0.0,0.0,0.0,0.0,0.0,0.0,0.0,0.0,0.0,0.0,0.0,0.0,0.0,0.0,0.0,0.0,0.0,0.0,0.0,0.0,0.0,0.0,0.0,0.0,0.0,0.0,0.0,0.0,0.0,0.0,0.0,0.0,0.0,0.0,0.0,0.0,0.0,0.0,0.0,0.0,0.0,0.0,0.0,0.0,0.0,0.0,0.0,0.0,0.0,0.0,0.0,0.0,0.0,0.0,0.0,0.0,-0.9028,-0.9544,-1.0446,-1.0649,-1.0717,-1.0717,-1.0453,-0.9897,-0.8994,-0.8099,0.0,0.0,0.0,0.0,0.0,0.0,0.0,0.0,0.0,0.0,0.0,0.0,0.0,0.0,0.0,0.0,0.0,0.0,0.0,0.0,0.0,0.0,0.0,0.0,0.0,0.0,0.0,0.0,0.0,0.0,0.0,0.0,0.0,0.0,0.0,0.0,0.0,0.0,0.0,0.0,0.0,0.0,0.0,0.0,0.0,0.0,0.0,0.0,0.0,0.0,0.0,0.0,0.0,0.0,0.0,0.0,0.0,0.0,0.0,0.0,0.0,0.0,0.0,0.0,0.0,0.0,0.0,0.0,0.0,0.0,0.0,0.0,0.0,0.0,0.0,0.0,0.0,0.0,0.0,0.0,0.0,0.0,0.0,0.0,0.0,0.0,0.0,0.0,0.0,0.0,0.0,0.0,0.0,0.0,0.0,0.0,0.0,0.0,0.0,0.0,0.0,0.0,-0.9286,-1.0161,-1.0649,-1.0711,-1.0717,-1.0717,-1.0073,-0.9462,-0.8967,-0.7712,0.0,0.0,0.0,0.0,0.0,0.0,0.0,0.0,0.0,0.0,0.0,0.0,0.0,0.0,0.0,0.0,0.0,0.0,0.0,0.0,0.0,0.0,0.0,0.0,0.0,0.0,0.0,0.0,0.0,0.0,0.0,0.0,0.0,0.0,0.0,0.0,0.0,0.0,0.0,0.0,0.0,0.0,0.0,0.0,0.0,0.0,0.0,0.0,0.0,0.0,0.0,0.0,0.0,0.0,0.0,0.0,0.0,0.0,0.0,0.0,0.0,0.0,0.0,0.0,0.0,0.0,0.0,0.0,0.0,0.0,0.0,0.0,0.0,0.0,0.0,0.0,0.0,0.0,0.0,0.0,0.0,0.0,0.0,0.0,0.0,0.0,0.0,0.0,0.0,0.0,0.0,0.0,0.0,0.0,0.0,0.0,0.0,0.0,0.0,0.0,0.0,0.0,-0.9123,-0.991,-1.0643,-1.0717,-1.1108,-1.2281,-1.1892,-1.1319,-1.0466,0.0,0.0,0.0,0.0,0.0,0.0,0.0,0.0,0.0,0.0,0.0,0.0,0.0,0.0,0.0,0.0,0.0,0.0,0.0,0.0,0.0,0.0,0.0,0.0,0.0,0.0,0.0,0.0,0.0,0.0,0.0,0.0,0.0,0.0,0.0,0.0,0.0,0.0,0.0,0.0,0.0,0.0,0.0,0.0,0.0,0.0,0.0,0.0,0.0,0.0,0.0,0.0,0.0,0.0,0.0,0.0,0.0,0.0,0.0,0.0,0.0,0.0,0.0,0.0,0.0,0.0,0.0,0.0,0.0,0.0,0.0,0.0,0.0,0.0,0.0,0.0,0.0,0.0,0.0,0.0,0.0,0.0,0.0,0.0,0.0,0.0,0.0,0.0,0.0,0.0,0.0,0.0,0.0,0.0,0.0,0.0,0.0,0.0,0.0,0.0,0.0,0.0,-0.8343,-0.9178,-1.0232,-1.1762,-1.1993,-1.2704,-1.4684,-1.4178,-1.3368,-1.2163,0.0,0.0,0.0,0.0,0.0,0.0,0.0,0.0,0.0,0.0,0.0,0.0,0.0,0.0,0.0,0.0,0.0,0.0,0.0,0.0,0.0,0.0,0.0,0.0,0.0,0.0,0.0,0.0,0.0,0.0,0.0,0.0,0.0,0.0,0.0,0.0,0.0,0.0,0.0,0.0,0.0,0.0,0.0,0.0,0.0,0.0,0.0,0.0,0.0,0.0,0.0,0.0,0.0,0.0,0.0,0.0,0.0,0.0,0.0,0.0,0.0,0.0,0.0,0.0,0.0,0.0,0.0,0.0,0.0,0.0,0.0,0.0,0.0,0.0,0.0,0.0,0.0,0.0,0.0,0.0,0.0,0.0,0.0,0.0,0.0,0.0,0.0,0.0,0.0,0.0,0.0,0.0,0.0,0.0,0.0,0.0,0.0,0.0,0.0,0.0,0.0,0.0,-0.8391,-0.9662,-1.1475,-1.4328,-1.4571,-1.556,-1.7948,-1.6813,-1.5272,0.0,0.0,0.0,0.0,0.0,0.0,0.0,0.0,0.0,0.0,0.0,0.0,0.0,0.0,0.0,0.0,0.0,0.0,0.0,0.0,0.0,0.0,0.0,0.0,0.0,0.0,0.0,0.0,0.0,0.0,0.0,0.0,0.0,0.0,0.0,0.0,0.0,0.0,0.0,0.0,0.0,0.0,0.0,0.0,0.0,0.0,0.0,0.0,0.0,0.0,0.0,0.0,0.0,0.0,0.0,0.0,0.0,0.0,0.0,0.0,0.0,0.0,0.0,0.0,0.0,0.0,0.0,0.0,0.0,0.0,0.0,0.0,0.0,0.0,0.0,0.0,0.0,0.0,0.0,0.0,0.0,0.0,0.0,0.0,0.0,0.0,0.0,0.0,0.0,0.0,0.0,0.0,0.0,0.0,0.0,0.0,0.0,0.0,0.0,0.0,0.0,0.0,0.0,-0.8772,-1.2627,-1.5264,-1.4868,-1.6434,-1.7969,-1.9469,-1.8639,-1.7242,-1.5175,0.0,0.0,0.0,0.0,0.0,0.0,0.0,0.0,0.0,0.0,0.0,0.0,0.0,0.0,0.0,0.0,0.0,0.0,0.0,0.0,0.0,0.0,0.0,0.0,0.0,0.0,0.0,0.0,0.0,0.0,0.0,0.0,0.0,0.0,0.0,0.0,0.0,0.0,0.0,0.0,0.0,0.0,0.0,0.0,0.0,0.0,0.0,0.0,0.0,0.0,0.0,0.0,0.0,0.0,0.0,0.0,0.0,0.0,0.0,0.0,0.0,0.0,0.0,0.0,0.0,0.0,0.0,0.0,0.0,0.0,0.0,0.0,0.0,0.0,0.0,0.0,0.0,0.0,0.0,0.0,0.0,0.0,0.0,0.0,0.0,0.0,0.0,0.0,0.0,0.0,0.0,0.0,0.0,0.0,0.0,0.0,0.0,0.0,0.0,0.0,0.0,0.0,-0.9883,-1.427,-1.7493,-1.747,-1.8934,-2.0566,-2.1852,-2.1109,-1.9537,-1.687,0.0,0.0,0.0,0.0,0.0,0.0,0.0,0.0,0.0,0.0,0.0,0.0,0.0,0.0,0.0,0.0,0.0,0.0,0.0,0.0,0.0,0.0,0.0,0.0,0.0,0.0,0.0,0.0,0.0,0.0,0.0,0.0,0.0,0.0,0.0,0.0,0.0,0.0,0.0,0.0,0.0,0.0,0.0,0.0,0.0,0.0,0.0,0.0,0.0,0.0,0.0,0.0,0.0,0.0,0.0,0.0,0.0,0.0,0.0,0.0,0.0,0.0,0.0,0.0,0.0,0.0,0.0,0.0,0.0,0.0,0.0,0.0,0.0,0.0,0.0,0.0,0.0,0.0,0.0,0.0,0.0,0.0,0.0,0.0,0.0,0.0,0.0,0.0,0.0,0.0,0.0,0.0,0.0,0.0,0.0,0.0,0.0,0.0,0.0,0.0,0.0,0.0,-1.1485,-1.5357,-1.896,-2.0947,-2.1933,-2.298,-2.4449,-2.35,-2.159,-1.8718,0.0,0.0,0.0,0.0,0.0,0.0,0.0,0.0,0.0,0.0,0.0,0.0,0.0,0.0,0.0,0.0,0.0,0.0,0.0,0.0,0.0,0.0,0.0,0.0,0.0,0.0,0.0,0.0,0.0,0.0,0.0,0.0,0.0,0.0,0.0,0.0,0.0,0.0,0.0,0.0,0.0,0.0,0.0,0.0,0.0,0.0,0.0,0.0,0.0,0.0,0.0,0.0,0.0,0.0,0.0,0.0,0.0,0.0,0.0,0.0,-0.9765,-0.8681,0.0,0.0,0.0,0.0,0.0,0.0,0.0,0.0,0.0,0.0,0.0,0.0,0.0,0.0,0.0,0.0,0.0,0.0,0.0,0.0,0.0,0.0,0.0,0.0,0.0,0.0,0.0,0.0,0.0,0.0,0.0,0.0,0.0,0.0,0.0,0.0,0.0,0.0,0.0,0.0,-1.2037,-1.8323,-2.2425,-2.1412,-2.3264,-2.4337,-2.4329,-2.3193,-2.1456,-1.8985,-1.6887,0.0,0.0,0.0,0.0,0.0,0.0,0.0,0.0,0.0,0.0,0.0,0.0,0.0,0.0,0.0,0.0,0.0,0.0,0.0,0.0,0.0,0.0,0.0,0.0,0.0,0.0,0.0,0.0,0.0,0.0,0.0,0.0,0.0,0.0,0.0,0.0,0.0,0.0,0.0,0.0,0.0,0.0,0.0,0.0,0.0,0.0,0.0,0.0,0.0,0.0,0.0,0.0,0.0,0.0,0.0,0.0,0.0,0.0,0.0,-1.1053,-1.0316,0.0,0.0,0.0,0.0,0.0,0.0,0.0,0.0,0.0,0.0,0.0,0.0,0.0,0.0,0.0,0.0,0.0,0.0,0.0,0.0,0.0,0.0,0.0,0.0,0.0,0.0,0.0,0.0,0.0,0.0,0.0,0.0,0.0,0.0,0.0,0.0,0.0,0.0,0.0,0.0,-1.4134,-1.9931,-2.3694,-2.2658,-2.3914,-2.4636,-2.4048,-2.3153,-2.175,-1.9679,-1.7876,0.0,0.0,0.0,0.0,0.0,0.0,0.0,0.0,0.0,0.0,0.0,0.0,0.0,0.0,0.0,0.0,0.0,0.0,0.0,0.0,0.0,0.0,0.0,0.0,0.0,0.0,0.0,0.0,0.0,0.0,0.0,0.0,0.0,0.0,0.0,0.0,0.0,0.0,0.0,0.0,0.0,0.0,0.0,0.0,0.0,0.0,0.0,0.0,0.0,0.0,0.0,0.0,0.0,-1.2974,-1.2639,-1.2685,-1.2498,-1.2291,-1.2101,-1.1909,-1.1304,-1.0586,-1.006,0.0,0.0,0.0,0.0,0.0,0.0,0.0,0.0,0.0,0.0,0.0,0.0,0.0,0.0,0.0,0.0,0.0,0.0,0.0,0.0,0.0,0.0,0.0,0.0,-1.0243,-1.0211,-0.8934,0.0,0.0,0.0,0.0,0.0,0.0,0.0,0.0,0.0,0.0,0.0,-1.6405,-2.0734,-2.3634,-2.3688,-2.4128,-2.4209,-2.3728,-2.314,-2.2098,-2.0494,-1.9038,-1.7395,0.0,0.0,0.0,0.0,0.0,0.0,0.0,0.0,0.0,0.0,0.0,0.0,0.0,0.0,0.0,0.0,0.0,0.0,0.0,0.0,0.0,0.0,0.0,0.0,0.0,0.0,0.0,0.0,0.0,0.0,0.0,0.0,-0.0,-0.0,0.0,0.0,0.0,0.0,0.0,0.0,0.0,0.0,0.0,0.0,0.0,0.0,0.0,-1.2103,-1.3231,-1.3363,-1.3501,-1.3893,-1.3903,-1.3652,-1.3315,-1.3464,-1.3526,-1.341,-1.383,0.0,-1.1416,-1.1348,0.0,0.0,0.0,0.0,0.0,0.0,0.0,0.0,0.0,0.0,0.0,0.0,0.0,0.0,0.0,0.0,0.0,0.0,0.0,0.0,0.0,0.0,-1.1436,-1.1369,-1.1396,-1.1685,-1.271,-1.0425,-0.8435,-0.9109,-0.8794,-0.8506,0.0,0.0,0.0,0.0,0.0,0.0,-1.731,-2.0734,-2.3086,-2.3354,-2.346,-2.3474,-2.3394,-2.2832,-2.2058,-2.1056,-1.9853,-1.8597,-1.7288,-1.5337,0.0,0.0,0.0,0.0,0.0,0.0,0.0,0.0,0.0,0.0,0.0,0.0,0.0,0.0,0.0,0.0,0.0,0.0,0.0,0.0,0.0,0.0,0.0,0.0,0.0,0.0,0.0,0.0,0.0,-0.0,-0.0,-0.0,-0.0,-0.0,0.0,0.0,0.0,0.0,0.0,0.0,0.0,0.0,0.0,-0.0,-0.6058,-1.0002,-1.1294,-1.3098,-1.3971,-1.4166,-1.4331,-1.4189,-1.3925,-1.437,-1.4577,-1.4737,-1.4726,-1.4306,-1.3437,-1.2589,-1.1579,-1.0507,0.0,0.0,0.0,0.0,-0.9754,-0.9917,-1.0656,-1.0819,-1.0683,-1.0602,0.0,0.0,0.0,0.0,0.0,0.0,0.0,0.0,0.0,0.0,-1.1791,-1.2026,-1.2182,-1.2714,-1.4223,-1.2972,-1.1811,-1.22,-1.1885,-1.1328,-1.0536,-1.0632,0.0,0.0,0.0,-1.6755,-1.857,-2.1239,-2.2979,-2.33,-2.3327,-2.3327,-2.3327,-2.2926,-2.2365,-2.1643,-2.0815,-1.9813,-1.8637,-1.7876,-1.6771,0.0,0.0,0.0,0.0,0.0,0.0,0.0,0.0,0.0,0.0,0.0,0.0,0.0,0.0,0.0,0.0,0.0,0.0,0.0,0.0,0.0,0.0,0.0,0.0,0.0,0.0,0.0,0.0,-0.0,-0.0,-0.0,-0.0,-0.0,0.0,0.0,0.0,0.0,0.0,0.0,-0.0,-0.0,-0.0,-0.0,-0.3678,-0.7271,-1.0394,-1.2848,-1.4175,-1.4349,-1.3242,-1.3352,-1.4467,-1.4052,-1.4429,-1.5208,-1.5235,-1.5147,-1.4889,-1.36,-1.2501,-1.1586,-1.1097,-1.0744,-1.0541,-1.0839,-1.1049,-1.1131,-1.2093,-1.2381,-1.2265,-1.1894,-1.1497,-1.0987,-0.9848,0.0,0.0,0.0,0.0,-1.0177,-1.1053,-1.1682,-1.2095,-1.2461,-1.3033,-1.3975,-1.559,-1.5865,-1.5734,-1.5536,-1.5117,-1.4418,-1.3158,-1.32,0.0,-1.4095,-1.5991,-1.8026,-1.996,-2.167,-2.2873,-2.318,-2.3207,-2.3207,-2.3207,-2.2993,-2.2605,-2.2017,-2.1883,-2.1369,-2.0441,-2.0609,-1.9984,-1.8193,0.0,0.0,0.0,0.0,0.0,0.0,0.0,0.0,0.0,0.0,0.0,0.0,0.0,0.0,0.0,0.0,0.0,0.0,0.0,0.0,0.0,0.0,0.0,0.0,0.0,0.0,0.0,0.0,0.0,-0.0,-0.0,0.0,0.0,0.0,0.0,-0.0,-0.0,-0.0,-0.0,-0.0,-0.0,-0.0,-0.0177,-0.5048,-1.4862,-1.5133,-1.4884,-1.4304,-0.996,-1.0487,-1.5092,-1.1543,-1.1726,-1.4712,-1.5113,-1.5255,-1.5156,-1.4285,-1.3804,-1.3437,-1.284,-1.2508,-1.2352,-1.2244,-1.2352,-1.2472,-1.2585,-1.2644,-1.2683,-1.3109,-1.2664,-1.1682,-1.1378,-1.0849,0.0,0.0,-1.0978,-1.1502,-1.1661,-1.2233,-1.2683,-1.2695,-1.4266,-1.6267,-1.7919,-1.9193,-1.9951,-1.8928,-1.8072,-1.7566,-1.8047,0.0,-1.7682,-1.7735,-1.8628,-1.9666,-2.0926,-2.1857,-2.2552,-2.2859,-2.2886,-2.2886,-2.2886,-2.2873,-2.2605,-2.2017,-2.3221,-2.3598,-2.2914,-2.3198,-2.2878,-2.1845,-2.0114,0.0,0.0,0.0,0.0,0.0,0.0,0.0,0.0,0.0,0.0,0.0,0.0,0.0,0.0,0.0,0.0,0.0,0.0,0.0,0.0,0.0,0.0,0.0,0.0,0.0,0.0,0.0,0.0,-0.0,-0.0,0.0,-0.0,-0.0,-0.0,-0.0,-0.0,-0.0,-0.0,-0.0,-0.0,-0.0,-0.0,-0.166,-0.5461,-0.8673,-1.1794,-1.4891,-0.9637,-0.6597,-0.5545,-0.7416,-1.0829,-1.4871,-1.182,-1.2178,-1.5147,-1.5004,-1.438,-1.3878,-1.3505,-1.3329,-1.3061,-1.3143,-1.3276,-1.3394,-1.3506,-1.3604,-1.3614,-1.3501,-1.2908,-1.2306,-1.2092,-1.1667,-1.141,-1.1556,-1.1703,-1.2012,-1.2265,-1.2574,-1.2852,-1.28,-1.331,-1.4684,-1.7912,-1.8722,-1.9661,-2.1951,-2.1159,-1.9945,-1.9389,-1.9527,-1.9527,-1.8996,-2.003,-2.1074,-2.163,-2.2335,-2.2739,-2.2846,-2.2859,-2.2859,-2.2859,-2.2686,-2.2794,-2.3551,-2.353,-2.3809,-2.4198,-2.5065,-2.4788,-2.337,-2.2908,-2.1123,0.0,0.0,0.0,0.0,0.0,0.0,0.0,0.0,0.0,0.0,0.0,0.0,0.0,0.0,0.0,0.0,0.0,0.0,0.0,0.0,0.0,0.0,0.0,0.0,0.0,-0.0,-0.0,-0.0,-0.0,-0.0,-0.0,-0.0,-0.0,-0.0,-0.0,-0.0,-0.0,-0.0,-0.0,-0.0,-0.0,-0.0,-0.0,-0.3411,-0.6675,-1.0082,-0.6458,-0.3036,-0.0193,-0.3431,-0.685,-0.9936,-0.8364,-1.0455,-1.5269,-1.5133,-1.4828,-1.4414,-1.4116,-1.3974,-1.3867,-1.383,-1.3878,-1.4083,-1.4105,-1.4129,-1.4055,-1.366,-1.3431,-1.3071,-1.2868,-1.2641,-1.2521,-1.27,-1.2647,-1.2686,-1.2821,-1.2979,-1.2979,-1.2817,-1.3789,-1.5491,-1.7999,-1.9531,-2.1118,-2.3696,-2.306,-2.1943,-2.1025,-2.1107,-2.1012,-2.0316,-2.1137,-2.195,-2.2032,-2.2526,-2.2859,-2.2859,-2.2859,-2.3119,-2.3746,-2.3203,-2.345,-2.5006,-2.464,-2.4633,-2.5439,-2.6185,-2.6143,-2.4923,-2.3894,-2.2148,-1.9707,0.0,0.0,0.0,0.0,0.0,0.0,0.0,0.0,0.0,0.0,0.0,0.0,0.0,0.0,0.0,0.0,0.0,0.0,0.0,0.0,0.0,0.0,0.0,-0.0,-0.0,-0.0,-0.0,-0.0,-0.0,-0.0,-0.0,-0.0,-0.0,-0.0,-0.0,-0.0,-0.0,-0.0,-0.0,-0.0,-0.0,-0.0,-0.0,-0.0,-0.0,-0.0,-0.0,-0.0,-0.0,-0.0,-0.0191,-0.5313,-1.0081,-1.4747,-1.504,-1.5187,-1.4953,-1.4753,-1.4661,-1.4666,-1.4503,-1.4496,-1.4483,-1.4299,-1.4299,-1.4115,-1.4115,-1.3938,-1.3826,-1.3782,-1.377,-1.3816,-1.3855,-1.3686,-1.3516,-1.3494,-1.3169,-1.3007,-1.2824,-1.5717,-1.8658,-1.8648,-2.1801,-2.4475,-2.4301,-2.3714,-2.3214,-2.301,-2.2696,-2.2245,-2.1769,-2.2056,0.0,-2.2082,-2.2545,-2.2859,-2.2859,-2.2859,-2.3624,-2.5398,-2.4359,-2.4363,-2.629,-2.6313,-2.6417,-2.6529,-2.6835,-2.6836,-2.6387,-2.3027,-2.1055,-2.0586,0.0,0.0,0.0,0.0,0.0,0.0,0.0,0.0,0.0,0.0,0.0,0.0,0.0,0.0,0.0,0.0,0.0,0.0,0.0,0.0,0.0,-0.0,-0.0,-0.0,-0.0,-0.0,-0.0,-0.0,-0.0,-0.0,-0.0,-0.0,-0.0,-0.0,-0.0,-0.0,-0.0,-0.0,-0.0,-0.0,-0.0,-0.0,-0.0,-0.0,-0.0,-0.0,-0.0,-0.0,-0.0,-0.0,-0.0,-0.1524,-0.2858,-0.4768,-1.2058,-1.2962,-0.9996,-1.3715,-1.4908,-1.4715,-1.4598,-1.4665,-1.4666,-1.4483,-1.4483,-1.4299,-1.4299,-1.4115,-1.3905,-1.3921,-1.3693,-1.348,-1.3324,-1.3278,-1.318,-1.3097,-1.4164,-1.5223,-1.5031,-1.7016,-1.9214,-2.0575,-2.1644,-2.2818,-2.4153,-2.4209,-2.3718,-2.3309,-2.316,-2.301,-2.2559,-2.2722,-2.278,-2.2603,-2.2846,-2.2846,-2.2545,-2.2545,-2.3283,-2.5047,-2.408,-2.4658,-2.7495,-2.6623,-2.6555,-2.779,-2.7621,-2.7148,-2.6406,-2.3926,-2.2109,0.0,0.0,0.0,0.0,0.0,0.0,0.0,0.0,0.0,0.0,0.0,0.0,0.0,0.0,0.0,0.0,0.0,0.0,0.0,0.0,0.0,0.0,-0.0,-0.0,-0.0,-0.0,-0.0,-0.0,-0.0,-0.0,-0.0,-0.0,-0.0,-0.0,-0.0,-0.0,-0.0,-0.0,-0.0,-0.0,-0.0,-0.0,-0.0,-0.0,-0.0,-0.0,-0.0,-0.0,-0.0,-0.0,-0.0,-0.0,-0.0,-0.0,-0.0573,-0.8619,-1.0317,0.0,0.0,0.0,0.0,0.0,-1.4772,-1.4672,-1.4665,-1.4509,-1.4483,-1.4483,-1.4299,-1.4115,-1.3938,-1.3766,-1.3568,-1.3395,-1.3389,-1.3488,-1.4354,-1.5459,-1.6508,-1.7187,-1.8896,-2.0502,-2.1585,-2.2325,-2.3151,-2.4314,-2.4475,0.0,-2.3728,-2.3498,-2.3174,-2.2709,-2.2873,-2.2841,-2.2766,-2.2846,-2.316,-2.3639,-2.3644,-2.4716,-2.7238,-2.6216,0.0,0.0,0.0,-2.6874,-2.7226,-2.6992,0.0,0.0,0.0,0.0,0.0,0.0,0.0,0.0,-2.1172,-2.0644,0.0,0.0,0.0,0.0,0.0,0.0,0.0,0.0,0.0,0.0,0.0,0.0,0.0,0.0,0.0,0.0,-0.0,-0.0,-0.0,-0.0,-0.0,-0.0,-0.0,-0.0,-0.0,-0.0,-0.0,-0.0,-0.0,-0.0,-0.0,-0.0,0.0,0.0,0.0,-0.0,-0.0,-0.0,-0.0,-0.0,-0.0,-0.0,-0.0,-0.0,-0.0,-0.0,-0.0,-0.0,-0.0382,-0.4967,-0.7077,-0.8031,-1.3116,-1.5181,-1.5181,-1.4993,-1.4986,-1.4792,-1.4792,0.0,0.0,-1.4503,-1.4299,-1.4102,-1.4035,-1.4002,-1.3742,-1.3742,-1.3915,-1.4426,-1.6328,-1.6982,-1.7673,-1.9563,-2.1329,-2.246,-2.235,-2.3632,-2.4636,-2.4636,-2.4636,-2.4475,-2.4301,-2.3661,-2.3174,-2.2559,-2.2709,-2.2846,-2.2545,-2.2859,-2.379,-2.5222,0.0,0.0,-3.0501,-2.9204,-2.9012,-3.082,-2.8993,-2.7322,-2.6074,-2.6074,-2.5879,-2.5449,-2.543,-2.5762,-2.6465,-2.6172,-2.6426,-2.707,-2.3066,-2.2285,0.0,0.0,0.0,0.0,0.0,0.0,0.0,0.0,0.0,0.0,0.0,0.0,0.0,0.0,0.0,-0.0,-0.0,-0.0,-0.0,-0.0,-0.0,-0.0,-0.0,-0.0,-0.0,-0.0,-0.0,-0.0,-0.0,-0.0,-0.0,-0.0,-0.0,-0.0,-0.0,-0.0,-0.0,-0.0,-0.0,-0.0,0.0,0.0,-0.0,-0.0,-0.0,-0.0,-0.0,-0.0,-0.0,-0.1145,-0.382,-0.8031,-1.3116,-1.5181,-1.5181,-1.5181,-1.5181,-1.5181,-1.4986,-1.4725,-1.4553,-1.4455,-1.4115,-1.3846,-1.3722,-1.3665,0.0,-1.3569,-1.4773,-1.6154,-1.6502,-1.9287,-2.1816,-2.2032,-2.3744,-2.5088,-2.4674,-2.4797,-2.4972,-2.4636,-2.4636,-2.4475,-2.4301,-2.3971,-2.3625,-2.3174,-2.301,-2.2859,-2.2846,-2.4106,-2.5056,-2.5208,-2.6482,-2.8094,-3.0302,-2.9509,-2.9491,-3.084,-2.949,-2.8595,-2.8246,-2.827,-2.8105,-2.7676,-2.7676,-2.7422,-2.6894,-2.75,-2.7891,-2.8008,-2.6133,-2.5664,0.0,0.0,0.0,0.0,0.0,0.0,0.0,0.0,0.0,0.0,0.0,0.3778,0.2118,0.0,-0.0,-0.0,-0.0,-0.0,-0.0,-0.0,-0.0,-0.0,-0.0,-0.0,-0.0,-0.0,-0.0,-0.0,-0.0,-0.0,-0.0,-0.0,-0.0,-0.0,-0.0,-0.0,-0.0,-0.0,-0.0,-0.0,-0.0,-0.0,-0.0,-0.0,-0.0,-0.0,-0.0,-0.0,-0.0382,-0.5542,-0.7653,-0.8031,-1.3116,-1.5181,-1.5181,-1.5181,-1.5181,-1.5181,-1.5181,-1.4986,-1.4653,-1.45,-1.4201,-1.3968,-1.3665,-1.3569,-1.3742,-1.4773,-1.5806,-1.713,-1.9277,-2.1392,-2.338,-2.4269,-2.5319,-2.5872,-2.5638,-2.5241,-2.4985,-2.4811,-2.4649,-2.4636,-2.4462,-2.4155,-2.3863,-2.3571,-2.3475,-2.3639,-2.4408,-2.5208,-2.6374,-2.7751,-2.8717,-2.9978,-3.1753,-3.1117,-3.0773,-3.1152,-3.0334,-2.9754,-2.959,-2.9355,-2.9141,-2.8945,-2.8711,-2.8496,-2.8301,-2.873,-2.9043,-2.9238,-2.8594,-2.8301,0.0,0.0,0.0,0.0,0.0,0.0,0.0,0.7892,0.8273,0.8948,0.6793,0.4732,0.4251,0.1839,-0.0,-0.0,-0.0,-0.0,-0.0,-0.0,-0.0,-0.0,-0.0,-0.0,-0.0,-0.0,-0.0,-0.0,-0.0,-0.0,-0.0,-0.0,-0.0,-0.0,-0.0,-0.0,-0.0,-0.0,-0.0,-0.0,-0.0,-0.0,-0.0,-0.0,-0.0,-0.0189,-0.1887,-0.2831,-0.3398,-1.0621,-1.181,-0.9353,-1.3493,-1.5181,-1.5181,-1.5181,-1.5181,-1.5181,-1.5181,-1.5181,-1.4832,-1.4597,-1.4287,-1.3915,-1.3742,-1.3742,-1.4426,-1.6154,-1.7295,-1.8673,-2.2145,-2.338,-2.4256,-2.603,-2.6215,-2.603,-2.603,-2.5638,-2.5256,-2.5174,-2.4811,-2.4649,-2.4636,-2.4797,-2.4807,-2.447,-2.4317,-2.4943,-2.6414,-2.6923,-2.8196,-3.0774,-3.1425,-3.21,-3.3418,-3.2758,-3.2181,-3.1781,-3.1392,-3.0933,-3.0623,-3.0315,-3.0078,-3.0078,-2.9726,-2.9726,-3.0078,-3.0078,-3.0254,-3.0586,-3.0586,-3.0351,0.7733,0.7217,0.7258,0.7767,0.8018,0.8425,0.0,0.9546,0.9711,1.097,1.1184,1.0187,0.6978,0.2844,-0.0,-0.0,-0.0,-0.0,-0.0,-0.0,-0.0,-0.0,-0.0,-0.0,-0.0,-0.0,-0.0,-0.0,-0.0,-0.0,-0.0,-0.0,-0.0,-0.0,-0.0,-0.0,-0.0,-0.0,-0.0,-0.0,-0.0,-0.0,-0.0,-0.0,-0.0,-0.0543,-0.9075,-1.2752,-1.2391,-0.926,-1.034,-1.3852,-1.4416,-1.4792,-1.4792,-1.5181,-1.5181,-1.5181,-1.5181,-1.4986,-1.4772,-1.4639,-1.4265,-1.3742,-1.3576,-1.4773,-1.6328,-1.6502,-1.944,-2.2441,-2.3052,-2.461,-2.6043,-2.6386,-2.6386,-2.6215,-2.603,-2.5938,-2.571,-2.5175,-2.5133,-2.4972,-2.4636,-2.5996,-2.6967,-2.6646,-2.6442,-2.6954,-2.8835,-3.0427,-3.1503,-3.1935,-3.3272,-3.4266,-3.408,-3.3253,-3.2681,-3.2652,-3.2237,-3.2028,-3.1938,-3.1891,-3.1875,-3.1875,-3.1836,-3.1836,-3.1875,-3.1875,-3.1894,-3.1953,-3.1953,-3.1719,0.854,0.8364,0.8526,0.8866,0.9327,0.9829,1.0337,1.0451,1.0685,1.1483,1.1935,1.1722,1.0381,0.8802,0.6927,0.4399,0.397,0.3186,0.0339,-0.0,-0.0,-0.0,-0.0,-0.0,-0.0,-0.0,-0.0,-0.0,-0.0,-0.0,-0.0,-0.0,-0.0,-0.0,-0.0,-0.0,-0.0,-0.0,-0.0,-0.0,-0.0,-0.0,-0.0,-0.0,-0.3053,-0.8469,-1.2484,-1.4283,-1.4202,-1.2194,-1.2657,-1.4665,-1.4665,-1.4672,-1.4713,-1.5052,-1.4993,-1.4993,-1.4993,-1.4986,-1.4798,-1.4409,-1.4236,-1.4215,-1.5234,-1.598,-1.713,-1.9745,-2.17,-2.338,-2.4623,-2.5674,-2.6386,-2.6386,-2.6386,-2.6386,-2.6215,-2.6043,-2.5885,-2.5745,-2.5281,-2.5469,-2.6333,-2.7025,-2.8258,-3.0277,-2.9607,-2.9292,-3.1,-3.188,-3.2691,-3.3539,-3.4239,-3.4681,-3.4512,-3.3934,-3.3583,-3.3583,-3.3107,-3.2845,-3.2902,-3.2715,-3.2539,-3.2539,-3.2285,-3.2168,-3.2168,-3.2168,-3.2168,-3.2168,-3.2168,-3.2207,0.9028,0.9245,0.9625,0.9856,1.0446,1.0989,1.107,1.1287,1.1552,1.1809,1.2135,1.2266,1.2576,1.2915,1.2338,0.9039,0.8685,0.7772,0.4385,0.1749,-0.0,-0.0,-0.0,-0.0,-0.0,-0.0,-0.0,-0.0,-0.0,-0.0,-0.0,-0.0,-0.0,-0.0,-0.0,-0.0,-0.0,-0.0,-0.0,-0.0,-0.0,-0.0,-0.0,-0.2694,-0.7743,-1.4323,-1.4289,-1.4216,-1.4299,-1.4483,-1.4483,-1.4483,-1.4483,-1.4659,-1.4537,-1.478,-1.4852,-1.4986,-1.4986,-1.4886,-1.4936,-1.4553,-1.4652,-1.5279,-1.6726,-1.779,-1.9144,-2.2316,-2.3562,-2.4427,-2.603,-2.6386,-2.6386,-2.6386,-2.6386,-2.6386,-2.6386,-2.6215,-2.6043,-2.603,-2.6053,-2.6552,-2.7748,-2.8581,-3.014,-3.2856,-3.2467,-3.2295,-3.3348,-3.3521,-3.3886,-3.4948,-3.4948,-3.4835,-3.4933,-3.4497,-3.426,-3.412,-3.3769,-3.3583,-3.3418,-3.3125,-3.2969,-3.2969,-3.2676,-3.2519,-3.2519,-3.2519,-3.2519,-3.2519,-3.2519,-3.2676,0.894,0.9476,1.0134,1.0575,1.1145,1.1667,1.1959,1.2142,1.2298,1.2447,1.2488,1.2542,1.2698,1.2972,1.3116,1.3146,1.3251,1.3439,1.3789,0.578,-0.0,-0.0,-0.0,-0.0,-0.0,-0.0,-0.0,-0.0,-0.0,-0.0,-0.0,-0.0,-0.0,-0.0,-0.0,-0.0,-0.0,-0.0,-0.0,-0.0,-0.0,-0.0,-0.0359,-0.9559,-1.3957,-1.4316,-1.4367,-1.4306,-1.4299,-1.4299,-1.4299,-1.4299,-1.4299,-1.4299,-1.4306,-1.4503,-1.4685,-1.4792,-1.4792,-1.4618,-1.4694,-1.451,-1.5964,-1.7655,-1.744,-2.0282,-2.3416,-2.3562,-2.4952,-2.6386,-2.6386,-2.6386,-2.6386,-2.6386,-2.6386,-2.6386,-2.6386,-2.6386,-2.6373,-2.603,-2.7616,-2.8657,-2.8074,-3.1101,-3.3576,-3.3193,-3.4755,-3.584,-3.586,-3.586,-3.586,-3.6016,-3.5646,-3.5433,-3.5394,-3.4891,-3.4527,-3.4053,-3.41,-3.3915,-3.3418,-3.3418,-3.3398,-3.3398,-3.3379,-3.3379,-3.3379,-3.3379,-3.3379,-3.3379,-3.3379,-3.3398,0.9666,1.0446,1.1179,1.1525,1.2135,1.2651,1.2657,1.2617,1.2596,1.2644,1.242,1.2223,1.2277,1.2519,1.2623,1.2723,1.3238,1.2602,0.967,0.6615,0.3558,0.0324,-0.0,-0.0,-0.0,-0.0,-0.0,-0.0,-0.0,-0.0,-0.0,-0.0,-0.0,-0.0,-0.0,-0.0,-0.0,-0.0,-0.0,-0.0,-0.0,-0.0,-0.018,-0.3414,-0.8258,-1.4367,-1.4319,-1.4299,-1.4299,-1.4299,-1.4299,-1.4299,-1.4299,-1.4299,-1.4299,-1.4299,-1.4428,-1.441,-1.4597,-1.5578,-1.6872,-1.6687,-1.8169,-2.0091,-2.1556,-2.2966,-2.4456,-2.5896,-2.6571,-2.6942,-2.6942,-2.6743,-2.6386,-2.6386,-2.6386,-2.6386,-2.6386,-2.6386,-2.6743,-2.8016,-2.8734,-2.9739,-3.2124,-3.3214,-3.4059,-3.4948,-3.5646,-3.6016,-3.6016,-3.6016,-3.6016,-3.6016,-3.586,-3.584,-3.584,-3.5471,-3.5066,-3.5004,-3.4609,-3.4446,-3.4277,-3.4004,-3.3848,-3.3848,-3.3574,-3.3418,-3.3418,-3.3418,-3.3418,-3.3418,-3.3418,-3.3418,1.0588,1.1335,1.1952,1.2359,1.2779,1.3057,1.2908,1.28,1.2684,1.2522,1.2135,1.1857,1.1682,1.161,1.1795,1.2122,1.309,1.2602,0.9805,0.7972,0.5203,0.0496,-0.0,-0.0,-0.0,-0.0,-0.0,-0.0,-0.0,-0.0,-0.0,-0.0,-0.0,-0.0,-0.0,-0.0,-0.0,-0.0,-0.0,-0.0,-0.0,-0.0,-0.0,-0.1795,-0.5915,-1.1816,-1.3591,-1.4299,-1.4299,-1.4299,-1.4299,-1.4299,-1.4299,-1.4299,-1.4299,-1.4299,-1.485,-1.558,-1.558,-1.6687,-1.8126,-1.8846,-2.0443,-2.2588,-2.3971,-2.4939,-2.5986,-2.7363,-2.7463,-2.7264,-2.7146,-2.6756,-2.6558,-2.6386,-2.6386,-2.6386,-2.6386,-2.6928,-2.7829,-2.9108,-3.0483,-3.2119,-3.4444,-3.4948,-3.5316,-3.6191,-3.621,-3.621,-3.6016,-3.6016,-3.6016,-3.6016,-3.6016,-3.6016,-3.6016,-3.5821,-3.5491,-3.5471,-3.5123,-3.4887,-3.4692,-3.4492,-3.4297,-3.4297,-3.4023,-3.3887,-3.3887,-3.3887,-3.3809,-3.3652,-3.3652,-3.3574,1.1633,1.2108,1.2481,1.3044,1.3091,1.2949,1.2793,1.2732,1.2589,1.2142,1.1687,1.118,1.0881,1.0703,1.0793,1.1605,1.2782,1.3782,1.4035,1.0047,0.5493,0.1246,0.0499,0.0321,-0.0,-0.0,-0.0,-0.0,-0.0,-0.0,-0.0,-0.0,-0.0,-0.0,-0.0,-0.0,-0.0,-0.0,-0.0,-0.0,-0.0,-0.018,-0.0898,-0.5393,-0.738,-0.7735,-1.2349,-1.4299,-1.4299,-1.4299,-1.4299,-1.4299,-1.4299,-1.4299,-1.4299,-1.4483,-1.5948,-1.7789,-1.8126,-1.8126,-1.8585,-2.0737,-2.2899,-2.4927,-2.4927,-2.6242,-2.7787,-2.7725,-2.7608,-2.7335,-2.6892,-2.6797,-2.6743,-2.6558,-2.6386,-2.6386,-2.6386,-2.8002,-2.9453,-2.9552,-3.286,-3.5522,-3.5139,-3.631,-3.7248,-3.6719,-3.666,-3.6561,-3.6035,-3.6016,-3.6016,-3.6016,-3.6016,-3.6016,-3.6016,-3.6016,-3.584,-3.5471,-3.5471,-3.524,-3.4718,-3.4731,-3.4726,-3.4726,-3.4707,-3.4707,-3.4707,-3.4707,-3.4492,-3.4101,-3.4101,-3.3887,1.2257,1.28,1.3152,1.3308,1.3403,1.339,1.3119,1.28,1.2433,1.1986,1.1038,1.0346,1.0149,1.0187,1.063,1.1272,1.2442,1.3432,1.3852,1.2935,1.1703,1.0418,0.7372,0.3877,0.0352,-0.0,-0.0,-0.0,-0.0,-0.0,-0.0,-0.0,-0.0,-0.0,-0.0,-0.0,-0.0,-0.0,-0.0,-0.0,-0.0,-0.3773,-1.0655,-1.1933,-1.2437,-1.2526,-1.3768,-1.4299,-1.4299,-1.4299,-1.4299,-1.4299,-1.4299,-1.4299,-1.4483,-1.631,-1.7242,-1.8294,-2.1708,-2.2994,-2.2972,-2.3687,-2.5481,-2.7369,-2.7369,-2.7759,-2.8386,-2.8313,-2.8195,-2.7879,-2.7856,-2.7405,-2.6756,-2.6743,-2.6571,-2.6386,-2.6386,-2.8002,-2.9859,-3.1361,-3.4953,-3.7613,-3.7207,-3.7451,-3.7565,-3.7163,-3.6855,-3.6561,-3.6035,-3.6016,-3.6016,-3.6016,-3.6016,-3.6016,-3.6016,-3.6016,-3.6016,-3.584,-3.584,-3.5782,-3.5646,-3.541,-3.5215,-3.5215,-3.4883,-3.4707,-3.4707,-3.4707,-3.4648,-3.4531,-3.4531,-3.4473,1.2935,1.3308,1.3498,1.3498,1.3464,1.3281,1.2712,1.2338,1.1791,1.1047,1.0212,0.9478,0.9193,0.9353,0.9866,1.0704,1.1717,1.283,1.368,1.3948,1.3894,1.3818,1.1617,0.9078,0.6599,0.2455,-0.0,-0.0,-0.0,-0.0,-0.0,-0.0,-0.0,-0.0,-0.0,-0.0,-0.0,-0.0,-0.0,-0.0,-0.4314,-0.9016,-1.4323,-1.4263,-1.4373,-1.4299,0.0,-1.4299,-1.4299,-1.4299,-1.4299,-1.4299,-1.4299,-1.485,-1.5948,-1.7242,-1.9111,-2.1231,-2.3789,-2.5313,-2.6242,-2.6242,-2.7175,-2.8136,-2.8136,-2.8318,-2.8332,-2.8332,-2.8332,-2.8136,-2.7954,-2.7642,-2.7203,-2.6865,-2.6743,-2.6558,-2.6386,-2.8734,-3.1605,-3.4605,-3.7023,-3.8555,-3.8205,-3.8185,-3.8001,-3.7613,-3.7371,-3.7034,-3.6328,-3.6191,-3.6016,-3.6016,-3.6016,-3.6016,-3.6016,-3.6016,-3.6016,-3.6016,-3.6016,-3.6016,-3.6016,-3.5801,-3.5664,-3.5664,-3.541,-3.5273,-3.5273,-3.5273,-3.5176,-3.5,-3.575,-3.5631,1.3923,1.3837,1.3641,1.4034,1.359,1.2949,1.2052,1.169,1.1127,0.977,0.9125,0.872,0.8408,0.8501,0.9068,1.0215,1.1119,1.2288,1.339,1.374,1.3746,1.393,1.398,1.4115,1.4299,0.6261,0.0718,-0.0,-0.0,-0.0,-0.0,-0.0,-0.0,-0.0,-0.0,-0.0,-0.0,-0.0,-0.0718,-0.1976,-1.0286,-1.4316,-1.4296,-1.4353,-1.4299,-1.4299,-1.4299,-1.4299,-1.4299,-1.4299,-1.4483,-1.4843,-1.4843,-1.6133,-1.8337,-1.8638,-2.1221,-2.4746,-2.5108,-2.6436,-2.8136,-2.8136,-2.8136,-2.8136,-2.8136,-2.8136,-2.8136,-2.8136,-2.8136,-2.8136,-2.7759,-2.7746,-2.7508,-2.7042,-2.6865,-2.6756,-2.6915,-3.0054,-3.3956,-3.7792,-3.8574,-3.8574,-3.8574,-3.8574,-3.8389,-3.8001,-3.7982,-3.7662,-3.6937,-3.6367,-3.6035,-3.6016,-3.6016,-3.6016,-3.6016,-3.6016,-3.6016,-3.6016,-3.6016,-3.6016,-3.6016,-3.6016,-3.6016,-3.6016,-3.6016,-3.6016,-3.6016,-3.6016,-3.584,-3.5469,-3.6983,-3.6759,1.6623,1.5436,1.4217,1.6655,1.5074,1.2856,1.2274,1.1368,1.0537,0.9317,0.8436,0.8044,0.8212,0.8491,0.9195,1.058,1.1422,1.2179,1.3329,1.3389,1.3539,1.3981,1.4055,1.4115,1.4299,0.9143,0.4314,0.0359,-0.0,-0.0,-0.0,-0.0,-0.0,-0.0,-0.0,-0.0,-0.0,-0.0,-0.3953,-1.1754,-1.3585,-1.4269,-1.4333,-1.4312,-1.4299,-1.4299,-1.4299,0.0,-1.4299,-1.4299,-1.5395,-1.7234,-1.7234,-1.854,-2.0901,-2.2761,-2.3936,-2.4939,-2.698,-2.7928,-2.8136,-2.8136,-2.8136,-2.8136,-2.8136,-2.8136,-2.8136,-2.8136,-2.8136,-2.8136,-2.8136,-2.7941,-2.7693,-2.7508,-2.7108,-2.7286,-2.8921,-3.2283,-3.5741,-3.8078,-3.8574,-3.8574,-3.8574,-3.8574,-3.8574,-3.8555,-3.8166,-3.7885,-3.7759,-3.7073,-3.6405,-3.6035,-3.6016,-3.6016,-3.6016,-3.6016,-3.6016,-3.6016,-3.6016,-3.6016,-3.6016,-3.6016,-3.6016,-3.6016,-3.6016,-3.6016,-3.6016,-3.6016,-3.5976,-3.5918,-3.6169,-3.6898,1.9013,1.7768,1.5987,1.7467,1.5378,1.252,1.1629,1.0601,0.9606,0.8194,0.7589,0.7371,0.7568,0.8085,0.8778,0.9651,1.0517,1.1479,1.2562,1.2765,1.3236,1.4082,1.4122,1.4299,1.4299,0.9866,0.5214,0.0359,-0.0,-0.0,-0.0,-0.0,-0.0,-0.0,-0.0,-0.2335,-0.738,-0.738,-0.8469,-1.065,-1.3152,-1.4367,-1.4299,-1.4299,-1.4299,-1.4299,-1.4299,-1.4299,-1.4299,-1.4299,-1.5764,-1.7764,-1.7836,-1.9914,-2.3204,-2.4322,-2.5493,-2.6618,-2.7759,-2.8136,-2.8136,-2.8136,-2.8136,-2.8136,-2.8136,-2.8136,-2.8136,-2.8136,-2.8136,-2.8136,-2.8136,-2.8123,-2.7941,-2.7746,-2.7989,-2.9262,-3.2452,-3.4338,-3.6088,-3.8185,-3.8574,-3.8574,-3.8574,-3.8574,-3.8574,-3.8574,-3.8389,-3.8185,-3.7982,-3.7488,-3.7191,-3.668,-3.6561,-3.6386,-3.6386,-3.6191,-3.6016,-3.6016,-3.6016,-3.6016,-3.6016,-3.6016,-3.6016,-3.6016,-3.6016,-3.6016,-3.6016,-3.6016,-3.6016,-3.6016,-3.7822,-3.8729,2.1251,2.0123,1.8005,1.8426,1.579,1.269,1.097,1.0047,0.8871,0.7347,0.6881,0.6813,0.6929,0.7596,0.8226,0.8703,0.9545,1.0519,1.1837,1.2298,1.2927,1.3865,1.4122,1.4299,1.4299,1.0952,0.6296,0.0359,-0.0,-0.0,-0.0,-0.0,-0.0,-0.0,-0.1975,-0.6659,-1.4143,-1.4296,-1.2443,-0.8624,-1.2526,-1.4299,-1.4299,-1.4299,-1.4299,-1.4299,-1.4299,-1.4659,-1.5034,-1.5034,-1.6687,-1.9229,-1.9334,-2.18,-2.5481,-2.5481,-2.6618,-2.8136,-2.8136,-2.8136,-2.8136,-2.8136,-2.8136,-2.8136,-2.8136,-2.8136,-2.8136,-2.8136,-2.8136,-2.8136,-2.8136,-2.8514,-2.8906,-2.9088,-3.0188,-3.2275,-3.5539,-3.6253,-3.6657,-3.835,-3.8574,-3.8574,-3.8574,-3.8574,-3.8574,-3.8574,-3.8574,-3.8535,-3.8166,-3.8001,-3.7883,-3.7629,-3.7134,-3.6799,-3.6796,-3.6561,-3.621,-3.6191,-3.6191,-3.6055,-3.6016,-3.6016,-3.6016,-3.6016,-3.6016,-3.6016,-3.6016,-3.6016,-3.6016,-3.6016,-3.9256,-4.0148,2.345,2.2298,2.0058,2.0431,1.7957,1.4543,1.1221,0.985,0.8796,0.7217,0.6748,0.6634,0.7002,0.714,0.7664,0.8944,0.9308,0.9967,1.1394,1.2175,1.2758,1.3324,1.3938,1.4299,1.4299,1.3879,0.9922,0.0718,-0.0,-0.0,-0.0,-0.0,-0.0,-0.0,-0.8469,-1.3406,-1.4323,-1.438,-1.4135,-1.3591,-1.4122,-1.4299,-1.4299,-1.4299,-1.4299,-1.4299,-1.4299,-1.558,0.0,-1.7427,-2.0037,-2.414,-2.412,-2.5674,-2.7941,-2.7941,-2.7954,-2.8136,-2.8136,-2.8136,-2.8136,-2.8136,-2.8136,-2.8136,-2.8136,-2.8136,-2.8136,-2.8136,-2.8136,-2.8136,-2.8136,-2.9663,-3.1608,-3.3214,-3.483,-3.5964,-3.6238,-3.7245,-3.837,-3.8574,-3.8574,-3.8574,-3.8574,-3.8574,-3.8574,-3.8574,-3.8574,-3.8574,-3.8555,-3.8555,-3.8516,-3.8524,-3.775,-3.7313,-3.7248,-3.7149,-3.6953,-3.6601,-3.6581,-3.6405,-3.6016,-3.6016,-3.6016,-3.6016,-3.6016,-3.6016,-3.6016,-3.6016,-3.6016,-3.6016,-3.7955,-3.9627,2.5724,2.4746,2.2528,2.2813,1.914,1.4969,1.3483,1.0871,0.8522,0.7902,0.7064,0.6423,0.6662,0.6784,0.7116,0.7998,0.8247,0.8794,1.0176,1.0906,1.154,1.2559,1.3274,1.3694,1.4242,1.4296,1.0362,0.0693,-0.0,-0.0,-0.0,-0.0,-0.0,-0.0,-0.9317,-1.4289,-1.438,-1.4326,-1.4299,-1.4299,-1.4299,-1.4299,-1.4299,-1.4299,-1.4299,-1.4306,-1.5764,-1.6872,0.0,-1.9259,-2.1677,-2.4636,-2.4684,-2.6061,-2.8136,-2.8136,-2.8136,-2.8136,-2.8136,-2.8136,-2.8136,-2.8136,-2.8136,-2.8136,-2.8136,-2.8136,-2.8136,-2.8136,-2.8136,-2.8514,-2.986,-3.1677,-3.3967,-3.5943,-3.6729,-3.7276,-3.8182,-3.8739,-3.8944,-3.8594,-3.8574,-3.8574,-3.8574,-3.8574,-3.8574,-3.8574,-3.8574,-3.8574,-3.8574,-3.8574,-3.8574,-3.8574,-3.8001,-3.7692,-3.7617,-3.7378,-3.7197,-3.7016,-3.707,-3.6917,-3.6425,-3.6446,-3.6289,-3.6035,-3.6016,-3.6016,-3.6016,-3.6016,-3.6016,-3.6016,-3.8861,-4.0537,2.6415,2.6133,2.4579,2.388,2.011,1.6216,1.5193,1.2006,0.9119,0.8505,0.7545,0.6662,0.65,0.6578,0.674,0.0,0.7444,0.8086,0.9275,1.0015,1.0835,1.1931,1.2922,1.2484,1.0286,1.0107,0.7254,0.0507,-0.0,-0.1105,-0.3871,-0.3961,-0.4202,-0.4395,-1.1074,-1.4441,-1.4306,-1.4299,-1.4299,-1.4299,-1.4299,-1.4299,-1.4299,-1.5027,-1.5395,-1.5403,-1.7975,-1.9369,0.0,-2.165,-2.381,-2.5868,-2.5687,-2.6799,-2.8136,-2.8136,-2.8136,-2.8136,-2.8136,-2.8136,-2.8136,-2.8136,-2.8136,-2.8136,-2.8136,-2.8136,-2.8136,-2.8136,-2.871,-2.9761,-3.2582,-3.4448,-3.6146,-3.8328,-3.8502,-3.8396,-3.9609,-3.9504,-3.8944,-3.8594,-3.8574,-3.8574,-3.8574,-3.8574,-3.8574,-3.8574,-3.8574,-3.8574,-3.8574,-3.8574,-3.8574,-3.8574,-3.835,-3.8166,-3.8166,-3.7817,-3.7613,-3.7429,-3.7441,-3.7324,-3.6917,-3.6779,-3.6523,-3.6211,-3.6094,-3.6016,-3.6016,-3.6016,-3.6016,-3.6016,-3.9627,-4.1693,2.5062,2.5868,2.5787,2.314,2.0955,1.8688,1.571,1.313,1.0845,0.8793,0.8035,0.7467,0.65,0.6423,0.6578,0.6902,0.7444,0.8144,0.9076,1.002,1.0872,1.1563,1.3143,1.0471,0.1077,0.018,0.0176,-0.0,-0.0,0.0,-1.2764,-1.3272,-1.3859,-1.5036,-1.5018,-1.4812,-1.4666,-1.4483,-1.4483,-1.4299,-1.4299,-1.4299,-1.4306,-1.6687,-1.7789,-1.7975,-2.0596,-2.3021,0.0,-2.5108,-2.6424,-2.8514,-2.8318,-2.8136,-2.8136,-2.8136,-2.8136,-2.8136,-2.8136,-2.8136,-2.8136,-2.8136,-2.8136,-2.8136,-2.8136,-2.8136,-2.8136,-2.8136,-2.9677,-3.2418,-3.6693,-3.7906,-3.8483,-4.0569,-4.053,-3.991,-3.991,-3.9198,-3.8574,-3.8574,-3.8574,-3.8574,-3.8574,-3.8574,-3.8574,-3.8574,-3.8574,-3.8574,-3.8574,-3.8574,-3.8574,-3.8574,-3.8574,-3.8574,-3.8574,-3.8574,-3.837,-3.7962,-3.7962,-3.7711,-3.7332,-3.6852,-3.668,-3.666,-3.623,-3.6016,-3.6016,-3.6016,-3.6016,-3.6016,-3.9627,-4.2981,2.2432,2.3174,2.3077,2.1895,1.9611,1.7593,1.6685,1.3731,1.0947,0.985,0.8637,0.7467,0.65,0.6338,0.6634,0.7407,0.7642,0.8108,0.9082,0.9719,1.0032,0.978,0.6653,0.3254,0.0356,-0.0,-0.2472,-0.8653,-0.9137,-0.9137,-0.8795,-1.1945,-1.4051,-1.4649,-1.43,-1.4184,-1.4336,-1.4316,-1.4483,-1.4483,-1.4483,-1.5219,-1.6872,-1.7612,-1.8873,-2.0666,-2.306,-2.4442,-2.5231,-2.6594,-2.7702,-2.8332,-2.815,-2.8318,-2.8514,-2.8514,-2.8514,-2.8514,-2.8514,-2.8332,-2.8136,-2.8136,-2.8136,-2.8136,-2.8136,-2.9284,-3.0648,-3.2218,-3.4145,-3.6147,-3.7493,-3.9099,-4.0317,-4.0569,-4.053,-4.0202,-3.9629,-3.9171,-3.8944,-3.8594,-3.8574,-3.8574,-3.8574,-3.8574,-3.8574,-3.8574,-3.8574,-3.8574,-3.8574,-3.8574,-3.8574,-3.8574,-3.8574,-3.8574,-3.8574,-3.8574,-3.8555,-3.837,-3.837,-3.8127,-3.7731,-3.7537,-3.7197,-3.668,-3.6543,-3.6309,-3.6016,-3.6016,-3.7173,-3.9627,-4.0666,-4.2981,2.016,2.1155,2.1464,2.1027,1.909,1.7158,1.7177,1.4526,1.164,1.0293,0.914,0.7949,0.6578,0.6338,0.6541,0.7181,0.7459,0.7864,0.8419,0.9017,0.8437,0.5842,0.2319,-0.0,-0.0,-0.3053,-0.7431,-1.2965,-1.3392,-1.2154,-0.9421,-1.2081,-1.3913,-1.3931,-1.3957,-1.3957,-1.4143,-1.4216,-1.4262,-1.4443,-1.5195,-1.619,-1.7781,-1.9416,-2.1108,-2.2686,-2.4961,-2.6066,0.0,-2.7473,-2.8021,-2.7954,-2.8136,-2.8318,-2.8386,-2.8644,-2.8618,-2.8552,-2.8663,-2.8332,-2.8136,-2.8136,-2.8136,-2.8514,-2.9874,-3.0817,-3.2048,-3.4998,-3.6727,-3.7906,-3.8695,-3.9736,-4.0569,-4.0336,-4.0067,-3.9883,-3.9366,-3.9129,-3.8944,-3.8594,-3.8574,-3.8574,-3.8574,-3.8574,-3.8574,-3.8574,-3.8574,-3.8574,-3.8574,-3.8574,-3.8574,-3.8574,-3.8574,-3.8574,-3.8574,-3.8574,-3.8574,-3.8574,-3.8574,-3.8535,-3.8185,-3.7982,-3.7643,-3.6934,-3.6758,-3.6465,-3.6016,-3.6674,-3.8465,-4.1181,-4.182,-4.3606,0.0,1.9598,2.0289,2.0289,1.8799,1.7326,1.7022,1.5198,0.0,1.0196,0.9463,0.8604,0.6662,0.6423,0.65,0.6578,0.7063,0.7408,0.7238,0.7801,0.6237,0.0717,-0.0663,-0.1077,-0.0898,-0.8285,-1.3167,-1.3465,-1.3471,-1.3403,-1.3403,-1.3403,-1.3403,-1.3403,-1.3915,-1.4253,-1.4088,-1.413,-1.4094,-1.4094,-1.6204,-1.7214,-1.7647,-2.2001,-2.3858,0.0,-2.6674,-2.7669,-2.764,-2.764,-2.764,-2.764,-2.8016,-2.8123,-2.8207,-2.8713,-2.8719,-2.8539,-2.8551,-2.8332,-2.8136,-2.8136,-2.815,-2.9088,-3.2815,-3.2786,-3.2495,-3.6737,-3.7732,-3.7888,-3.997,-4.0163,-3.9932,-3.9932,-3.9537,-3.9169,-3.9149,-3.8924,-3.8574,-3.8574,-3.8574,-3.8574,-3.8574,-3.8574,-3.8574,-3.8574,-3.8574,-3.8574,-3.8574,-3.8574,-3.8574,-3.8574,-3.8574,-3.8574,-3.8574,-3.8574,-3.8574,-3.8574,-3.8574,-3.8574,-3.8574,-3.8185,-3.7778,-3.7363,-3.6894,-3.6583,-3.6152,-3.7842,-3.9518,-4.1437,-4.2958,-4.462,1.471,0.0,1.6592,1.6374,1.5832,1.5178,0.0,1.3479,1.1702,1.0063,0.8893,0.7871,0.6817,0.6578,0.674,0.7545,0.7727,0.7414,0.6093,0.3727,0.1602,0.0145,-0.6483,-1.0835,-1.0286,-0.9195,-0.9902,-1.3331,-1.3763,-1.3742,-1.3742,-1.3576,-1.3569,-1.3569,-1.3569,-1.3742,-1.3915,-1.3858,-1.4878,-1.6657,-1.7016,-1.9025,-2.2425,-2.3651,-2.5138,-2.6848,-2.7405,-2.7622,-2.7712,-2.7524,-2.735,-2.735,-2.7524,-2.7702,-2.7928,-2.8207,-2.8309,-2.8335,-2.8551,-2.8318,-2.7759,-2.7564,-2.8528,-3.0254,-3.283,-3.3547,-3.421,-3.8309,-3.933,-3.9432,-3.9928,-3.9969,-3.9781,-3.9386,-3.9259,-3.9149,-3.8779,-3.8739,-3.8574,-3.8574,-3.8574,-3.8574,-3.8574,-3.8574,-3.8574,-3.8574,-3.8574,-3.8574,-3.8574,-3.8574,-3.8574,-3.8574,-3.8574,-3.8574,-3.8574,-3.8574,-3.8574,-3.8574,-3.8574,-3.8574,-3.8574,-3.8555,-3.8156,-3.7793,-3.7051,-3.7112,-3.7955,-3.8353,-4.0148,-4.3083,-4.3482,-4.462,1.3263,1.422,1.5134,1.503,1.4424,1.3736,1.3453,1.2082,1.0381,0.908,0.8255,0.7545,0.674,0.6536,0.6628,0.7228,0.7259,0.6215,0.3285,0.1206,-0.1683,-0.611,-1.109,-1.4117,-1.3872,-1.1648,-1.1296,-1.3646,-1.3817,-1.3817,-1.381,-1.364,-1.3682,-1.3583,-1.4426,-1.4434,-1.3576,-1.46,-1.5806,-1.719,-1.9029,-2.1307,-2.3562,-2.4781,-2.5859,-2.71,-2.71,-2.71,-2.71,-2.6928,-2.6928,-2.6928,-2.7114,-2.7364,-2.7539,-2.8101,-2.8063,-2.8017,-2.8167,-2.7956,-2.7703,-2.8454,-2.94,-3.0795,-3.3848,-3.4796,-3.5646,-3.8974,-3.9771,-3.9557,-3.9592,-3.9374,-3.9169,-3.8964,-3.8944,-3.8944,-3.8594,-3.8574,-3.8574,-3.8574,-3.8574,-3.8574,-3.8574,-3.8574,-3.8574,-3.8574,-3.8574,-3.8574,-3.8574,-3.8574,-3.8574,-3.8574,-3.8574,-3.8574,-3.8574,-3.8574,-3.8574,-3.8574,-3.8574,-3.8574,-3.8574,-3.8574,-3.8281,-3.7656,-3.7788,-3.8159,-3.8597,-4.0148,-4.1924,-4.3731,-4.4497,-4.5403,1.2889,1.3747,1.4559,1.4552,1.357,1.2506,1.2272,1.0822,0.92,0.8069,0.7708,0.7382,0.674,0.6435,0.6294,0.6241,0.6344,0.4481,-0.123,-0.2035,-0.4798,-1.224,-1.3758,-1.4249,-1.4312,-1.4187,-1.4096,-1.4075,-1.3938,-1.4115,-1.4306,-1.4299,-1.4381,-1.4622,-1.6328,-1.6287,-1.4332,-1.6121,-1.733,-1.759,-2.1402,-2.321,-2.3721,-2.5503,-2.6386,-2.6386,0.0,0.0,-2.6386,-2.6386,-2.6386,-2.64,-2.6928,-2.7114,-2.7286,-2.7829,-2.7757,-2.7495,-2.7495,-2.7405,-2.7471,-2.9483,-3.0414,-3.126,-3.4895,-3.6088,-3.684,-3.9129,-3.9374,-3.9149,-3.9149,-3.8924,-3.8574,-3.8574,-3.8574,-3.8574,-3.8574,-3.8574,-3.8574,-3.8574,-3.8574,-3.8574,-3.8574,-3.8574,-3.8574,-3.8574,-3.8574,-3.8574,-3.8574,-3.8574,-3.8574,-3.8574,-3.8574,-3.8574,-3.8574,-3.8574,-3.8574,-3.8574,-3.8574,-3.8574,-3.8574,-3.8574,-3.8308,-3.7727,-3.8788,-3.939,-3.9366,-4.2328,-4.3855,-4.4103,-4.5671,-4.6301,1.3314,1.3028,1.2531,1.2361,1.1558,1.0719,1.0603,0.9443,0.8394,0.819,0.7467,0.6902,0.6979,0.6817,0.6213,0.4626,0.5874,0.268,-0.9613,-1.0946,-0.9983,-0.8425,-1.1482,-1.3781,-1.4115,-1.4217,-1.4197,-1.4108,-1.4122,-1.5034,-1.7057,-1.6864,-1.7454,-1.9503,-1.9473,-1.9231,-1.8896,-1.9221,-2.0273,-2.2145,-2.2747,-2.4086,-2.5859,-2.6215,-2.6386,-2.6386,0.0,-2.6386,-2.6386,-2.6386,-2.6386,-2.6386,-2.6558,-2.6558,-2.6571,-2.6928,-2.7037,-2.7013,-2.7013,-2.6905,-2.7114,-2.8935,-3.0745,-3.2583,-3.4866,-3.684,-3.835,-3.8739,-3.8759,-3.8739,-3.8739,-3.8594,-3.8574,-3.8574,-3.8574,-3.8574,-3.8574,-3.8574,-3.8574,-3.8574,-3.8574,-3.8574,-3.8574,-3.8574,-3.8574,-3.8574,-3.8574,-3.8574,-3.8574,-3.8574,-3.8574,-3.8574,-3.8574,-3.8574,-3.8574,-3.8574,-3.8574,-3.8574,-3.8574,-3.8574,-3.8574,-3.8574,-3.8863,-3.9454,-3.9625,-4.0756,-4.2958,-4.3458,-4.4497,-4.5914,-4.618,-4.6301,1.2131,1.1512,1.0886,1.0395,1.0085,0.9894,0.9846,0.8647,0.7598,0.7598,0.725,0.6993,0.7083,0.588,0.4184,0.2198,-0.141,-0.614,-1.2522,-1.3113,-1.2278,-1.0704,-1.217,-1.3394,-1.3571,-1.3755,-1.3755,-1.3755,-1.4843,-1.5948,-1.7049,-1.787,-1.879,-2.0059,-2.0909,-2.1457,-2.1648,-2.2843,-2.3371,-2.304,-2.4269,-2.549,-2.6386,-2.6386,-2.6386,-2.6386,0.0,-2.6386,-2.6386,-2.6386,-2.6386,-2.6386,-2.6386,-2.6386,-2.6386,-2.6558,-2.6571,-2.6571,-2.6571,-2.6571,-2.71,-3.0047,-3.1678,-3.311,-3.6253,-3.7797,-3.8574,-3.8574,-3.8574,-3.8574,-3.8574,-3.8574,-3.8574,-3.8574,-3.8574,-3.8574,-3.8574,-3.8574,-3.8574,-3.8574,-3.8574,-3.8574,-3.8574,-3.8574,-3.8574,-3.8574,-3.8574,-3.8574,-3.8574,-3.8574,-3.8574,-3.8574,-3.8574,-3.8574,-3.8574,-3.8574,-3.8574,-3.8574,-3.8574,-3.8574,-3.8574,-3.8574,-3.9006,-3.9866,-4.0758,-4.2013,-4.3731,-4.4645,-4.5525,-4.6301,-4.6301,-4.6301,1.1476,1.0469,0.9493,0.917,0.9145,0.915,0.9241,0.839,0.7444,0.7353,0.7444,0.7353,0.7164,0.4511,0.1196,-0.2602,-0.8963,-1.3453,-1.3433,-1.3173,-1.301,-1.3375,-1.315,-1.3172,-1.335,-1.335,-1.335,-1.335,-1.5294,-1.6682,-1.7111,-1.8976,-2.033,-2.1168,-2.256,-2.3392,-2.3721,-2.5319,-2.549,-2.3903,-2.5661,-2.6386,-2.6386,-2.6386,-2.6386,-2.6386,-2.6386,-2.6386,-2.6386,-2.6386,-2.6386,-2.6386,-2.6386,-2.6386,-2.6386,-2.6386,-2.6386,-2.6386,-2.6386,-2.6743,-2.7657,-3.1337,-3.279,-3.385,-3.7429,-3.8574,-3.8574,-3.8574,-3.8574,-3.8574,-3.8574,-3.8574,-3.8574,-3.8574,-3.8574,-3.8574,-3.8574,-3.8574,-3.8574,-3.8574,-3.8574,-3.8574,-3.8574,-3.8574,-3.8574,-3.8574,-3.8574,-3.8574,-3.8574,-3.8574,-3.8574,-3.8574,-3.8574,-3.8574,-3.8574,-3.8574,-3.8574,-3.8574,-3.8574,-3.8865,-3.9261,-3.9261,-3.9861,-4.1358,-4.2416,-4.3517,-4.4543,-4.5721,-4.6301,-4.6301,-4.6301,-4.6301,1.264,1.0636,0.8576,0.9533,0.8855,0.8076,0.859,0.8689,0.8484,0.828,0.8386,0.8181,0.7267,0.3321,-0.2624,-1.1083,-1.2956,-1.3454,-1.3453,-1.3039,-1.301,-1.3375,-1.3219,-1.3113,-1.3432,-1.344,-1.344,-1.344,-1.5228,-1.7316,-1.9554,-2.1268,-2.334,-2.5445,-2.5462,-2.5319,-2.5319,-2.549,-2.5846,-2.6201,-2.6386,-2.6386,-2.6386,-2.6386,-2.6386,-2.6386,-2.6386,-2.6386,-2.6386,-2.6386,-2.6386,-2.6386,-2.6386,-2.6386,-2.6386,-2.6386,-2.6386,-2.6386,-2.6386,-2.7643,-2.9483,-3.1715,-3.372,-3.5705,-3.7982,-3.8574,-3.8574,-3.8574,-3.8574,-3.8574,-3.8574,-3.8574,-3.8574,-3.8574,-3.8574,-3.8574,-3.8574,-3.8574,-3.8574,-3.8574,-3.8574,-3.8574,-3.8574,-3.8574,-3.8574,-3.8574,-3.8574,-3.8574,-3.8574,-3.8574,-3.8574,-3.8574,-3.8574,-3.8574,-3.8574,-3.8574,-3.8574,-3.8574,-3.8574,-3.9405,-4.1063,-4.1063,-4.2471,-4.5489,-4.5149,-4.5549,-4.6809,-4.6431,-4.6301,-4.6301,-4.6301,-4.6301,1.0058,0.8988,0.8295,0.8517,0.8434,0.8167,0.8105,0.8357,0.869,0.9154,0.7321,0.6102,0.7419,-0.0819,-0.9042,-1.2727,-1.3276,-1.32,-1.3376,-1.3231,-1.301,-1.3212,-1.2979,-1.2817,-1.2824,-1.2824,-1.3303,-1.4585,-1.6534,-1.8744,-2.0888,-2.2818,-2.4301,-2.5469,-2.5254,-2.5304,-2.5483,-2.5483,-2.5648,-2.5827,-2.5856,-2.5846,-2.5846,-2.603,-2.6201,-2.6201,-2.6386,-2.6386,-2.6386,-2.6386,-2.6386,-2.6386,-2.6386,-2.6386,-2.6386,-2.6386,-2.6386,-2.6571,-2.7829,-2.8748,-2.9882,-3.3264,-3.4836,-3.5887,-3.7982,-3.8574,-3.8574,-3.8574,-3.8574,-3.8574,-3.8574,-3.8574,-3.8574,-3.8574,-3.8574,-3.8574,-3.8574,-3.8574,-3.8574,-3.8574,-3.8574,-3.8574,-3.8574,-3.8574,-3.8574,-3.8574,-3.8574,-3.8574,-3.8574,-3.8574,-3.8574,-3.8574,-3.8574,-3.8574,-3.8574,-3.8574,-3.8574,-3.8574,-3.8574,-3.9405,-4.1184,-4.1326,-4.2769,-4.5954,-4.5432,-4.5827,-4.7129,-4.6577,-4.6301,-4.6301,-4.6301,-4.6301,0.8512,0.7855,0.7727,0.7546,0.7903,0.8201,0.765,0.8363,0.9237,0.9883,0.6187,0.2504,0.1979,-0.6083,-1.2638,-1.3181,-1.3233,-1.3231,-1.3397,-1.3231,-1.3247,-1.2999,-1.278,-1.2663,-1.2501,-1.3141,-1.3944,-1.5391,-1.8009,-2.0178,-2.1538,-2.3484,-2.4649,-2.4972,-2.4972,-2.4985,-2.5147,-2.5147,-2.5147,-2.516,-2.5272,-2.5308,-2.5489,-2.567,-2.5856,-2.5846,-2.603,-2.6201,-2.6201,-2.6215,-2.6386,-2.6386,-2.6386,-2.6386,-2.6386,-2.6386,-2.6386,-2.6743,-2.8734,-2.9874,-3.093,-3.4457,-3.5906,-3.6675,-3.8185,-3.8574,-3.8574,-3.8574,-3.8574,-3.8574,-3.8574,-3.8574,-3.8574,-3.8574,-3.8574,-3.8574,-3.8574,-3.8574,-3.8574,-3.8574,-3.8574,-3.8574,-3.8574,-3.8574,-3.8574,-3.8574,-3.8574,-3.8574,-3.8574,-3.8574,-3.8574,-3.8574,-3.8574,-3.8574,-3.8574,-3.8574,-3.8574,-3.8574,-3.9136,-4.0228,-4.2171,-4.2709,-4.4256,-4.6891,-4.6359,-4.6357,-4.7129,-4.6577,-4.6301,-4.6301,-4.6301,-4.6301,0.8654,0.7674,0.6698,0.6813,0.7343,0.7818,0.7215,0.8649,1.0145,1.0497,0.4848,-0.2506,-1.0142,-1.2131,-1.2621,-1.2749,-1.3003,-1.3231,-1.3397,-1.3231,-1.3231,-1.3231,-1.2874,-1.267,-1.2663,-1.4423,-1.5554,-1.5546,-1.9275,-2.1662,-2.1662,-2.3484,-2.4636,-2.4636,-2.4636,-2.4636,-2.4636,-2.4636,-2.4636,-2.4636,-2.4636,-2.4972,-2.5483,-2.5483,-2.5456,-2.5477,-2.5477,-2.5477,-2.549,-2.5846,-2.6201,-2.6386,-2.6386,-2.6386,-2.6386,-2.6386,-2.6386,-2.6743,-2.8734,-3.0804,-3.293,-3.4939,-3.6859,-3.8574,-3.8574,-3.8574,-3.8574,-3.8574,-3.8574,-3.8574,-3.8574,-3.8574,-3.8574,-3.8574,-3.8574,-3.8574,-3.8574,-3.8574,-3.8574,-3.8574,-3.8574,-3.8574,-3.8574,-3.8574,-3.8574,-3.8574,-3.8574,-3.8574,-3.8574,-3.8574,-3.8574,-3.8574,-3.8574,-3.8574,-3.8574,-3.8574,-3.8574,-3.8574,-4.0371,-4.2171,-4.3978,-4.5862,-4.7399,-4.8786,-4.8209,-4.7657,-4.7129,-4.6577,-4.6301,-4.6301,-4.6301,-4.6301,0.7148,0.6614,0.6485,0.6905,0.6101,0.581,0.8447,0.9498,0.8632,0.4048,-0.3263,-0.9563,-1.1818,-1.2397,-1.2512,-1.2637,-1.2842,-1.3058,-1.3058,-1.3231,-1.3231,-1.3231,-1.307,-1.3465,-1.4796,-1.5236,-1.6708,-1.9554,-2.0969,-2.2165,-2.3645,-2.4301,-2.4636,-2.4636,-2.4636,-2.4636,-2.4636,-2.4636,-2.4636,-2.4636,-2.4636,-2.4649,-2.4811,-2.5133,-2.5175,-2.517,-2.5486,-2.5499,-2.5553,-2.5687,-2.5674,-2.5846,-2.603,-2.6201,-2.6201,-2.6386,-2.7286,-2.8748,-3.0943,-3.284,-3.4957,-3.7023,-3.8166,-3.8574,-3.8574,-3.8574,-3.8574,-3.8574,-3.8574,-3.8574,-3.8574,-3.8574,-3.8574,-3.8574,-3.8574,-3.8574,-3.8574,-3.8574,-3.8574,-3.8574,-3.8574,-3.8574,-3.8574,-3.8574,-3.8574,-3.8574,-3.8574,-3.8574,-3.8574,-3.8574,-3.8574,-3.8574,-3.8574,-3.8574,-3.8574,-3.8574,-3.9136,-4.0371,-4.2312,-4.3542,-4.4116,-4.5862,-4.7399,-4.8786,-4.8209,-4.7657,-4.7129,-4.6577,-4.6301,-4.6301,-4.6301,-4.6301,0.6157,0.6103,0.6529,0.7031,0.6187,0.6,0.9104,0.7828,0.3795,-0.3439,-0.8997,-1.2454,-1.2417,-1.2372,-1.2393,-1.244,-1.261,-1.2695,-1.2821,-1.2893,-1.3058,-1.3058,-1.2886,-1.3669,-1.5629,-1.6357,-1.8029,-2.1378,-2.2325,-2.3311,-2.4475,-2.4636,-2.4636,-2.4636,-2.4636,-2.4636,-2.4636,-2.4636,-2.4636,-2.4636,-2.4636,-2.4636,-2.4636,-2.4811,-2.4972,-2.4972,-2.5133,-2.5147,-2.5363,-2.5398,-2.5357,-2.5524,-2.5692,-2.6324,-2.6928,-2.7114,-2.8389,-3.049,-3.2626,-3.4267,-3.5686,-3.7817,-3.8574,-3.8574,-3.8574,-3.8574,-3.8574,-3.8574,-3.8574,-3.8574,-3.8574,-3.8574,-3.8574,-3.8574,-3.8574,-3.8574,-3.8574,-3.8574,-3.8574,-3.8574,-3.8574,-3.8574,-3.8574,-3.8574,-3.8574,-3.8574,-3.8574,-3.8574,-3.8574,-3.8574,-3.8574,-3.8574,-3.8574,-3.8574,-3.8574,-3.9261,-4.0085,-4.1184,-4.368,-4.5186,-4.5186,-4.6764,-4.7887,-4.8435,-4.7883,-4.733,-4.6803,-4.6476,-4.6301,-4.6301,-4.6301,-4.6301,0.5401,0.5826,0.6675,0.6937,0.6148,0.5764,0.7415,0.3458,-0.2829,-1.0919,-1.2521,-1.2481,-1.2205,-1.2185,-1.2165,-1.2273,-1.2275,-1.2303,-1.2417,-1.2559,-1.2566,-1.29,-1.2782,-1.3605,-1.6104,-1.783,-1.9582,-2.1674,-2.3472,-2.4475,-2.4475,-2.4475,-2.4475,-2.4475,-2.4475,-2.4475,-2.4475,-2.4475,-2.4475,-2.4475,-2.4488,-2.4636,-2.4636,-2.4636,-2.4636,-2.4636,-2.4636,-2.4811,-2.5308,-2.5147,-2.5308,-2.5658,-2.5658,-2.6847,-2.8375,-2.8602,-2.9829,-3.182,-3.4074,-3.5012,-3.5504,-3.7778,-3.8555,-3.8555,-3.8555,-3.8555,-3.8555,-3.8574,-3.8574,-3.8574,-3.8574,-3.8574,-3.8574,-3.8574,-3.8574,-3.8574,-3.8574,-3.8574,-3.8574,-3.8574,-3.8574,-3.8574,-3.8574,-3.8574,-3.8574,-3.8574,-3.8574,-3.8574,-3.8574,-3.8574,-3.8574,-3.8574,-3.8574,-3.8574,-3.8574,-4.0228,-4.1326,-4.1608,-4.4891,-4.6931,-4.7088,-4.8219,-4.851,-4.7908,-4.7405,-4.6853,-4.6301,-4.6301,-4.6301,-4.6301,-4.6301,-4.6301,0.3845,0.4468,0.5822,0.63,-0.0957,-0.8153,-0.7846,-0.6298,-0.6455,-1.1403,-1.2298,-1.2218,-1.2192,-1.2185,-1.2033,-1.1884,-1.2149,-1.2308,-1.2268,-1.231,-1.3074,-1.4621,-1.4637,-1.5903,-1.9512,-2.0102,-2.1024,-2.3151,-2.3806,-2.3979,-2.3979,-2.3979,-2.3979,-2.3979,-2.3979,-2.3979,-2.3979,-2.3979,-2.3979,-2.3979,-2.414,-2.4301,-2.4301,-2.4475,-2.4636,-2.4636,-2.4636,-2.5483,-2.6848,-2.5322,-2.5645,-2.7025,-2.7349,-2.7688,-2.8163,-2.9903,-3.1841,-3.3567,-3.4186,-3.5407,-3.684,-3.741,-3.7594,-3.7613,-3.7982,-3.8001,-3.8166,-3.8555,-3.8574,-3.8574,-3.8574,-3.8574,-3.8574,-3.8574,-3.8574,-3.8574,-3.8574,-3.8574,-3.8574,-3.8574,-3.8574,-3.8574,-3.8574,-3.8574,-3.8574,-3.8574,-3.8574,-3.8574,-3.8574,-3.8574,-3.8574,-3.8574,-3.8574,-3.8574,-3.8574,-4.0228,-4.189,-4.3404,-4.5592,-4.7485,-4.8893,-4.891,-4.851,-4.7908,-4.7405,-4.6853,-4.6301,-4.6301,-4.6301,-4.6301,-4.6301,-4.6301,0.2257,-0.0654,-0.2648,-0.2368,-0.5883,-0.9982,-1.207,-1.0837,-0.9885,-1.2115,-1.2387,-1.2253,-1.2285,-1.2081,-1.1979,-1.1818,-1.2661,-1.3259,-1.3259,-1.4153,-1.5211,-1.6271,-1.6285,-1.7487,-2.0489,-2.0803,-2.1554,-2.3625,-2.3781,-2.3781,-2.3781,-2.3781,-2.3781,-2.3781,-2.3781,-2.3781,-2.3781,-2.3781,-2.3781,-2.3781,-2.395,-2.4075,-2.3979,-2.4462,-2.4636,-2.4636,-2.4636,-2.5658,-2.7467,-2.6445,-2.7082,-2.8903,-2.8918,-2.9663,-3.0626,-3.1788,-3.3366,-3.5122,-3.5316,-3.607,-3.6984,-3.7183,-3.7344,-3.7344,-3.7543,-3.7565,-3.7778,-3.8166,-3.8205,-3.835,-3.8555,-3.8574,-3.8574,-3.8574,-3.8574,-3.8574,-3.8574,-3.8574,-3.8574,-3.8574,-3.8574,-3.8574,-3.8574,-3.8574,-3.8574,-3.8574,-3.8574,-3.8574,-3.8574,-3.8574,-3.8574,-3.8574,-3.8574,-3.8991,-3.9818,-4.1608,-4.3404,-4.5321,-4.7088,-4.8484,-4.9213,-4.8661,-4.8209,-4.7908,-4.7129,-4.6602,-4.6301,-4.6301,-4.6301,-4.6301,-4.6301,-4.6301,-0.0373,-0.6415,-1.1327,-1.1497,-0.9378,-0.7984,-1.16,-1.2347,-1.2347,-1.2347,-1.234,-1.2166,-1.2329,-1.1921,-1.1914,-1.2215,-1.3411,-1.4576,-1.4802,-1.6149,-1.7358,-1.7826,-1.8004,-1.8753,-2.086,-2.1021,-2.1782,-2.3488,-2.3639,-2.3639,-2.3639,-2.3639,-2.3639,-2.3639,-2.3639,-2.3639,-2.3639,-2.3639,-2.3639,-2.3639,-2.3639,-2.3701,-2.3838,-2.4329,-2.4449,-2.4475,-2.4475,-2.582,-2.7924,-2.7617,-2.8739,-3.0794,-3.0794,-3.1713,-3.3193,-3.3539,-3.4599,-3.6035,-3.6405,-3.6581,-3.6581,-3.6953,-3.7109,-3.7109,-3.7129,-3.7191,-3.7336,-3.772,-3.7769,-3.7962,-3.837,-3.8555,-3.8555,-3.8574,-3.8574,-3.8574,-3.8574,-3.8574,-3.8574,-3.8574,-3.8574,-3.8574,-3.8574,-3.8574,-3.8574,-3.8574,-3.8574,-3.8574,-3.8574,-3.8574,-3.8574,-3.8574,-3.8846,-3.9674,-4.1184,-4.3266,-4.5186,-4.6665,-4.8534,-4.9238,-4.8786,-4.8134,-4.7782,-4.7782,-4.6803,-4.6301,-4.6301,-4.6301,-4.6301,-4.6301,-4.6301,-4.6301,-0.5959,-0.9266,-1.0348,-1.1348,-1.105,-1.0596,-1.1581,-1.1869,-1.2024,-1.1869,-1.2024,-1.2166,-1.2177,-1.1914,-1.2215,-1.3858,-1.4305,-1.4919,-1.656,-1.7082,-1.7824,-1.9485,-1.9702,-2.0549,-2.2395,-2.2559,-2.2709,-2.301,-2.301,-2.301,-2.301,-2.301,-2.301,-2.301,-2.301,-2.301,-2.301,-2.301,-2.301,-2.301,-2.3311,-2.3557,-2.3735,-2.3873,-2.3985,-2.4301,-2.4301,-2.6333,-2.9834,-2.8114,-2.9576,-3.2845,-3.2845,-3.3029,-3.3366,-3.4967,-3.5821,-3.6016,-3.6035,-3.6035,-3.6055,-3.6191,-3.6191,-3.621,-3.6601,-3.6739,-3.6897,-3.7291,-3.7422,-3.7429,-3.7962,-3.7982,-3.8166,-3.8555,-3.8574,-3.8574,-3.8574,-3.8574,-3.8574,-3.8574,-3.8574,-3.8574,-3.8574,-3.8574,-3.8574,-3.8574,-3.8574,-3.8574,-3.8574,-3.8574,-3.8574,-3.8574,-3.9962,-4.1063,-4.1326,-4.4482,-4.6532,-4.6798,-4.8164,-4.8837,-4.8761,-4.7782,-4.723,-4.723,-4.6627,-4.6301,-4.6301,-4.6301,-4.6301,-4.6301,-4.6301,-4.6301,-0.7558,-0.9807,-0.9947,-1.0692,-1.098,-1.1155,-1.1375,-1.1646,-1.1839,-1.1734,-1.1769,-1.1777,-1.1963,-1.177,-1.2215,-1.4153,-1.5283,-1.6658,-1.8501,-1.9793,-2.071,-2.162,-2.1632,-2.1932,-2.2859,-2.2859,-2.2859,-2.2859,-2.2859,-2.2859,-2.2859,-2.2859,-2.2859,-2.2859,-2.2859,-2.2859,-2.2859,-2.2859,-2.2859,-2.2859,-2.301,-2.316,-2.3324,-2.3324,-2.361,-2.3998,-2.4011,-2.6157,-2.9655,-2.9109,-3.1094,-3.4425,-3.4755,-3.4774,-3.4929,-3.5665,-3.6016,-3.6016,-3.6016,-3.6016,-3.6016,-3.6016,-3.6016,-3.6035,-3.621,-3.6366,-3.6386,-3.6777,-3.6937,-3.7129,-3.7507,-3.7488,-3.7613,-3.7797,-3.8001,-3.8185,-3.8185,-3.8389,-3.8574,-3.8574,-3.8574,-3.8574,-3.8574,-3.8574,-3.8574,-3.8574,-3.8574,-3.8574,-3.8574,-3.8574,-3.8991,-3.9962,-4.0779,-4.215,-4.4208,-4.5838,-4.7101,-4.7905,-4.848,-4.8485,-4.7883,-4.738,-4.6979,-4.6677,-4.6426,-4.6301,-4.6301,-4.6301,-4.6301,-4.6301,-4.6301,-4.6301,-0.6806,-0.8592,-0.9323,-0.9822,-1.0364,-1.0803,-1.0925,-1.1269,-1.1396,-1.141,-1.1398,-1.1537,-1.2262,-1.2251,-1.2805,-1.461,-1.6448,-1.8446,-2.04,-2.1932,-2.2846,-2.2859,-2.2859,-2.2859,-2.2859,-2.2859,-2.2859,-2.2859,-2.2859,-2.2859,-2.2859,-2.2859,-2.2859,-2.2859,-2.2859,-2.2859,-2.2859,-2.2859,-2.2859,-2.2859,-2.2859,-2.2859,-2.2859,-2.2859,-2.316,-2.3543,-2.3638,-2.5838,-2.9281,-2.9576,-3.1953,-3.5471,-3.5685,-3.586,-3.6016,-3.6016,-3.6016,-3.6016,-3.6016,-3.6016,-3.6016,-3.6016,-3.6016,-3.6016,-3.6016,-3.6016,-3.6035,-3.6405,-3.6561,-3.6581,-3.7109,-3.7151,-3.7163,-3.7325,-3.7546,-3.7845,-3.8069,-3.837,-3.8574,-3.8574,-3.8574,-3.8574,-3.8574,-3.8574,-3.8574,-3.8574,-3.8574,-3.8574,-3.8574,-3.8991,-3.9818,-4.1205,-4.2064,-4.3618,-4.6343,-4.6885,-4.7475,-4.856,-4.8435,-4.7983,-4.7179,-4.7004,-4.6728,-4.6326,-4.6301,-4.6301,-4.6301,-4.6301,-4.6301,-4.6301,-4.6301,-4.6301,-0.3565,-0.5485,-0.7707,-0.8696,-0.9368,-0.9797,-1.0195,-1.0585,-1.0877,-1.0939,-1.1199,-1.1873,-1.3403,-1.3686,-1.4305,-1.6127,-1.7949,-1.9804,-2.1932,-2.2395,-2.2545,-2.2859,-2.2859,-2.2859,-2.2859,-2.2859,-2.2859,-2.2859,-2.2859,-2.2859,-2.2859,-2.2859,-2.2859,-2.2859,-2.2859,-2.2859,-2.2859,-2.2859,-2.2859,-2.2859,-2.2859,-2.2859,-2.2859,-2.2859,-2.2859,-2.301,-2.3228,-2.5628,-2.9133,-2.9189,-3.165,-3.5471,-3.5471,-3.5665,-3.6016,-3.6016,-3.6016,-3.6016,-3.6016,-3.6016,-3.6016,-3.6016,-3.6016,-3.6016,-3.6016,-3.6016,-3.6016,-3.6035,-3.6035,-3.6191,-3.6581,-3.6796,-3.6876,-3.7248,-3.7268,-3.753,-3.8406,-3.8574,-3.8574,-3.8574,-3.8574,-3.8574,-3.8574,-3.8574,-3.8574,-3.8574,-3.8574,-3.8574,-3.8574,-4.0105,-4.1184,-4.1326,-4.394,-4.5846,-4.5978,-4.7096,-4.7858,-4.7958,-4.7481,-4.7205,-4.7129,-4.6627,-4.6351,-4.6301,-4.6301,-4.6301,-4.6301,-4.6301,-4.6301,-4.6301,-4.6301,-4.6301,-0.4895,-0.623,-0.7521,-0.8052,-0.8676,-0.9279,-0.9665,-1.0841,-1.1954,-1.2234,-1.3203,-1.4316,-1.5016,-1.4414,-1.4792,-1.7784,-1.8827,-1.9838,-2.1881,-2.2083,-2.2232,-2.2245,-2.2382,-2.2382,-2.2382,-2.2382,-2.2382,-2.2382,-2.2382,-2.2382,-2.2382,-2.2382,-2.2382,-2.2382,-2.2382,-2.2395,-2.2545,-2.2545,-2.2696,-2.2859,-2.2859,-2.2859,-2.2859,-2.2859,-2.2859,-2.2859,-2.301,-2.4436,-2.6876,-2.8415,-3.0483,-3.2935,-3.4355,-3.5277,-3.5646,-3.5646,-3.5821,-3.6016,-3.6016,-3.6016,-3.6016,-3.6016,-3.6016,-3.6016,-3.6016,-3.6016,-3.6016,-3.6016,-3.6016,-3.6035,-3.621,-3.621,-3.6386,-3.6777,-3.6933,-3.7092,-3.757,-3.7975,-3.8185,-3.8555,-3.8574,-3.8574,-3.8574,-3.8574,-3.8398,-3.7832,-3.8223,-3.8793,-3.9473,-4.0568,-4.215,-4.4619,-4.5552,-4.6477,-4.7691,-4.7832,-4.7757,-4.7431,-4.723,-4.6979,-4.6627,-4.6426,-4.6301,-4.6301,-4.6301,-4.6301,-4.6301,-4.6301,-4.6301,-4.6301,-4.6301,-4.6301,-0.5532,-0.6382,-0.6935,-0.7415,-0.7886,-0.8464,-0.9138,-1.0754,-1.2258,-1.28,-1.4327,-1.5753,-1.6467,-1.5904,-1.6203,-1.8625,-1.941,-2.0258,-2.1683,-2.1921,-2.1965,-2.1978,-2.1978,-2.1978,-2.1978,-2.1978,-2.1978,-2.1978,-2.1978,0.0,-2.1978,-2.1978,-2.1978,-2.1978,-2.1978,-2.2111,-2.2271,-2.2211,-2.2395,-2.2559,-2.2696,-2.2709,-2.2709,-2.2859,-2.2859,-2.2859,-2.2859,-2.3941,-2.5633,-2.7702,-2.9696,-3.1556,-3.3669,-3.4793,-3.5215,-3.5298,-3.551,-3.584,-3.6016,-3.6016,-3.6016,-3.6016,-3.6016,-3.6016,-3.6016,-3.6016,-3.6016,-3.6016,-3.6016,-3.6016,-3.6016,-3.6016,-3.6035,-3.6386,-3.6405,-3.6581,-3.6953,-3.7543,-3.7982,-3.835,-3.8555,-3.8574,-3.8574,-3.8574,-3.8379,-3.7812,-3.8759,-3.9739,-4.0389,-4.1913,-4.3847,-4.6295,-4.6487,-4.6895,-4.8084,-4.7707,-4.723,-4.6878,-4.6853,-4.6702,-4.6326,-4.6301,-4.6301,-4.6301,-4.6301,-4.6301,-4.6301,-4.6301,-4.6301,-4.6301,-4.6301,-4.6301,0.0,0.0,0.0,-0.6676,-0.6964,-0.7489,-0.8828,-1.0301,-1.1591,-1.2355,-1.4135,-1.6055,-1.7863,-1.8415,-1.8566,-1.8566,-1.9966,-2.1249,-2.1543,-2.1543,-2.1683,-2.1963,-2.1977,-2.1977,-2.1977,-2.1977,-2.1977,-2.1977,-2.1977,-2.1977,-2.1977,-2.1977,-2.1977,-2.1977,-2.1977,-2.1977,-2.1977,-2.1938,-2.203,-2.203,-2.2193,-2.2369,-2.2395,-2.2709,-2.2859,-2.2859,-2.301,-2.3955,-2.5692,-2.7473,-2.9509,-3.1589,-3.3418,-3.4286,-3.4672,-3.5159,-3.5433,-3.5471,-3.584,-3.6016,-3.6016,-3.6016,-3.6016,-3.6016,-3.6016,-3.6016,-3.6016,-3.6016,-3.6016,-3.6016,-3.6016,-3.6016,-3.6016,-3.6016,-3.6016,-3.6191,-3.6581,-3.7324,-3.7904,-3.7904,-3.8312,-3.8574,-3.8555,-3.8555,-3.8574,-3.8535,-4.0044,-4.1121,-4.1263,-4.4007,-4.5883,-4.6037,-4.6707,-4.7129,-4.7129,-4.6627,-4.6301,-4.6301,-4.6301,-4.6301,-4.6301,-4.6301,-4.6301,-4.6301,-4.6301,-4.6301,-4.6301,-4.6301,-4.6301,-4.6301,-4.6301,-4.6301,-0.4956,0.0,0.0,0.0,0.0,0.0,-0.7403,-0.9067,-1.0996,-1.3221,-1.4959,-1.6891,-1.9261,-1.9688,-1.9688,-1.9688,-2.0537,-2.1109,-2.1249,-2.1249,-2.1249,-2.1389,-2.1389,-2.1389,-2.1389,-2.1389,-2.1389,0.0,-2.1389,-2.1389,-2.1389,-2.1389,-2.1389,-2.1389,-2.1389,-2.1529,-2.1683,-2.1727,-2.1746,-2.2032,-2.2046,-2.2044,-2.2082,-2.2395,-2.2545,-2.2559,-2.4106,-2.5056,-2.5692,-2.7473,-2.9342,-3.1117,-3.2922,-3.3915,-3.4326,-3.4468,-3.4922,-3.5471,-3.5491,-3.5821,-3.6016,-3.6016,-3.6016,-3.6016,-3.6016,-3.6016,-3.6016,-3.6016,-3.6016,-3.6016,-3.6016,-3.6016,-3.6016,-3.6016,-3.6016,-3.6035,-3.6191,-3.6602,-3.7114,-3.7451,-3.7754,-3.805,-3.8027,-3.832,-3.8359,-3.7734,-3.7786,-3.8938,-4.1459,-4.2316,-4.3846,-4.7002,-4.7159,-4.7129,-4.7129,-4.6627,-4.6301,-4.6301,-4.6301,-4.6301,-4.6301,-4.6301,-4.6301,-4.6301,-4.6301,-4.6301,-4.6301,-4.6301,-4.6301,-4.6301,-4.6301,-4.6301,-0.5193,-0.5411,-0.5815,-0.5965,0.0,0.0,-0.7785,-0.9469,-1.1444,-1.3945,-1.5922,-1.7596,-1.9165,-1.9562,-1.9698,-1.9968,-2.0374,-2.0561,-2.075,-2.069,-2.069,-2.069,-2.069,-2.069,-2.069,-2.0829,-2.0969,-2.0969,-2.1096,-2.1109,-2.1109,-2.1109,-2.1109,-2.1109,-2.1109,-2.1249,-2.1402,-2.1402,-2.1529,-2.1683,-2.1823,-2.1767,-2.1833,-2.2124,-2.2244,-2.2382,-2.4422,-2.5697,-2.6581,-2.8494,-2.9882,-3.0954,-3.2758,-3.3583,-3.3788,-3.408,-3.4418,-3.4887,-3.524,-3.5491,-3.5821,-3.6016,-3.6016,-3.6016,-3.6016,-3.6016,-3.6016,-3.6016,-3.6016,-3.6016,-3.6016,-3.6016,-3.6016,-3.6016,-3.6016,-3.6016,-3.6016,-3.621,-3.6561,-3.6953,-3.7391,-3.772,-3.7676,-3.7891,-3.7871,-3.7383,-3.7768,-3.9061,-4.1948,-4.2541,-4.3876,-4.7258,-4.7104,-4.6803,-4.6803,-4.6502,-4.6301,-4.6301,-4.6301,-4.6301,-4.6301,-4.6301,-4.6301,-4.6301,-4.6301,-4.6301,-4.6301,-4.6301,-4.6301,-4.6301,-4.6301,-4.6636,-0.5567,-0.5676,-0.5976,-0.6333,-0.6034,0.0,-0.8733,-1.0329,-1.1909,-1.4064,-1.6077,-1.7565,-1.8197,-1.8441,-1.8787,-1.93,-1.9537,-1.9733,-2.0198,-2.0203,-2.0203,-2.0203,-2.0203,-2.0203,-2.0203,-2.0493,-2.0684,-2.0663,-2.0829,-2.0969,-2.0969,-2.1096,-2.1109,-2.1109,-2.1109,-2.1109,-2.1109,-2.1109,-2.1109,-2.1109,-2.1402,-2.1543,-2.1543,-2.1823,-2.197,-2.2049,-2.4374,-2.6207,-2.7916,-3.014,-3.1099,-3.1262,-3.2758,-3.3418,-3.3437,-3.3915,-3.41,-3.4171,-3.5023,-3.5317,-3.5471,-3.584,-3.6016,-3.6016,-3.6016,-3.6016,-3.6016,-3.6016,-3.6016,-3.6016,-3.6016,-3.6016,-3.6016,-3.6016,-3.6016,-3.6016,-3.6016,-3.6016,-3.6191,-3.6561,-3.6933,-3.7251,-3.7183,-3.7202,-3.7266,-3.7266,-3.8779,-4.0451,-4.226,-4.3612,-4.5078,-4.6684,-4.6577,-4.6276,-4.6225,-4.6276,-4.6301,-4.6301,-4.6301,-4.6301,-4.6301,-4.6301,-4.6301,-4.6301,-4.6301,-4.6301,-4.6301,-4.6301,-4.6301,-4.6301,-4.6301,-4.7087,-0.6148,-0.627,-0.6304,-0.5996,-0.6209,0.0,-0.6292,-0.7565,-0.93,-1.1232,-1.2661,-1.4307,-1.6302,-1.6937,-1.7085,-1.6965,-1.7978,-1.905,-2.0074,-2.0233,-2.0233,-2.0233,-2.0233,-2.0233,-2.0233,-2.0246,-2.0361,-2.0333,-2.0397,-2.0397,-2.0397,-2.0676,-2.0816,-2.0816,-2.0969,-2.1109,-2.1109,-2.1109,-2.1109,-2.1109,-2.1122,-2.1249,-2.1249,-2.1543,-2.1665,-2.1883,-2.5304,-2.7128,-2.7933,-3.1117,-3.2593,-3.2922,-3.3272,-3.3418,-3.3418,-3.3437,-3.3769,-3.414,-3.431,-3.4844,-3.5471,-3.5491,-3.5685,-3.6016,-3.6016,-3.6016,-3.6016,-3.6016,-3.6016,-3.6016,-3.6016,-3.6016,-3.6016,-3.6016,-3.6016,-3.6016,-3.6016,-3.6016,-3.6035,-3.6191,-3.6561,-3.6816,-3.6858,-3.7075,-3.733,-3.733,-3.7881,-3.9213,-4.1681,-4.2427,-4.365,-4.5629,-4.61,-4.6125,-4.5673,-4.605,-4.6301,-4.6301,-4.6301,-4.6301,-4.6301,-4.6301,-4.6301,-4.6301,-4.6301,-4.6301,-4.6301,-4.6301,-4.6301,-4.6301,-4.6301,-4.7087,-0.6532,-0.6563,-0.6599,-0.6416,-0.6409,0.0,0.0,-0.8302,-0.9471,-1.211,-1.2747,-1.3412,-1.512,-1.5445,-1.5595,-1.5944,-1.6884,-1.781,-1.8643,-1.9229,-1.9502,-1.9502,-1.9502,-1.9502,-1.9502,-1.9761,-2.0019,-2.0187,-2.0241,-2.0241,-2.0241,-2.0375,-2.0494,-2.0384,-2.069,-2.0956,-2.0956,-2.0969,-2.1109,-2.1109,-2.1977,-2.1963,-2.1109,-2.2117,-2.2567,-2.2708,-2.566,-2.7402,-2.8603,-3.1596,-3.2922,-3.3107,-3.3272,-3.3418,-3.3418,-3.3418,-3.3583,-3.3769,-3.3954,-3.4359,-3.4712,-3.5027,-3.5316,-3.5665,-3.5665,-3.584,-3.6016,-3.6016,-3.6016,-3.6016,-3.6016,-3.6016,-3.6016,-3.6016,-3.6016,-3.6016,-3.6016,-3.6016,-3.6016,-3.6016,-3.621,-3.6386,-3.6386,-3.6465,-3.6642,-3.6642,-3.7514,-3.9023,-4.1203,-4.218,-4.3385,-4.5329,-4.5472,-4.5472,-4.5497,-4.5748,-4.6024,-4.6301,-4.6301,-4.6301,-4.6301,-4.6301,-4.6301,-4.6301,-4.6301,-4.6301,-4.6301,-4.6301,-4.6301,-4.6301,-4.6301,-4.7534,-0.7231,-0.7326,-0.7444,-0.7548,-0.7395,-0.7787,0.0,0.0,0.0,-1.3184,-1.3343,-1.3276,-1.4057,-1.3983,0.0,-1.5066,0.0,0.0,0.0,-1.7626,0.0,-1.8577,-1.863,-1.8709,-1.8687,-1.91,-1.9488,-1.9891,-1.9761,-1.9761,-1.9891,-2.0034,-2.0077,-2.0172,-2.0486,-2.0592,-2.0537,-2.0829,-2.0969,-2.1096,-2.2708,-2.2875,-2.1645,-2.3325,-2.4022,-2.4164,-2.6004,-2.7661,-2.9287,-3.1558,-3.2614,-3.2777,-3.3253,-3.3418,-3.3418,-3.3418,-3.3418,-3.3437,-3.3788,-3.3954,-3.4171,-3.4525,-3.5008,-3.5471,-3.5471,-3.5665,-3.6016,-3.6016,-3.6016,-3.6016,-3.6016,-3.6016,-3.6016,-3.6016,-3.6016,-3.6016,-3.6016,-3.6016,-3.6016,-3.6016,-3.6016,-3.6016,-3.6016,-3.6016,-3.6055,-3.6405,-3.7945,-3.9758,-4.142,-4.2738,-4.4062,-4.5329,-4.5187,-4.5087,-4.5296,-4.5522,-4.5799,-4.6125,-4.625,-4.6301,-4.6301,-4.6301,-4.6301,-4.6301,-4.6301,-4.6301,-4.6301,-4.6661,-4.6541,-4.6301,-4.6661,-4.8184,-0.889,-0.9447,-0.9837,-0.9839,-1.0399,-1.0529,-0.9238,0.0,-1.1016,-1.1021,0.0,-1.2527,-1.2922,0.0,0.0,0.0,0.0,0.0,-1.4861,-1.5556,-1.6508,-1.7292,-1.7543,-1.783,-1.8096,-1.7683,-1.7799,-1.8584,-1.8184,-1.8197,-1.8971,-1.9502,-1.9829,-1.9821,-2.0096,-2.0201,-2.0245,-2.0537,-2.069,-2.0816,-2.2694,-2.3454,-2.3386,-2.4983,-2.5676,-2.5771,-2.7073,-2.8183,-2.9212,-3.0605,-3.175,-3.2777,-3.3253,-3.3418,-3.3418,-3.3418,-3.3418,-3.3418,-3.3437,-3.3769,-3.414,-3.4171,-3.4766,-3.5471,-3.5471,-3.5665,-3.6016,-3.6016,-3.6016,-3.6016,-3.6016,-3.6016,-3.6016,-3.6016,-3.6016,-3.6016,-3.6016,-3.6016,-3.6016,-3.6016,-3.6016,-3.6016,-3.6016,-3.6016,-3.6561,-3.8051,-3.9825,-4.1527,-4.3216,-4.4887,-4.5855,-4.554,-4.5826,-4.5674,-4.4769,-4.5648,-4.6024,-4.5623,-4.605,-4.6301,-4.6301,-4.6301,-4.6301,-4.6301,-4.6301,-4.6301,-4.6301,-4.7652,-4.7534,-4.6301,-4.7652,-4.9194,-0.8255,-0.9206,-0.9952,-0.9575,-1.0241,-1.0907,-1.033,-1.0439,-1.0937,-1.1747,0.0,0.0,0.0,0.0,0.0,0.0,-1.3203,0.0,0.0,0.0,-1.4811,-1.6255,0.0,0.0,-1.6989,-1.6967,-1.7239,-1.7887,-1.7633,-1.7751,-1.8674,-1.91,-1.9359,-1.9502,-1.9877,-1.9992,-1.996,-2.0094,-2.0849,-2.2117,-2.3725,-2.4671,-2.5094,-2.6713,-2.7332,-2.7435,-2.7984,-2.8955,-3.0207,-3.0932,-3.1604,-3.207,-3.2739,-3.3233,-3.3418,-3.3418,-3.3418,-3.3418,-3.3418,-3.3583,-3.3769,-3.3954,-3.428,-3.4726,-3.5201,-3.5491,-3.5665,-3.586,-3.6016,-3.6016,-3.6016,-3.6016,-3.6016,-3.6016,-3.6016,-3.6016,-3.6016,-3.6016,-3.6016,-3.6016,-3.6016,-3.6016,-3.6016,-3.6016,-3.621,-3.6953,-3.9387,-4.1456,-4.2226,-4.4378,-4.5785,-4.551,-4.5439,-4.5178,-4.4644,-4.5304,-4.5531,-4.496,-4.5479,-4.5824,-4.5824,-4.6125,-4.6301,-4.6301,-4.6301,-4.6301,-4.6301,-4.7743,-4.821,-4.7652,-4.908,-5.0602,-0.9482,-1.0458,-1.1258,-1.0439,-1.098,-1.1636,-1.1464,-1.1304,-1.1476,-1.264,-1.2553,0.0,0.0,0.0,-1.2087,-1.2387,0.0,-1.2708,0.0,-1.2674,-1.3277,0.0,0.0,0.0,0.0,-1.6061,-1.6305,-1.7186,-1.6854,-1.7028,-1.8181,-1.8544,-1.8971,-1.9229,-1.9502,-1.9631,-1.9631,-1.9631,-2.069,-2.2645,-2.4332,-2.5505,-2.6382,-2.829,-2.9058,-2.9058,-2.8904,-2.9698,-3.0901,-3.1122,-3.1347,-3.1622,-3.2387,-3.2863,-3.3253,-3.3418,-3.3418,-3.3418,-3.3418,-3.3418,-3.3437,-3.3769,-3.3954,-3.4191,-3.4902,-3.5278,-3.5471,-3.5685,-3.586,-3.6016,-3.6016,-3.6016,-3.6016,-3.6016,-3.6016,-3.6016,-3.6016,-3.6016,-3.6016,-3.6016,-3.6016,-3.6016,-3.6016,-3.6016,-3.6366,-3.7305,-3.9498,-4.1383,-4.2471,-4.4134,-4.53,-4.5494,-4.4967,-4.4519,-4.4351,-4.4951,-4.5067,-4.4636,-4.5171,-4.554,-4.5504,-4.6075,-4.6301,-4.6301,-4.6301,-4.6301,-4.6301,-4.8184,-4.908,-4.9194,-5.0602,-5.1943,0.0,0.0,0.0,-1.3717,0.0,-1.3653,-1.2218,-1.2553,-1.3138,-1.3153,-1.383,-1.4347,-1.4081,-1.3741,-1.3401,-1.2835,-1.2806,0.0,0.0,-1.1696,-1.1798,-1.2774,0.0,0.0,0.0,-1.4709,-1.4794,0.0,-1.5531,-1.5849,-1.7569,-1.8216,-1.8584,-1.8958,-1.9229,-1.9372,-1.9372,-1.9372,-2.009,-2.1518,-2.3975,-2.5846,-2.7123,-2.9657,-3.0879,-3.0743,-3.0296,-3.0412,-3.082,-3.0412,-3.0743,-3.1523,-3.2033,-3.2473,-3.2903,-3.3253,-3.3418,-3.3418,-3.3418,-3.3418,-3.3418,-3.3418,-3.3749,-3.412,-3.416,-3.4707,-3.5471,-3.5471,-3.5665,-3.6016,-3.6016,-3.6016,-3.6016,-3.6016,-3.6016,-3.6016,-3.6016,-3.6016,-3.6016,-3.6016,-3.6016,-3.6016,-3.6016,-3.6016,-3.7129,-4.0529,-4.0622,-4.1749,-4.5599,-4.5275,-4.4886,-4.547,-4.491,-4.4424,-4.3868,-4.4284,-4.4618,-4.4644,-4.5219,-4.5531,-4.547,-4.608,-4.6301,-4.6301,-4.6301,-4.6301,-4.6301,-4.9167,-5.0602,-5.0713,-5.2187,-5.2963,0.0,0.0,-1.5493,-1.4386,0.0,0.0,0.0,0.0,-1.3416,-1.3262,-1.3853,-1.4441,-1.4138,-1.3849,-1.3436,-1.288,-1.258,-1.216,0.0,-1.0635,0.0,-1.1242,-1.2515,-1.336,0.0,0.0,0.0,-1.5024,-1.5085,-1.5582,-1.6966,-1.7423,-1.7922,-1.8558,-1.9631,-2.002,-1.9372,-2.0829,-2.2015,-2.3022,-2.4909,-2.6844,-2.875,-3.0257,-3.0898,-3.0898,-3.0723,-3.0743,-3.0898,-3.0723,-3.0879,-3.1191,-3.1523,-3.2074,-3.2447,-3.3107,-3.3418,-3.3418,-3.3418,-3.3418,-3.3418,-3.3418,-3.3457,-3.3603,-3.3603,-3.4201,-3.491,-3.497,-3.5471,-3.6016,-3.6016,-3.6016,-3.6016,-3.6016,-3.6016,-3.6016,-3.6016,-3.6016,-3.6016,-3.6016,-3.6016,-3.586,-3.5665,-3.6561,-3.7678,-3.9197,-3.991,-4.1176,-4.3705,-4.4383,-4.473,-4.4864,-4.4687,-4.4332,-4.3876,-4.3601,-4.3676,-4.402,-4.4561,-4.4852,-4.4928,-4.5754,-4.6301,-4.6301,-4.6301,-4.6301,-4.6301,-4.9281,-5.0656,-5.0734,-5.3319,-5.4406,-1.5713,-1.6438,0.0,-1.5688,-1.5655,0.0,-1.4155,0.0,-1.4496,-1.4162,-1.4648,-1.5184,-1.5197,-1.4564,-1.3921,-1.3305,-1.2685,-1.1848,0.0,-1.005,-1.003,-1.0529,-1.1626,-1.2425,-1.2626,-1.3054,-1.3656,-1.4447,-1.433,-1.4874,0.0,-1.6666,-1.7315,-1.832,-1.9835,-2.05,-2.0231,-2.184,-2.3166,-2.4181,-2.5286,-2.7006,-2.9194,-3.0102,-3.0587,-3.0898,-3.0898,-3.0898,-3.0898,-3.0898,-3.0898,-3.0898,-3.1347,-3.174,-3.2273,-3.2894,-3.3272,-3.3418,-3.3418,-3.3418,-3.3418,-3.3418,-3.3272,-3.3233,-3.3233,-3.3519,-3.4033,-3.4471,-3.4948,-3.5646,-3.586,-3.6016,-3.6016,-3.6016,-3.586,-3.584,-3.584,-3.5665,-3.5646,-3.5685,-3.5665,-3.5665,-3.6191,-3.6958,-3.7863,-3.8874,-3.9897,-4.1259,-4.3263,-4.3836,-4.4136,-4.4291,-4.4138,-4.3899,-4.3548,-4.3174,-4.31,-4.3447,-4.4167,-4.4611,-4.4593,-4.5704,-4.6301,-4.6301,-4.6301,-4.6547,-4.711,-4.9488,-5.0976,-5.1569,-5.4019,-5.5179]},{"header":{"parameterUnit":"m.s-1","parameterCategory":1,"la1":30.6,"la2":29.2853,"lo1":-89.7004,"lo2":-87.6739,"dy":0.0162,"dx":0.0183,"nx":112,"ny":82,"refTime":"2026-03-10T12:00:00:Z","depth":0,"parameterNumber":3,"parameterNumberName":"V-component_of_WINDS"},"data":[0.0,0.0,0.0,0.0,0.0,0.0,0.0,0.0,0.0,0.0,0.0,0.0,0.0,0.0,0.0,0.0,0.0,0.0,0.0,0.0,0.0,0.0,0.0,0.0,0.0,0.0,0.0,0.0,0.0,0.0,0.0,0.0,0.0,0.0,0.0,0.0,0.0,0.0,0.0,0.0,0.0,0.0,0.0,0.0,0.0,0.0,0.0,0.0,0.0,0.0,0.0,0.0,0.0,0.0,0.0,0.0,0.0,0.0,0.0,0.0,0.0,0.0,0.0,0.0,0.0,0.0,0.0,0.0,0.0,0.0,0.0,0.0,0.0,0.0,0.0,0.0,0.0,0.0,0.0,0.0,0.0,0.0,0.0,0.0,0.0,0.0,0.0,0.0,0.0,0.0,-4.6932,-5.1395,-5.7242,-6.0781,-6.0781,-5.9742,-5.6395,-5.001,0.0,0.0,0.0,0.0,0.0,0.0,0.0,0.0,0.0,0.0,0.0,0.0,0.0,0.0,0.0,0.0,0.0,0.0,0.0,0.0,0.0,0.0,0.0,0.0,0.0,0.0,0.0,0.0,0.0,0.0,0.0,0.0,0.0,0.0,0.0,0.0,0.0,0.0,0.0,0.0,0.0,0.0,0.0,0.0,0.0,0.0,0.0,0.0,0.0,0.0,0.0,0.0,0.0,0.0,0.0,0.0,0.0,0.0,0.0,0.0,0.0,0.0,0.0,0.0,0.0,0.0,0.0,0.0,0.0,0.0,0.0,0.0,0.0,0.0,0.0,0.0,0.0,0.0,0.0,0.0,0.0,0.0,0.0,0.0,0.0,0.0,0.0,0.0,0.0,0.0,0.0,0.0,0.0,0.0,0.0,0.0,0.0,0.0,0.0,0.0,0.0,0.0,0.0,0.0,-4.6971,-5.6165,-5.9319,-6.0781,-6.0781,-5.8704,-5.5395,-5.0779,0.0,0.0,0.0,0.0,0.0,0.0,0.0,0.0,0.0,0.0,0.0,0.0,0.0,0.0,0.0,0.0,0.0,0.0,0.0,0.0,0.0,0.0,0.0,0.0,0.0,0.0,0.0,0.0,0.0,0.0,0.0,0.0,0.0,0.0,0.0,0.0,0.0,0.0,0.0,0.0,0.0,0.0,0.0,0.0,0.0,0.0,0.0,0.0,0.0,0.0,0.0,0.0,0.0,0.0,0.0,0.0,0.0,0.0,0.0,0.0,0.0,0.0,0.0,0.0,0.0,0.0,0.0,0.0,0.0,0.0,0.0,0.0,0.0,0.0,0.0,0.0,0.0,0.0,0.0,0.0,0.0,0.0,0.0,0.0,0.0,0.0,0.0,0.0,0.0,0.0,0.0,0.0,0.0,0.0,0.0,0.0,0.0,0.0,0.0,0.0,0.0,0.0,0.0,-4.624,-5.024,-5.8127,-6.005,-6.0781,-6.0781,-5.9319,-5.6165,-5.101,-4.7048,0.0,0.0,0.0,0.0,0.0,0.0,0.0,0.0,0.0,0.0,0.0,0.0,0.0,0.0,0.0,0.0,0.0,0.0,0.0,0.0,0.0,0.0,0.0,0.0,0.0,0.0,0.0,0.0,0.0,0.0,0.0,0.0,0.0,0.0,0.0,0.0,0.0,0.0,0.0,0.0,0.0,0.0,0.0,0.0,0.0,0.0,0.0,0.0,0.0,0.0,0.0,0.0,0.0,0.0,0.0,0.0,0.0,0.0,0.0,0.0,0.0,0.0,0.0,0.0,0.0,0.0,0.0,0.0,0.0,0.0,0.0,0.0,0.0,0.0,0.0,0.0,0.0,0.0,0.0,0.0,0.0,0.0,0.0,0.0,0.0,0.0,0.0,0.0,0.0,0.0,0.0,0.0,0.0,0.0,0.0,0.0,0.0,0.0,0.0,0.0,0.0,0.0,-5.1202,-5.4126,-5.9242,-6.0396,-6.0781,-6.0781,-5.9281,-5.6126,-5.101,-4.5932,0.0,0.0,0.0,0.0,0.0,0.0,0.0,0.0,0.0,0.0,0.0,0.0,0.0,0.0,0.0,0.0,0.0,0.0,0.0,0.0,0.0,0.0,0.0,0.0,0.0,0.0,0.0,0.0,0.0,0.0,0.0,0.0,0.0,0.0,0.0,0.0,0.0,0.0,0.0,0.0,0.0,0.0,0.0,0.0,0.0,0.0,0.0,0.0,0.0,0.0,0.0,0.0,0.0,0.0,0.0,0.0,0.0,0.0,0.0,0.0,0.0,0.0,0.0,0.0,0.0,0.0,0.0,0.0,0.0,0.0,0.0,0.0,0.0,0.0,0.0,0.0,0.0,0.0,0.0,0.0,0.0,0.0,0.0,0.0,0.0,0.0,0.0,0.0,0.0,0.0,0.0,0.0,0.0,0.0,0.0,0.0,0.0,0.0,0.0,0.0,0.0,0.0,-5.2664,-5.7627,-6.0396,-6.0742,-6.0781,-6.0781,-5.7126,-5.3664,-5.0856,-4.3739,0.0,0.0,0.0,0.0,0.0,0.0,0.0,0.0,0.0,0.0,0.0,0.0,0.0,0.0,0.0,0.0,0.0,0.0,0.0,0.0,0.0,0.0,0.0,0.0,0.0,0.0,0.0,0.0,0.0,0.0,0.0,0.0,0.0,0.0,0.0,0.0,0.0,0.0,0.0,0.0,0.0,0.0,0.0,0.0,0.0,0.0,0.0,0.0,0.0,0.0,0.0,0.0,0.0,0.0,0.0,0.0,0.0,0.0,0.0,0.0,0.0,0.0,0.0,0.0,0.0,0.0,0.0,0.0,0.0,0.0,0.0,0.0,0.0,0.0,0.0,0.0,0.0,0.0,0.0,0.0,0.0,0.0,0.0,0.0,0.0,0.0,0.0,0.0,0.0,0.0,0.0,0.0,0.0,0.0,0.0,0.0,0.0,0.0,0.0,0.0,0.0,0.0,-5.1741,-5.6203,-6.0358,-6.0781,-6.0671,-6.0365,-5.8451,-5.502,-4.9771,0.0,0.0,0.0,0.0,0.0,0.0,0.0,0.0,0.0,0.0,0.0,0.0,0.0,0.0,0.0,0.0,0.0,0.0,0.0,0.0,0.0,0.0,0.0,0.0,0.0,0.0,0.0,0.0,0.0,0.0,0.0,0.0,0.0,0.0,0.0,0.0,0.0,0.0,0.0,0.0,0.0,0.0,0.0,0.0,0.0,0.0,0.0,0.0,0.0,0.0,0.0,0.0,0.0,0.0,0.0,0.0,0.0,0.0,0.0,0.0,0.0,0.0,0.0,0.0,0.0,0.0,0.0,0.0,0.0,0.0,0.0,0.0,0.0,0.0,0.0,0.0,0.0,0.0,0.0,0.0,0.0,0.0,0.0,0.0,0.0,0.0,0.0,0.0,0.0,0.0,0.0,0.0,0.0,0.0,0.0,0.0,0.0,0.0,0.0,0.0,0.0,0.0,-4.7317,-5.2049,-5.6582,-6.1224,-6.1697,-6.1753,-6.1755,-5.9627,-5.5683,-4.9705,0.0,0.0,0.0,0.0,0.0,0.0,0.0,0.0,0.0,0.0,0.0,0.0,0.0,0.0,0.0,0.0,0.0,0.0,0.0,0.0,0.0,0.0,0.0,0.0,0.0,0.0,0.0,0.0,0.0,0.0,0.0,0.0,0.0,0.0,0.0,0.0,0.0,0.0,0.0,0.0,0.0,0.0,0.0,0.0,0.0,0.0,0.0,0.0,0.0,0.0,0.0,0.0,0.0,0.0,0.0,0.0,0.0,0.0,0.0,0.0,0.0,0.0,0.0,0.0,0.0,0.0,0.0,0.0,0.0,0.0,0.0,0.0,0.0,0.0,0.0,0.0,0.0,0.0,0.0,0.0,0.0,0.0,0.0,0.0,0.0,0.0,0.0,0.0,0.0,0.0,0.0,0.0,0.0,0.0,0.0,0.0,0.0,0.0,0.0,0.0,0.0,0.0,-4.7586,-5.4105,-5.9728,-6.3321,-6.3746,-6.4196,-6.5272,-6.0115,-5.507,0.0,0.0,0.0,0.0,0.0,0.0,0.0,0.0,0.0,0.0,0.0,0.0,0.0,0.0,0.0,0.0,0.0,0.0,0.0,0.0,0.0,0.0,0.0,0.0,0.0,0.0,0.0,0.0,0.0,0.0,0.0,0.0,0.0,0.0,0.0,0.0,0.0,0.0,0.0,0.0,0.0,0.0,0.0,0.0,0.0,0.0,0.0,0.0,0.0,0.0,0.0,0.0,0.0,0.0,0.0,0.0,0.0,0.0,0.0,0.0,0.0,0.0,0.0,0.0,0.0,0.0,0.0,0.0,0.0,0.0,0.0,0.0,0.0,0.0,0.0,0.0,0.0,0.0,0.0,0.0,0.0,0.0,0.0,0.0,0.0,0.0,0.0,0.0,0.0,0.0,0.0,0.0,0.0,0.0,0.0,0.0,0.0,0.0,0.0,0.0,0.0,0.0,0.0,-4.851,-5.6376,-6.2378,-6.44,-6.5308,-6.5348,-6.4182,-6.0964,-5.5959,-4.887,0.0,0.0,0.0,0.0,0.0,0.0,0.0,0.0,0.0,0.0,0.0,0.0,0.0,0.0,0.0,0.0,0.0,0.0,0.0,0.0,0.0,0.0,0.0,0.0,0.0,0.0,0.0,0.0,0.0,0.0,0.0,0.0,0.0,0.0,0.0,0.0,0.0,0.0,0.0,0.0,0.0,0.0,0.0,0.0,0.0,0.0,0.0,0.0,0.0,0.0,0.0,0.0,0.0,0.0,0.0,0.0,0.0,0.0,0.0,0.0,0.0,0.0,0.0,0.0,0.0,0.0,0.0,0.0,0.0,0.0,0.0,0.0,0.0,0.0,0.0,0.0,0.0,0.0,0.0,0.0,0.0,0.0,0.0,0.0,0.0,0.0,0.0,0.0,0.0,0.0,0.0,0.0,0.0,0.0,0.0,0.0,0.0,0.0,0.0,0.0,0.0,0.0,-4.8575,-5.7232,-6.3615,-6.52,-6.6579,-6.6747,-6.5308,-6.2632,-5.7555,-4.9344,0.0,0.0,0.0,0.0,0.0,0.0,0.0,0.0,0.0,0.0,0.0,0.0,0.0,0.0,0.0,0.0,0.0,0.0,0.0,0.0,0.0,0.0,0.0,0.0,0.0,0.0,0.0,0.0,0.0,0.0,0.0,0.0,0.0,0.0,0.0,0.0,0.0,0.0,0.0,0.0,0.0,0.0,0.0,0.0,0.0,0.0,0.0,0.0,0.0,0.0,0.0,0.0,0.0,0.0,0.0,0.0,0.0,0.0,0.0,0.0,0.0,0.0,0.0,0.0,0.0,0.0,0.0,0.0,0.0,0.0,0.0,0.0,0.0,0.0,0.0,0.0,0.0,0.0,0.0,0.0,0.0,0.0,0.0,0.0,0.0,0.0,0.0,0.0,0.0,0.0,0.0,0.0,0.0,0.0,0.0,0.0,0.0,0.0,0.0,0.0,0.0,0.0,-4.8302,-5.7314,-6.4009,-6.5932,-6.7503,-6.8185,-6.763,-6.4567,-5.9318,-5.1426,0.0,0.0,0.0,0.0,0.0,0.0,0.0,0.0,0.0,0.0,0.0,0.0,0.0,0.0,0.0,0.0,0.0,0.0,0.0,0.0,0.0,0.0,0.0,0.0,0.0,0.0,0.0,0.0,0.0,0.0,0.0,0.0,0.0,0.0,0.0,0.0,0.0,0.0,0.0,0.0,0.0,0.0,0.0,0.0,0.0,0.0,0.0,0.0,0.0,0.0,0.0,0.0,0.0,0.0,0.0,0.0,0.0,0.0,0.0,0.0,-5.0828,-4.7415,0.0,0.0,0.0,0.0,0.0,0.0,0.0,0.0,0.0,0.0,0.0,0.0,0.0,0.0,0.0,0.0,0.0,0.0,0.0,0.0,0.0,0.0,0.0,0.0,0.0,0.0,0.0,0.0,0.0,0.0,0.0,0.0,0.0,0.0,0.0,0.0,0.0,0.0,0.0,0.0,-5.0138,-5.9468,-6.6063,-6.6891,-6.8047,-6.8252,-6.6843,-6.3723,-5.8951,-5.216,-4.6397,0.0,0.0,0.0,0.0,0.0,0.0,0.0,0.0,0.0,0.0,0.0,0.0,0.0,0.0,0.0,0.0,0.0,0.0,0.0,0.0,0.0,0.0,0.0,0.0,0.0,0.0,0.0,0.0,0.0,0.0,0.0,0.0,0.0,0.0,0.0,0.0,0.0,0.0,0.0,0.0,0.0,0.0,0.0,0.0,0.0,0.0,0.0,0.0,0.0,0.0,0.0,0.0,0.0,0.0,0.0,0.0,0.0,0.0,0.0,-5.6865,-5.3069,0.0,0.0,0.0,0.0,0.0,0.0,0.0,0.0,0.0,0.0,0.0,0.0,0.0,0.0,0.0,0.0,0.0,0.0,0.0,0.0,0.0,0.0,0.0,0.0,0.0,0.0,0.0,0.0,0.0,0.0,0.0,0.0,0.0,0.0,0.0,0.0,0.0,0.0,0.0,0.0,-5.0115,-5.9566,-6.5992,-6.6273,-6.7531,-6.7687,-6.6072,-6.3613,-5.9758,-5.4069,-4.9114,0.0,0.0,0.0,0.0,0.0,0.0,0.0,0.0,0.0,0.0,0.0,0.0,0.0,0.0,0.0,0.0,0.0,0.0,0.0,0.0,0.0,0.0,0.0,0.0,0.0,0.0,0.0,0.0,0.0,0.0,0.0,0.0,0.0,0.0,0.0,0.0,0.0,0.0,0.0,0.0,0.0,0.0,0.0,0.0,0.0,0.0,0.0,0.0,0.0,0.0,0.0,0.0,0.0,-6.4489,-6.5789,-6.6814,-6.9113,-6.9706,-6.8629,-6.4257,-6.0992,-5.8543,-5.6335,0.0,0.0,0.0,0.0,0.0,0.0,0.0,0.0,0.0,0.0,0.0,0.0,0.0,0.0,0.0,0.0,0.0,0.0,0.0,0.0,0.0,0.0,0.0,0.0,-5.8088,-5.7181,-4.8202,0.0,0.0,0.0,0.0,0.0,0.0,0.0,0.0,0.0,0.0,0.0,-5.0118,-5.896,-6.4934,-6.5081,-6.6292,-6.6512,-6.5191,-6.3576,-6.0713,-5.6308,-5.2307,-4.7792,0.0,0.0,0.0,0.0,0.0,0.0,0.0,0.0,0.0,0.0,0.0,0.0,0.0,0.0,0.0,0.0,0.0,0.0,0.0,0.0,0.0,0.0,0.0,0.0,0.0,0.0,0.0,0.0,0.0,0.0,0.0,0.0,-4.4687,-4.3516,0.0,0.0,0.0,0.0,0.0,0.0,0.0,0.0,0.0,0.0,0.0,0.0,0.0,-6.0162,-6.2921,-6.7956,-7.0277,-6.9842,-7.5011,-7.6447,-7.4562,-7.6361,-7.6707,-7.6053,-7.7447,0.0,-6.4743,-6.4359,0.0,0.0,0.0,0.0,0.0,0.0,0.0,0.0,0.0,0.0,0.0,0.0,0.0,0.0,0.0,0.0,0.0,0.0,0.0,0.0,0.0,0.0,-6.4859,-6.4474,-6.4628,-6.3822,-5.9797,-5.2411,-4.5514,-4.1952,-3.9261,-3.6482,0.0,0.0,0.0,0.0,0.0,0.0,-5.2493,-5.896,-6.3429,-6.4163,-6.4457,-6.4494,-6.4273,-6.2732,-6.0603,-5.785,-5.4546,-5.1096,-4.7498,-4.2139,0.0,0.0,0.0,0.0,0.0,0.0,0.0,0.0,0.0,0.0,0.0,0.0,0.0,0.0,0.0,0.0,0.0,0.0,0.0,0.0,0.0,0.0,0.0,0.0,0.0,0.0,0.0,0.0,0.0,-4.4297,-4.8164,-4.5469,-4.7851,-4.7851,0.0,0.0,0.0,0.0,0.0,0.0,0.0,0.0,0.0,-6.5898,-6.5933,-6.7939,-7.2327,-7.4284,-7.631,-7.8339,-8.0254,-8.1508,-8.2109,-8.2547,-8.267,-8.2522,-8.3516,-8.1131,-7.6207,-7.1398,-6.5667,-5.9588,0.0,0.0,0.0,0.0,-5.5318,-5.6242,-6.0435,-6.1358,-6.0589,-6.0127,0.0,0.0,0.0,0.0,0.0,0.0,0.0,0.0,0.0,0.0,-6.6026,-6.8205,-6.909,-6.8597,-6.5505,-6.038,-5.4397,-4.7602,-4.5545,-4.3026,-3.7047,-3.6775,0.0,0.0,0.0,-4.9713,-5.3551,-5.9154,-6.3135,-6.4016,-6.409,-6.409,-6.409,-6.2989,-6.1447,-5.9465,-5.7189,-5.4436,-5.1206,-4.657,-4.2305,0.0,0.0,0.0,0.0,0.0,0.0,0.0,0.0,0.0,0.0,0.0,0.0,0.0,0.0,0.0,0.0,0.0,0.0,0.0,0.0,0.0,0.0,0.0,0.0,0.0,0.0,0.0,0.0,-4.7656,-5.1641,-4.7773,-5.1289,-5.1836,0.0,0.0,0.0,0.0,0.0,0.0,-6.2226,-6.3672,-6.707,-7.3008,-7.3228,-7.551,-8.0306,-7.999,-8.1431,-8.4612,-8.3606,-8.4301,-8.6454,-8.6285,-8.6223,-8.6247,-8.6401,-8.5901,-8.4439,-7.713,-7.0898,-6.5705,-6.2935,-6.0935,-5.9781,-6.1473,-6.1873,-6.2334,-6.7718,-6.9333,-6.8679,-6.6602,-6.5205,-6.3113,-5.6571,0.0,0.0,0.0,0.0,-5.0588,-5.8218,-6.3028,-6.6884,-7.0667,-7.2073,-7.1896,-6.9603,-6.7376,-6.3107,-5.3737,-5.1865,-4.9465,-4.2052,-4.1547,0.0,-3.9804,-4.5473,-5.1259,-5.484,-5.9538,-6.2842,-6.3686,-6.3759,-6.3759,-6.3759,-6.3172,-6.2108,-6.0493,-5.8919,-5.6776,-5.3953,-5.0064,-4.596,-4.1841,0.0,0.0,0.0,0.0,0.0,0.0,0.0,0.0,0.0,0.0,0.0,0.0,0.0,0.0,0.0,0.0,0.0,0.0,0.0,0.0,0.0,0.0,0.0,0.0,0.0,0.0,0.0,0.0,0.0,-5.0625,-5.6601,0.0,0.0,0.0,0.0,-5.7109,-5.9765,-6.4219,-7.0976,-7.1445,-7.4258,-8.0273,-8.125,-8.2541,-8.4286,-8.5824,-8.6621,-8.6639,-8.5751,-8.5413,-8.5593,-8.6223,-8.6159,-8.562,-8.6819,-8.6517,-8.4868,-8.1016,-7.8284,-7.6207,-7.2822,-7.0937,-7.0052,-6.9436,-6.8306,-6.7291,-6.874,-6.9921,-7.1025,-7.2496,-7.1822,-6.981,-6.6217,-5.7143,0.0,0.0,-5.2777,-5.8489,-6.2158,-6.6819,-7.1025,-7.2927,-7.3392,-7.3375,-7.323,-7.226,-6.901,-6.0957,-5.6886,-5.3272,-4.8593,0.0,-4.5178,-4.1528,-4.6106,-5.1907,-5.7107,-6.0052,-6.1961,-6.2805,-6.2879,-6.2879,-6.2879,-6.2842,-6.2108,-6.0493,-5.8951,-5.7325,-5.5663,-5.18,-4.8508,-4.6058,-4.0342,0.0,0.0,0.0,0.0,0.0,0.0,0.0,0.0,0.0,0.0,0.0,0.0,0.0,0.0,0.0,0.0,0.0,0.0,0.0,0.0,0.0,0.0,0.0,0.0,0.0,0.0,0.0,0.0,-5.5508,-6.1953,0.0,-5.8594,-5.9336,-6.1367,-6.4297,-6.7422,-7.1211,-7.5937,-7.7226,-7.9531,-8.3398,-8.3672,-8.4554,-8.6194,-8.6127,-8.6662,-8.7809,-8.626,-8.6232,-8.752,-8.695,-8.663,-8.6544,-8.6855,-8.6648,-8.5901,-8.4022,-8.1554,-7.8707,-7.6592,-7.4639,-7.314,-7.3601,-7.3418,-7.3159,-7.4687,-7.6178,-7.7207,-7.5601,-7.3206,-7.0695,-6.9463,-6.6167,-6.2323,-6.015,-5.817,-5.8386,-6.6178,-6.9536,-7.1074,-7.1678,-7.2698,-7.299,-7.1179,-7.0486,-6.9134,-6.5605,-6.0591,-5.5551,-5.1177,-5.1542,-5.0538,-4.5024,-4.8656,-5.3499,-5.747,-6.0543,-6.2475,-6.2768,-6.2805,-6.2805,-6.2805,-6.2328,-6.1372,-5.9786,-5.8239,-5.6433,-5.4349,-5.1966,-4.9447,-4.6618,-4.2634,-3.7911,0.0,0.0,0.0,0.0,0.0,0.0,0.0,0.0,0.0,0.0,0.0,0.0,0.0,0.0,0.0,0.0,0.0,0.0,0.0,0.0,0.0,0.0,0.0,0.0,0.0,-5.6445,-6.1953,-6.0273,-6.664,-6.9453,-6.5156,-6.6328,-6.8555,-7.1445,-7.3789,-7.6562,-8.0039,-8.0976,-8.25,-8.4844,-8.5351,-8.6094,-8.7226,-8.6808,-8.7245,-8.849,-8.6909,-8.6939,-8.8242,-8.7315,-8.7035,-8.7209,-8.6864,-8.6716,-8.6594,-8.5824,-8.4093,-8.1747,-8.0054,-7.8254,-7.6686,-7.7447,-7.7716,-7.7877,-7.8985,-8.0131,-8.0739,-7.8468,-7.6169,-7.413,-7.2976,-7.2619,-7.1926,-6.852,-6.4315,-6.2355,-6.9173,-7.0892,-7.0892,-7.0882,-7.1773,-7.2105,-7.023,-6.9251,-6.8539,-6.7856,-6.3356,-5.8688,-5.5862,-5.6832,-5.6575,-5.2243,-5.4355,-5.7182,-5.9322,-6.1471,-6.2805,-6.2805,-6.2805,-6.2668,-6.2266,-6.0843,-5.9532,-5.8556,-5.6331,-5.4367,-5.274,-5.0841,-4.8655,-4.6384,-4.2448,-3.8362,-3.4134,0.0,0.0,0.0,0.0,0.0,0.0,0.0,0.0,0.0,0.0,0.0,0.0,0.0,0.0,0.0,0.0,0.0,0.0,0.0,0.0,0.0,0.0,0.0,-5.3867,-6.1562,-6.6367,-6.4765,-7.0586,-7.375,-7.1211,-7.25,-7.4922,-7.832,-7.8594,-8.0039,-8.3437,-8.2812,-8.3125,-8.4883,-8.6562,-8.7461,-8.75,-8.8281,-8.8672,-8.8633,-8.7851,-8.75,-8.75,-8.7226,-8.7265,-8.7461,-8.6869,-8.6799,-8.6961,-8.6396,-8.6132,-8.5896,-8.367,-8.2099,-8.1106,-8.1215,-8.1177,-8.11,-8.1093,-8.1093,-8.1085,-8.1085,-8.1116,-8.0461,-7.7177,-7.6148,-7.5464,-7.2118,-7.1236,-7.1189,-7.1074,-7.1055,-7.1046,-7.092,-7.0896,-7.0866,-7.0828,-6.9144,-6.7704,-6.7684,-6.5154,-6.2925,-6.2792,-6.2781,-6.2818,-6.2778,-6.2719,0.0,-6.2793,-6.2794,-6.2805,-6.2805,-6.2805,-6.2354,-6.1315,-5.8447,-5.6707,-5.6702,-5.3357,-5.1292,-5.1234,-4.8411,-4.6481,-4.5703,-3.9884,-3.6468,-3.5656,0.0,0.0,0.0,0.0,0.0,0.0,0.0,0.0,0.0,0.0,0.0,0.0,0.0,0.0,0.0,0.0,0.0,0.0,0.0,0.0,0.0,-5.3594,-5.7851,-5.8555,-6.4453,-6.9258,-7.0664,-7.5234,-7.8008,-7.7305,-7.7656,-7.8594,-8.0195,-8.0312,-8.1289,-8.3476,-8.3359,-8.4023,-8.5781,-8.6328,-8.6875,-8.75,-8.7734,-8.7812,-8.7812,-8.7617,-8.75,-8.75,-8.7422,-8.7422,-8.75,-8.733,-8.7297,-8.7331,-8.7178,-8.6732,-8.6062,-8.539,-8.3484,-8.1375,-8.3856,-8.317,-8.1106,-8.11,-8.11,-8.1093,-8.1093,-8.1085,-8.0923,-7.9969,-7.9691,-7.949,-7.8566,-7.8296,-7.7718,-7.5236,-7.4605,-7.3997,-7.1483,-7.0876,-7.0475,-6.8908,-6.8129,-6.7704,-6.7736,-6.6969,-6.561,-6.3181,-6.2778,-6.2792,-6.2831,-6.0774,-6.0126,-6.2524,-6.2768,-6.2768,-6.2794,-6.2794,-6.2691,-6.2386,-5.8858,-5.5384,-5.2537,-5.1142,-5.0207,-4.9623,-4.8327,-4.7022,-4.5737,-4.1441,-3.8294,0.0,0.0,0.0,0.0,0.0,0.0,0.0,0.0,0.0,0.0,0.0,0.0,0.0,0.0,0.0,0.0,0.0,0.0,0.0,0.0,0.0,0.0,-5.9648,-6.4414,-6.6601,-6.9922,-7.2969,-7.5195,-7.8281,-8.039,-8.0742,-8.0781,-8.1015,-8.1523,-8.1875,-8.2539,-8.3554,-8.4297,-8.5156,-8.6172,-8.6562,-8.6992,-8.75,-8.75,-8.75,-8.75,-8.75,-8.75,-8.75,-8.75,-8.75,-8.75,-8.75,-8.75,-8.7498,-8.7506,-8.7165,0.0,0.0,0.0,0.0,0.0,-8.4856,-8.3208,-8.317,-8.2285,-8.11,-8.11,-8.1093,-8.1085,-8.1116,-8.0115,-7.896,-7.8989,-7.8951,-7.8498,-7.6517,-7.5982,-7.5241,-7.2282,-7.052,-6.9215,-6.7942,-6.7703,-6.7714,-6.772,-6.7704,0.0,-6.5191,-6.3694,-6.2815,-6.2818,-6.1176,-6.0688,-6.2548,-6.2768,-6.2778,-6.2808,-6.1594,-6.0793,-6.082,-5.8538,0.0,0.0,0.0,-4.7987,-4.7158,-4.6752,0.0,0.0,0.0,0.0,0.0,0.0,0.0,0.0,-3.6671,-3.5757,0.0,0.0,0.0,0.0,0.0,0.0,0.0,0.0,0.0,0.0,0.0,0.0,0.0,0.0,0.0,0.0,-6.5234,-7.0351,-7.5351,-7.6211,-7.6953,-7.8594,-8.0195,-8.1445,-8.2226,-8.2304,-8.2304,-8.2304,-8.3125,-8.3594,-8.3633,-8.5234,0.0,0.0,0.0,-8.75,-8.75,-8.75,-8.75,-8.75,-8.75,-8.75,-8.75,-8.75,-8.75,-8.75,-8.75,-8.75,-8.7499,-8.7476,-8.7487,-8.7405,-8.6472,-8.6094,-8.6094,-8.6126,-8.6088,-8.6082,-8.6082,0.0,0.0,-8.1215,-8.1093,-8.1008,-8.0623,-7.8408,-7.5994,-7.5994,-7.6002,-7.5986,-7.6,-7.5817,-7.5056,-7.301,-7.0313,-6.8111,-6.7777,-6.7672,-6.7687,-6.7687,-6.7687,-6.7704,-6.7684,-6.5007,-6.2815,-6.2831,-6.2818,-6.2768,-6.2794,-6.2805,-6.2793,-6.2821,0.0,0.0,-5.7973,-5.7939,-5.6634,-5.3653,-4.8976,-4.5924,-4.5162,-4.5162,-4.4823,-4.4079,-4.4045,-4.4621,-4.5838,-4.5331,-4.5771,-4.6887,-3.9952,-3.8599,0.0,0.0,0.0,0.0,0.0,0.0,0.0,0.0,0.0,0.0,0.0,0.0,0.0,0.0,0.0,-6.2773,-6.789,-7.2617,-7.6406,-7.8125,-7.9336,-8.039,-8.1406,-8.2109,-8.2265,-8.2304,-8.2304,-8.2304,-8.3125,-8.3672,-8.3906,-8.5117,-8.625,-8.7226,-8.7422,-8.75,-8.75,-8.75,-8.75,-8.75,0.0,0.0,-8.75,-8.75,-8.75,-8.75,-8.75,-8.75,-8.75,-8.7492,-8.7495,-8.7405,-8.6472,-8.6094,-8.6094,-8.6094,-8.6094,-8.6094,-8.6088,-8.5697,-8.4696,-8.1977,-8.1085,-8.0577,-7.7823,-7.6524,0.0,-7.5985,-7.5999,-7.5997,-7.6002,-7.4577,-7.3062,-7.263,-7.2006,-7.0845,-6.8255,-6.767,-6.7689,-6.7687,-6.7687,-6.7704,-6.7684,-6.4977,-6.2771,-6.2815,-6.2792,-6.2805,-6.2768,-6.2798,-6.2803,-6.2785,-5.9831,-5.7921,-5.7901,-5.7915,-5.6651,-5.3686,-5.0315,-4.8303,-4.8192,-4.872,-4.868,-4.7936,-4.7936,-4.7496,-4.6583,-4.7631,-4.8308,-4.8511,-4.5263,-4.4451,0.0,0.0,0.0,0.0,0.0,0.0,0.0,0.0,0.0,0.0,0.0,-5.0836,-5.3904,0.0,-6.3672,-6.7539,-7.1289,-7.4765,-7.7656,-7.8984,-8.0039,-8.0898,-8.1758,-8.2304,-8.2304,-8.2304,-8.2304,-8.2304,-8.3242,-8.3984,-8.4414,-8.582,-8.6875,-8.7461,-8.75,-8.75,-8.75,-8.75,-8.75,-8.75,-8.75,-8.75,-8.75,-8.75,-8.75,-8.75,-8.75,-8.75,-8.7499,-8.7481,-8.7478,-8.7405,-8.6472,-8.6094,-8.6094,-8.6094,-8.6094,-8.6094,-8.6094,-8.6088,-8.5273,-8.0184,-7.8531,-7.8216,-7.6524,-7.5985,-7.5994,-7.5999,-7.5991,-7.5703,-7.454,-7.3391,-7.2495,-7.2532,-7.2503,-7.2059,-7.044,-6.888,-6.7726,-6.7707,-6.7724,-6.7687,-6.7667,-6.6366,-6.4684,-6.3042,-6.2786,-6.2808,-6.2765,-6.2785,-6.2134,-6.0544,-5.8878,-5.7894,-5.7878,-5.7912,-5.6677,-5.3687,-5.2806,-5.2058,-5.1251,-5.0845,-5.0473,-5.0135,-4.9729,-4.9357,-4.9018,-4.9763,-5.0304,-5.0642,-4.9526,-4.9018,0.0,0.0,0.0,0.0,0.0,0.0,0.0,-4.5334,-4.7527,-5.0106,-5.3398,-5.6952,-6.0789,-6.4818,-6.8672,-7.1914,-7.414,-7.6289,-7.8594,-7.9375,-8.0078,-8.1133,-8.1875,-8.2304,-8.2304,-8.2304,-8.2304,-8.2304,-8.3476,-8.4258,-8.4375,-8.6367,-8.75,-8.75,-8.75,-8.75,-8.75,-8.75,-8.75,-8.75,-8.6797,-8.6484,-8.6484,-8.6484,-8.6484,-8.6484,-8.6503,-8.6477,-8.6496,-8.6499,-8.6778,-8.7156,-8.6414,-8.6094,-8.6094,-8.6094,-8.6094,-8.6094,-8.6094,-8.6094,-8.5203,-7.9729,-7.7085,-7.6002,-7.5994,-7.5994,-7.5986,-7.5997,-7.5666,-7.4895,-7.3004,-7.2495,-7.2495,-7.25,-7.2516,-7.25,-7.25,-7.044,-6.8458,-6.7781,-6.7707,-6.7724,-6.7687,-6.767,-6.6792,-6.4164,-6.3763,-6.373,-6.3769,-6.2664,-6.0812,-5.8183,-5.7878,-5.7909,-5.7881,-5.7899,-5.6879,-5.4496,-5.5485,-5.5519,-5.4125,-5.2772,-5.2097,-5.2097,-5.1488,-5.1488,-5.2097,-5.2097,-5.2401,-5.2976,-5.2976,-5.257,-4.3855,-4.0931,-4.1162,-4.4047,-4.547,-4.7778,0.0,-5.5553,-5.6515,-5.9187,-6.1848,-6.4315,-6.6392,-6.8574,-7.0976,-7.3594,-7.4844,-7.6289,-7.8594,-7.9375,-8.0312,-8.1953,-8.2226,-8.2304,-8.2304,-8.2304,-8.2304,-8.2304,-8.3867,-8.414,-8.2656,-8.5703,-8.75,-8.75,-8.75,-8.75,-8.75,-8.75,-8.75,-8.7461,-8.4375,-8.289,-8.289,-8.289,-8.289,-8.2889,-8.2864,-8.2852,-8.2907,-8.2883,-8.4211,-8.6238,-8.6146,-8.6082,-8.6082,-8.6094,-8.6094,-8.6094,-8.6094,-8.6088,-8.5966,-8.5197,-8.09,-7.5994,-7.6024,-7.5999,-7.6,-7.6002,-7.4497,-7.2832,-7.2559,-7.2499,-7.2537,-7.2496,-7.2496,-7.2516,-7.25,-7.2242,-7.112,-6.8239,-6.7671,-6.7689,-6.7687,-6.7721,-6.7593,-6.7215,-6.7128,-6.7135,-6.7115,-6.2042,-5.8325,-5.7911,-5.792,-5.7883,-5.7857,-5.7887,-5.7763,-5.742,-5.7564,-5.7189,-5.6163,-5.5516,-5.5209,-5.5209,-5.5141,-5.5141,-5.5209,-5.5209,-5.5243,-5.5344,-5.5344,-5.4938,-4.8432,-4.7432,-4.8355,-5.0279,-5.2895,-5.5742,-5.8627,-6.0035,-6.1381,-6.3501,-6.6,-6.8219,-6.9463,-7.1688,-7.362,-7.4597,-7.5755,-7.6809,-7.7773,-7.9805,-8.1484,-8.2226,-8.2304,-8.2304,-8.2304,-8.2304,-8.2304,-8.2304,-8.2969,-8.3945,-8.5273,-8.6719,-8.75,-8.75,-8.75,-8.75,-8.75,-8.75,-8.75,-8.7461,-8.3984,-8.2304,-8.2304,-8.2304,-8.2287,-8.23,-8.2301,-8.2047,-8.1585,-8.1594,-8.2235,-8.317,-8.317,-8.3208,-8.3439,-8.5363,-8.6126,-8.6126,-8.6126,-8.6088,-8.612,-8.6107,-8.2848,-7.8608,-7.6585,-7.5994,-7.5703,-7.4336,-7.326,-7.2495,-7.2536,-7.2502,-7.2496,-7.2496,-7.2496,-7.2496,-7.2516,-7.2537,-7.2095,-7.0734,-6.899,-6.767,-6.7716,-6.7738,-6.6978,-6.4928,-6.4592,-6.465,-6.4629,-6.2231,-6.0524,-6.0506,-6.0517,-5.9768,-5.801,-5.7897,-5.7876,-5.7876,-5.7925,-5.7759,-5.7277,-5.6664,-5.6359,-5.6359,-5.5919,-5.5716,-5.5716,-5.5716,-5.5716,-5.5716,-5.5716,-5.5784,-5.1202,-5.2433,-5.4587,-5.5895,-5.9242,-6.232,-6.2781,-6.4012,-6.5513,-6.6974,-6.8821,-7.0464,-7.1321,-7.3245,-7.473,-7.4965,-7.6225,-7.7188,-7.7219,-8.0137,-8.1953,-8.1015,-8.0039,-7.9844,-8.0781,-8.1758,-8.2304,-8.2304,-8.2304,-8.3828,-8.7304,-8.75,-8.75,-8.75,-8.75,-8.75,-8.75,-8.6562,-8.6054,-8.6054,-8.3515,-8.2304,-8.2304,-8.2299,-8.2293,-8.2278,-8.2086,-8.1662,-8.1093,-8.11,-8.11,-8.11,-8.11,-8.1068,-8.1407,-8.3824,-8.5318,-8.6088,-8.6088,-8.5511,-8.4709,-8.4696,-8.3093,-8.0476,-7.7033,-7.5551,-7.4695,-7.2993,-7.2518,-7.2479,-7.25,-7.2496,-7.2496,-7.2496,-7.2496,-7.2496,-7.2496,-7.2516,-7.2537,-7.25,-7.0621,-6.8721,-6.7825,-6.6926,-6.5379,-6.2781,-6.2368,-6.2369,-6.2389,-6.2385,-6.241,-6.2404,-6.2404,-6.1571,-5.9304,-5.9152,-5.8747,-5.7924,-5.7904,-5.7876,-5.7881,-5.7374,-5.7103,-5.7103,-5.6596,-5.6325,-5.6325,-5.6325,-5.6325,-5.6325,-5.6325,-5.6596,-5.0702,-5.3741,-5.7473,-5.9973,-6.3205,-6.6167,-6.7821,-6.8859,-6.9744,-7.0591,-7.0821,-7.1129,-7.2014,-7.264,-7.3447,-7.4553,-7.6121,-7.7198,-7.7216,-8.0143,-8.1054,-7.7734,-7.4375,-7.3633,-7.7031,-8.0351,-8.2304,-8.2304,-8.2304,-8.3828,-8.7304,-8.75,-8.75,-8.75,-8.75,-8.75,-8.75,-8.414,-8.2461,-8.2461,-8.2344,-8.2304,-8.2304,-8.2298,-8.2301,-8.224,-8.1477,-8.1131,-8.1093,-8.1093,-8.1093,-8.1093,-8.1093,-8.1093,-8.1131,-8.1215,-8.3285,-8.6082,-8.6082,-8.3971,-8.126,-8.1253,-8.1179,-8.0469,-7.7075,-7.4394,-7.2606,-7.2518,-7.2465,-7.2496,-7.2496,-7.2496,-7.2496,-7.2496,-7.2496,-7.2496,-7.2496,-7.2496,-7.2459,-7.25,-7.2413,-7.1376,-6.8197,-6.4841,-6.2488,-6.2427,-6.2377,-6.2391,-6.2425,-6.2425,-6.2425,-6.2381,-6.2368,-6.231,-6.2242,-6.2302,-6.1027,-5.81,-5.7891,-5.7864,-5.7881,-5.7881,-5.7848,-5.7848,-5.7814,-5.7814,-5.7814,-5.7814,-5.7814,-5.7814,-5.7814,-5.7848,-5.4818,-5.9242,-6.3397,-6.5359,-6.8821,-7.1745,-7.1783,-7.1552,-7.1437,-7.1706,-7.0437,-6.9321,-6.9629,-7.0102,-7.1591,-7.5022,-7.6044,-7.7379,-8.02,-7.9608,-7.7614,-7.4179,-7.2695,-7.2461,-7.3633,-7.8945,-8.2304,-8.2304,-8.2304,-8.3828,-8.7304,-8.75,-8.75,-8.75,-8.75,-8.6406,-8.4062,-8.289,-8.2304,-8.2304,-8.2304,-8.2304,-8.2304,-8.2312,-8.2007,-8.1477,-8.1208,-8.1093,-8.1093,-8.1093,-8.1093,-8.1093,-8.1093,-8.1093,-8.1093,-8.1093,-8.1823,-8.2778,-8.2785,-8.205,-8.1115,-8.1114,-8.1115,-8.058,-7.773,-7.6306,-7.5267,-7.3128,-7.2511,-7.2541,-7.2541,-7.249,-7.2496,-7.2496,-7.2496,-7.2496,-7.2496,-7.2496,-7.249,-7.251,-7.2481,-7.1355,-6.7729,-6.4488,-6.2404,-6.2404,-6.2368,-6.2381,-6.2381,-6.2381,-6.2381,-6.2381,-6.2425,-6.2391,-6.2391,-6.2377,-6.1979,-6.0935,-5.9945,-5.9363,-5.937,-5.8896,-5.8626,-5.8626,-5.8152,-5.7881,-5.7881,-5.7881,-5.7881,-5.7881,-5.7881,-5.7881,-6.005,-6.4282,-6.7782,-7.009,-7.2476,-7.4053,-7.3206,-7.2591,-7.1937,-7.1014,-6.8821,-6.7244,-6.7988,-6.7564,-6.8642,-7.342,-7.5197,-7.7379,-8.1325,-7.917,-7.6816,-7.5819,-7.3515,-7.25,-7.375,-7.7851,-8.0469,-8.0469,-8.1601,-8.3828,-8.7304,-8.75,-8.75,-8.75,-8.75,-8.582,-8.2344,-8.2304,-8.2304,-8.2304,-8.2304,-8.2304,-8.2304,-8.2285,-8.2013,-8.1491,-8.1214,-8.1093,-8.1093,-8.1093,-8.1093,-8.1093,-8.1093,-8.1093,-8.1093,-8.1093,-8.1113,-8.1095,-8.1095,-8.1114,-8.0924,-8.0037,-7.9766,-7.9428,-7.7797,-7.7328,-7.7106,-7.6213,-7.5969,-7.5418,-7.309,-7.2526,-7.2475,-7.2496,-7.2496,-7.2496,-7.2496,-7.2504,-7.2498,-7.25,-7.138,-6.9671,-6.7238,-6.4366,-6.2421,-6.237,-6.2403,-6.2403,-6.2381,-6.2381,-6.2381,-6.2381,-6.2381,-6.2381,-6.2381,-6.2358,-6.2411,-6.2377,-6.1452,-6.0732,-6.0393,-5.9742,-5.9404,-5.9404,-5.893,-5.8693,-5.8693,-5.8693,-5.8558,-5.8287,-5.8287,-5.8152,-6.5974,-6.8667,-7.0783,-7.3976,-7.4245,-7.3437,-7.2552,-7.2206,-7.1398,-6.8859,-6.6282,-6.5062,-6.6815,-6.4825,-6.4494,-6.9348,-7.3427,-7.7177,-8.0623,-7.8973,-7.8558,-8.1592,-7.6248,-7.3632,-7.7109,-7.7305,-7.7187,-7.7187,-8.0351,-8.3828,-8.7304,-8.75,-8.75,-8.75,-8.7344,-8.5664,-8.2344,-8.2304,-8.2304,-8.2304,-8.2304,-8.2304,-8.23,-8.2284,-8.2287,-8.2215,-8.1412,-8.1093,-8.1093,-8.1093,-8.1093,-8.1093,-8.1093,-8.1093,-8.1093,-8.11,-8.1103,-8.1079,-8.0924,-8.0924,-8.05,-7.8074,-7.7305,-7.7291,-7.7291,-7.7308,-7.7928,-8.1094,-8.1918,-8.0526,-7.439,-7.2636,-7.249,-7.2475,-7.2496,-7.2496,-7.2496,-7.2474,-7.2444,-7.2235,-6.9282,-6.6807,-6.6789,-6.4506,-6.2609,-6.2649,-6.2548,-6.238,-6.2415,-6.2381,-6.2381,-6.2381,-6.2381,-6.2381,-6.2381,-6.2381,-6.2391,-6.2377,-6.2377,-6.197,-6.1053,-6.0461,-6.0148,-6.0148,-6.0114,-6.0114,-6.0114,-6.0114,-5.9742,-5.9066,-5.9066,-5.8693,-6.9513,-7.2591,-7.4591,-7.5476,-7.6015,-7.5938,-7.4399,-7.2591,-7.0514,-6.7975,-6.5086,-6.2667,-6.1472,-5.9287,-5.8058,-5.9369,-6.8806,-7.716,-8.0615,-8.053,-7.9495,-7.7821,-7.656,-7.7207,-8.0663,-7.8711,-7.7187,-7.7187,-8.0351,-8.3828,-8.7304,-8.75,-8.75,-8.75,-8.4961,-8.3203,-8.2304,-8.2304,-8.2304,-8.2304,-8.2304,-8.2296,-8.2321,-8.2303,-8.1992,-8.1385,-8.1184,-8.1093,-8.1093,-8.1093,-8.1093,-8.1093,-8.1093,-8.1093,-8.11,-8.1071,-8.1117,-8.0847,-7.8945,-7.8254,-7.8179,-7.7475,-7.7274,-7.7289,-7.7289,-7.7316,-7.7463,-7.8321,-7.8529,-7.8186,-7.6533,-7.4286,-7.2526,-7.249,-7.2511,-7.2496,-7.2496,-7.2474,-7.1644,-6.8816,-6.7503,-6.6821,-6.6779,-6.6194,-6.5725,-6.5685,-6.3835,-6.238,-6.2415,-6.2381,-6.2381,-6.2381,-6.2381,-6.2381,-6.2381,-6.2381,-6.2381,-6.2391,-6.2391,-6.229,-6.2053,-6.1332,-6.0994,-6.0994,-6.0419,-6.0114,-6.0114,-6.0114,-6.0013,-5.981,-5.981,-5.9708,-7.336,-7.5476,-7.6553,-7.6553,-7.6361,-7.5322,-7.2091,-6.9975,-6.7731,-6.4292,-6.1026,-5.9009,-5.9726,-5.515,-5.3234,-5.9196,-6.9091,-7.6668,-7.8584,-8.0123,-7.9815,-7.6417,-7.773,-7.968,-8.1569,-8.0353,-7.9453,-7.9453,-8.1211,-8.3828,-8.7304,-8.75,-8.6797,-8.5273,-8.332,-8.2304,-8.2304,-8.2304,-8.2304,-8.2304,-8.2309,-8.232,-8.2278,-8.1932,-8.1516,-8.1093,0.0,-8.1093,-8.1093,-8.1093,-8.1093,-8.1093,-8.1093,-8.1113,-8.1103,-8.1117,-8.0376,-7.9236,-7.7812,-7.733,-7.7308,-7.7308,-7.7275,-7.7304,-7.7304,-7.7279,-7.7316,-7.7316,-7.7316,-7.7304,-7.7329,-7.5946,-7.4235,-7.282,-7.249,-7.2475,-7.2496,-7.2481,-7.1404,-6.7551,-6.6792,-6.6779,-6.6844,-6.681,-6.6826,-6.6821,-6.5386,-6.3822,-6.2606,-6.237,-6.2381,-6.2381,-6.2381,-6.2381,-6.2381,-6.2381,-6.2381,-6.2381,-6.2381,-6.2381,-6.2381,-6.2009,-6.1772,-6.1772,-6.1332,-6.1095,-6.1095,-6.1095,-6.0926,-6.0622,-6.0091,-5.989,-7.6993,-7.7485,-7.7361,-7.7608,-7.6101,-7.3437,-6.9232,-6.7154,-6.4754,-5.9991,-5.6811,-5.5847,-5.8895,-5.149,-4.9528,-6.3599,-7.1207,-7.5451,-7.5938,-7.893,-7.9999,-7.7032,-7.9285,-8.1085,-8.1093,-8.1831,-8.2301,-8.2304,-8.1875,-8.3359,-8.7304,-8.75,-8.5898,-8.2422,-8.2304,-8.2304,-8.2304,-8.2304,-8.2301,-8.232,-8.2289,-8.224,-8.2124,-8.14,-8.1093,-8.1093,-8.1093,-8.1093,-8.1093,-8.1093,-8.11,-8.1074,-8.1074,-8.1106,-8.1037,-8.0728,-7.9198,-7.7308,-7.7273,-7.7324,-7.7304,-7.7304,-7.7304,-7.7304,-7.7304,-7.7304,-7.7304,-7.7304,-7.7304,-7.7304,-7.7316,-7.7279,-7.6617,-7.3795,-7.282,-7.2526,-7.2468,-7.2113,-7.0793,-6.7482,-6.6812,-6.6812,-6.6812,-6.6812,-6.6829,-6.6826,-6.6792,-6.5895,-6.3337,-6.2674,-6.2415,-6.2381,-6.2381,-6.2381,-6.2381,-6.2381,-6.2381,-6.2381,-6.2381,-6.2381,-6.2381,-6.2381,-6.2381,-6.2381,-6.2381,-6.2381,-6.2381,-6.2381,-6.2076,-6.1434,-6.0351,-5.9984,-7.9052,-7.8497,-7.7654,-7.9205,-7.6657,-7.385,-7.4345,-7.0772,-6.5604,-5.9667,-5.9088,-5.8157,-5.3356,-4.6377,-4.6761,-6.3222,-6.918,-7.2777,-7.5592,-7.8951,-8.0906,-8.0315,-8.0739,-8.1085,-8.1093,-8.1834,-8.2309,-8.2304,-7.9687,-8.0859,-8.7148,-8.75,-8.5898,-8.2422,-8.2304,-8.2304,-8.2304,-8.2304,-8.2288,-8.2329,-8.2284,-8.197,-8.1285,-8.117,-8.1093,-8.1093,-8.1093,0.0,-8.1093,-8.1093,-8.109,-8.1079,-8.1079,-8.1111,-8.0817,-7.8729,-7.7685,-7.7328,-7.726,-7.7255,-7.7304,-7.7304,-7.7304,-7.7304,-7.7304,-7.7304,-7.7304,-7.7304,-7.7304,-7.7304,-7.7304,-7.7292,-7.7132,-7.6617,-7.4478,-7.2496,-7.2491,-7.0026,-6.7575,-6.6962,-6.6812,-6.6812,-6.6812,-6.6812,-6.6812,-6.6779,-6.6777,-6.6622,-6.6064,-6.389,-6.2425,-6.2415,-6.2381,-6.2381,-6.2381,-6.2381,-6.2381,-6.2381,-6.2381,-6.2381,-6.2381,-6.2381,-6.2381,-6.2381,-6.2381,-6.2381,-6.2381,-6.2381,-6.2313,-6.2212,-6.2021,-6.1408,-7.9195,-7.8522,-7.7708,-7.879,-7.6437,-7.3829,-7.3421,-6.7888,-6.065,-5.324,-5.2343,-5.0835,-4.4042,-4.5855,-5.1087,-5.9258,-6.6399,-7.1467,-7.3108,-7.6283,-7.9095,-8.0893,-8.1124,-8.1093,-8.1093,-8.1829,-8.2296,-8.2304,-7.914,-8.0195,-8.7148,-8.75,-8.5898,-8.2422,-8.2304,-8.231,-8.2287,-8.2287,-8.23,-8.2282,-8.188,-8.1477,-8.1093,-8.1093,-8.1093,-8.1093,-8.1093,-8.1093,-8.1093,-8.1093,-8.1099,-8.0965,-7.9628,-7.9134,-7.8966,-7.7729,-7.7311,-7.7303,-7.7316,-7.7304,-7.7304,-7.7304,-7.7304,-7.7304,-7.7304,-7.7304,-7.7304,-7.7304,-7.7304,-7.7304,-7.7304,-7.7268,-7.7292,-7.7279,-7.486,-7.1974,-6.9991,-6.8124,-6.6814,-6.681,-6.6812,-6.6812,-6.6812,-6.6812,-6.6812,-6.6812,-6.6829,-6.681,-6.6792,-6.559,-6.4093,-6.2582,-6.238,-6.2392,-6.2392,-6.237,-6.2381,-6.2381,-6.2381,-6.2381,-6.2381,-6.2381,-6.2381,-6.2381,-6.2381,-6.2381,-6.2381,-6.2381,-6.2381,-6.2381,-6.1119,-6.0501,-7.8624,-7.8517,-7.7987,-7.825,-7.6752,-7.483,-7.3403,-6.6234,-5.6811,-4.5742,-4.3443,-4.1832,-3.6496,-4.479,-5.2682,-5.3436,-6.0264,-6.5489,-6.5462,-7.1568,-7.7246,-8.0692,-8.1124,-8.1093,-8.1093,-8.1809,-8.2298,-8.2304,-8.0508,-8.1797,-8.7226,-8.75,-8.5898,-8.2422,-8.2281,-8.2309,-8.2309,-8.2124,-8.203,-8.2048,-8.1385,-8.1093,-8.1093,-8.1093,-8.1093,-8.1093,-8.1093,-8.1068,-8.1118,-8.1118,-8.1114,-8.087,-7.8272,-7.7297,-7.7274,-7.7274,-7.7303,-7.7304,-7.7304,-7.7304,-7.7304,-7.7304,-7.7304,-7.7304,-7.7304,-7.7304,-7.7304,-7.7304,-7.7304,-7.7304,-7.7304,-7.7291,-7.7312,-7.7285,-7.4718,-7.1232,-6.7549,-6.6769,-6.6816,-6.6761,-6.6812,-6.6812,-6.6812,-6.6812,-6.6812,-6.6812,-6.6812,-6.6745,-6.6777,-6.6826,-6.5948,-6.3564,-6.3357,-6.31,-6.2468,-6.238,-6.2403,-6.237,-6.237,-6.2448,-6.2381,-6.2381,-6.2381,-6.2381,-6.2381,-6.2381,-6.2381,-6.2381,-6.2381,-6.2381,-6.0161,-5.9522,-7.7915,-7.9064,-7.8977,-7.9002,-7.856,-7.8468,-7.984,-7.2379,-5.9746,-4.0415,-3.6411,-3.6234,-3.5607,-3.9,-4.2915,-4.6014,-4.7336,-4.792,-4.7922,-6.4128,-7.7274,-8.0704,-8.1116,-8.1093,-8.1093,-8.1839,-8.2294,-8.2301,-8.4922,-8.6836,-8.7461,-8.75,-8.5898,-8.2422,-8.23,-8.2314,-8.2278,-8.1554,-8.1201,-8.1214,-8.1124,-8.1093,-8.1093,-8.1093,-8.1093,-8.1093,-8.1093,-8.1095,0.0,-8.1118,-8.1116,-8.0848,-7.8282,-7.7293,-7.7292,-7.7292,-7.7329,-7.7304,-7.7304,-7.7304,-7.7304,-7.7304,-7.7304,-7.7304,-7.7304,-7.7304,-7.7304,-7.7304,-7.7304,-7.7304,-7.7304,-7.7275,-7.7261,-7.7307,-7.427,-7.0584,-6.7443,-6.6848,-6.6795,-6.6812,-6.6812,-6.6812,-6.6812,-6.6812,-6.6812,-6.6812,-6.6812,-6.6812,-6.6779,-6.6779,-6.6711,-6.639,-6.6384,-6.5284,-6.2609,-6.2441,-6.2421,-6.2447,-6.2413,-6.2425,-6.2381,-6.2381,-6.2381,-6.2381,-6.2381,-6.2381,-6.2381,-6.2381,-6.2381,-6.2381,-6.1036,-5.987,-7.7441,-7.7308,-7.7291,-8.0218,-7.8963,-7.612,-7.2745,-6.0873,-4.7722,-3.7577,-3.5515,-3.5518,-3.5513,-3.6603,-3.7932,-3.9312,-4.2926,-4.6321,-4.8395,-6.2651,-7.4976,-8.0431,-8.1504,-8.1831,-8.1816,-8.2124,-8.1453,-7.9372,-8.4375,-8.75,-8.75,-8.75,-8.6875,-8.5469,-8.3387,-8.2086,-8.1554,-8.1246,-8.1093,-8.1093,-8.1093,-8.1093,-8.1093,-8.1093,-8.1093,-8.1131,-8.1099,-8.1115,0.0,-7.9457,-7.8832,-7.8735,-7.7696,-7.7328,-7.7304,-7.7304,-7.7304,-7.7304,-7.7304,-7.7304,-7.7304,-7.7304,-7.7304,-7.7304,-7.7304,-7.7304,-7.7304,-7.7304,-7.7304,-7.7291,-7.7283,-7.5541,-7.368,-7.3694,-7.2474,-7.0476,-6.7486,-6.6762,-6.6778,-6.6846,-6.6812,-6.6812,-6.6812,-6.6812,-6.6812,-6.6812,-6.6812,-6.6812,-6.6812,-6.6812,-6.6812,-6.6812,-6.6826,-6.6282,-6.5155,-6.5067,-6.5081,-6.5094,-6.4208,-6.3303,-6.2459,-6.2809,-6.2854,-6.2415,-6.2381,-6.2381,-6.2381,-6.2381,-6.2381,-6.2381,-6.0417,-5.9258,-7.6175,-7.6437,-7.6212,-7.8723,-7.6381,-7.1665,-6.4524,-5.0988,-3.9107,-3.6121,-3.5496,-3.5513,-3.5504,-3.5489,-3.5499,0.0,-4.1168,-4.645,-4.8854,-5.8286,-6.7456,-7.4282,-7.9345,-8.2301,-8.2289,-8.2311,-8.0886,-7.7459,-8.1719,-8.4446,-8.4442,-8.6393,-8.7477,-8.7507,-8.4118,-8.19,-8.1131,-8.1093,-8.1093,-8.1093,-8.1093,-8.1093,-8.1093,-8.108,-8.109,-8.1129,-8.1078,-8.0676,0.0,-7.8069,-7.7274,-7.731,-7.733,-7.7282,-7.7304,-7.7304,-7.7304,-7.7304,-7.7304,-7.7304,-7.7304,-7.7304,-7.7304,-7.7304,-7.7304,-7.7304,-7.7304,-7.7304,-7.7302,-7.7028,-7.5836,-7.3456,-7.1325,-7.1331,-7.1282,-7.0717,-6.8605,-6.7401,-6.6778,-6.6846,-6.6812,-6.6812,-6.6812,-6.6812,-6.6812,-6.6812,-6.6812,-6.6812,-6.6812,-6.6812,-6.6812,-6.6812,-6.6761,-6.6777,-6.6777,-6.684,-6.6821,-6.6834,-6.5841,-6.4647,-6.3303,-6.3383,-6.326,-6.2719,-6.2516,-6.2381,-6.2381,-6.2381,-6.2381,-6.2381,-5.987,-5.8451,-7.3831,-7.731,-7.6513,-7.3391,-7.018,-6.5714,-5.7623,-4.6948,-3.8136,-3.5932,-3.5508,-3.5512,-3.5504,-3.5518,-3.5489,-3.5507,-4.1168,-4.5607,-4.5629,-4.8706,-5.3436,-6.0188,-7.3601,-8.2305,-8.2297,-8.2304,-8.0898,-7.7461,-7.7265,0.0,-7.7313,-8.3799,-8.7503,-8.7506,-8.4099,-8.1914,-8.1106,-8.11,-8.11,-8.1093,-8.1093,-8.1093,-8.1131,-8.1114,-8.1079,-8.1078,-8.1097,-7.9629,0.0,-7.7273,-7.7287,-7.7291,-7.7279,-7.7304,-7.7304,-7.7304,-7.7304,-7.7304,-7.7304,-7.7304,-7.7304,-7.7304,-7.7304,-7.7304,-7.7304,-7.7304,-7.7304,-7.7304,-7.7312,-7.6373,-7.2405,-7.1291,-7.1248,-7.1342,-7.1274,-7.1265,-7.1265,-6.8931,-6.6812,-6.6812,-6.6812,-6.6812,-6.6812,-6.6812,-6.6812,-6.6812,-6.6812,-6.6812,-6.6812,-6.6812,-6.6812,-6.6812,-6.6812,-6.6812,-6.6812,-6.6812,-6.6795,-6.6758,-6.6758,-6.6316,-6.5318,-6.4153,-6.3531,-6.3497,-6.2753,-6.2381,-6.2381,-6.2381,-6.2381,-6.2381,-5.987,-5.7559,-7.1689,-7.2397,-7.0499,-6.9442,-7.0122,-6.6824,-5.0971,-4.2895,-3.7863,-3.4927,-3.4965,-3.5512,-3.5504,-3.5493,-3.6234,-3.8553,-4.0735,-4.3747,-4.8413,-5.0002,-5.1612,-5.4084,-6.4658,-7.4538,-8.1601,-8.2304,-8.09,-7.7448,-7.7195,-7.7195,-7.7196,-7.8748,-8.177,-8.6384,-8.5452,-8.4759,-8.4535,-8.224,-8.11,-8.11,-8.11,-8.1124,-8.1115,-8.1118,-8.0152,-7.8497,-7.8479,-7.9327,-8.0637,-8.065,-7.9325,-7.7316,-7.7341,-7.7279,-7.7291,-7.7291,-7.7291,-7.7291,-7.7291,-7.7316,-7.7304,-7.7304,-7.7304,-7.7304,-7.7304,-7.7295,-7.731,-7.7305,-7.536,-7.2897,-7.1641,-7.1268,-7.126,-7.1342,-7.1274,-7.0697,-6.8639,-6.7505,-6.6778,-6.6846,-6.6812,-6.6812,-6.6812,-6.6812,-6.6812,-6.6812,-6.6812,-6.6812,-6.6812,-6.6812,-6.6812,-6.6812,-6.6812,-6.6812,-6.6812,-6.6812,-6.6779,-6.6795,-6.6795,-6.6709,-6.635,-6.6011,-6.5081,-6.3531,-6.3294,-6.2888,-6.2381,-6.2381,-6.1561,-5.987,-5.917,-5.7559,-6.1589,-6.1006,-5.8574,-5.8566,-6.0087,-5.8391,-4.6249,-4.102,-3.7779,-3.4473,-3.4715,-3.5488,-3.5489,-3.5493,-3.6171,-3.8278,-4.3981,-4.9654,-5.3917,-5.2473,-5.253,-5.677,-6.6405,-7.5234,-8.1679,-8.2287,-8.087,-7.7477,-7.6929,-7.6739,-7.6728,-7.6276,-7.7908,-8.2147,-8.2301,-8.2301,-8.2309,-8.2733,-8.3002,-8.2971,-8.2995,-8.2329,-8.1041,-8.0102,-7.9471,-7.9116,-7.9166,-7.9631,0.0,-8.0355,-7.913,-7.7329,-7.7304,-7.7279,-7.7463,-7.8699,-7.9165,-7.8982,-7.7694,-7.7316,-7.7304,-7.7304,-7.7304,-7.7291,-7.732,-7.6275,-7.5045,-7.5053,-7.3263,-7.1291,-7.1266,-7.1318,-7.1342,-7.1294,-7.0459,-6.9079,-6.7165,-6.6761,-6.6778,-6.6846,-6.6812,-6.6812,-6.6812,-6.6812,-6.6812,-6.6812,-6.6812,-6.6812,-6.6812,-6.6812,-6.6812,-6.6812,-6.6812,-6.6812,-6.6812,-6.6812,-6.6812,-6.6812,-6.6812,-6.6745,-6.681,-6.6792,-6.5861,-6.3971,-6.3666,-6.3159,-6.2381,-6.1951,-6.067,-5.8812,-5.836,-5.7086,0.0,-4.5616,-4.351,-4.351,-4.3494,-4.3429,-4.3213,-4.065,0.0,-3.442,-3.471,-3.5496,-3.5513,-3.5518,-3.5504,-3.5489,-4.8709,-5.9265,-6.0034,-5.5509,-5.5824,-6.5738,-7.6013,-8.2297,-8.23,-8.2279,-8.0849,-7.7352,-7.6399,-7.6015,-7.6015,-7.6015,-7.6015,-7.6015,-7.6002,-7.5979,-7.601,-8.2232,-8.5368,-8.5368,-8.535,-8.3677,-8.043,-7.8011,-7.8648,0.0,-8.1487,-7.9792,-7.6985,-7.6985,-7.6985,-7.6985,-7.6974,-7.7268,-7.8027,-8.1082,-8.2239,-8.1723,-7.8442,-7.7316,-7.7304,-7.7304,-7.7341,-7.7285,-7.7308,-7.4512,-7.1304,-7.133,-7.1339,-7.1256,-7.1008,-7.0988,-7.094,-7.094,-6.8827,-6.6828,-6.6794,-6.6745,-6.6812,-6.6812,-6.6812,-6.6812,-6.6812,-6.6812,-6.6812,-6.6812,-6.6812,-6.6812,-6.6812,-6.6812,-6.6812,-6.6812,-6.6812,-6.6812,-6.6812,-6.6812,-6.6812,-6.6812,-6.6812,-6.6812,-6.6812,-6.681,-6.6098,-6.4715,-6.3903,-6.3045,-6.2302,-6.1152,-5.9989,-5.8632,-5.7527,-5.6347,-3.9873,0.0,-4.3506,-4.3505,-4.3497,-4.2861,0.0,-3.7287,-3.4722,-3.3971,-3.4699,-3.5505,-3.5484,-3.5489,-3.5499,-3.5496,-3.8848,-4.4306,-5.246,-5.687,-6.119,-6.6289,-7.6013,-8.2297,-8.2289,-8.23,-8.0644,-7.6583,-7.6109,-7.5994,-7.5994,-7.6024,-7.5985,-7.5985,-7.5985,-7.5994,-7.6002,-7.76,-7.8366,-7.8366,-7.8369,-7.7021,-7.4511,-7.3885,-7.4053,-7.4779,-7.4785,-7.4372,-7.3629,-7.3616,-7.364,-7.364,-7.3616,-7.6631,-8.1108,-8.192,-8.2216,-8.1711,-7.8442,-7.7279,-7.7316,-7.7303,-7.7327,-7.7298,-7.7344,-7.4472,-7.1321,-7.1297,-7.1319,-7.0772,-6.8466,-6.7853,-6.7873,-6.7877,-6.7318,-6.6794,-6.6829,-6.6762,-6.6812,-6.6812,-6.6812,-6.6812,-6.6812,-6.6812,-6.6812,-6.6812,-6.6812,-6.6812,-6.6812,-6.6812,-6.6812,-6.6812,-6.6812,-6.6812,-6.6812,-6.6812,-6.6812,-6.6812,-6.6812,-6.6812,-6.6812,-6.6779,-6.6422,-6.5459,-6.4174,-6.269,-6.1036,-6.0787,-5.9522,-5.7434,-5.7181,-5.6347,-3.5952,-3.8805,-4.1299,-4.1295,-4.1304,-4.0466,-3.7213,-3.5088,-3.3956,-3.4489,-3.5057,-3.5496,-3.5499,-3.8036,-3.9605,-3.807,-3.7785,-4.0977,-5.0127,-6.1433,-7.0097,-7.3535,-7.8912,-8.2155,-8.1801,-8.0332,-7.9119,-7.8391,-7.8361,-7.8361,-7.8323,-7.8353,-7.7592,-7.6062,-7.5986,-7.6025,-7.6024,-7.5993,-7.5991,-7.597,-7.4926,-7.37,-7.2518,-7.2482,-7.252,-7.2482,-7.2482,-7.2482,-7.2482,-7.2504,-7.2504,-7.2504,-7.2519,-7.4675,-7.7768,-7.7733,-7.8701,-7.967,-7.7916,-7.6289,-7.5092,-7.5103,-7.5115,-7.4808,-7.3003,-7.095,-6.9211,-6.9238,-6.9233,-6.8861,-6.7214,-6.6843,-6.6828,-6.6812,-6.6778,-6.6778,-6.6846,-6.6812,-6.6812,-6.6812,-6.6812,-6.6812,-6.6812,-6.6812,-6.6812,-6.6812,-6.6812,-6.6812,-6.6812,-6.6812,-6.6812,-6.6812,-6.6812,-6.6812,-6.6812,-6.6812,-6.6812,-6.6812,-6.6812,-6.6812,-6.6812,-6.6812,-6.6305,-6.5222,-6.3515,-6.1966,-6.0586,-5.9522,-5.8237,-5.6991,-5.6445,-5.5819,-3.3797,-3.5811,-3.8177,-3.9182,-3.9409,-3.8488,-3.4897,-3.4064,-3.4336,-3.53,-3.5501,-3.549,-3.5499,-4.0626,-4.4084,-4.1763,-4.1826,-4.4501,-5.1235,-6.6609,-7.8447,-8.1903,-8.2216,-8.1855,-8.117,-7.8454,-7.7954,-8.0854,-8.1116,-8.1085,-8.1131,-8.1093,-7.953,-7.6108,-7.6,-7.5809,-7.5487,-7.5844,-7.5818,-7.5437,-7.3429,-7.2508,-7.2466,-7.2521,-7.2496,-7.2496,0.0,0.0,-7.2496,-7.2496,-7.2496,-7.2532,-7.2504,-7.2519,-7.2496,-7.2498,-7.4238,-7.6581,-7.6581,-7.4785,-7.2509,-7.2517,-7.2089,-7.1044,-6.7753,-6.6814,-6.6804,-6.6761,-6.6843,-6.6794,-6.6794,-6.6745,-6.6812,-6.6812,-6.6812,-6.6812,-6.6812,-6.6812,-6.6812,-6.6812,-6.6812,-6.6812,-6.6812,-6.6812,-6.6812,-6.6812,-6.6812,-6.6812,-6.6812,-6.6812,-6.6812,-6.6812,-6.6812,-6.6812,-6.6812,-6.6812,-6.6812,-6.6812,-6.6812,-6.6812,-6.6812,-6.6812,-6.6019,-6.4368,-6.268,-6.1238,-6.0043,-5.7993,-5.6896,-5.6704,-5.5651,-5.5179,-3.38,-3.4162,-3.5883,-4.1397,-4.2762,-4.1449,-3.6377,-3.5241,-3.5305,-3.5473,-3.5512,-3.5507,-3.5492,-3.8661,-4.2201,-4.4958,-4.7844,-5.1141,-5.5224,-6.815,-7.8469,-8.1872,-8.1697,-8.1261,-8.1085,-8.0631,-8.0516,-8.1047,-8.1124,-8.1118,-8.1116,-8.1077,-7.9553,-7.6095,-7.5982,-7.5036,-7.3065,-7.4998,-7.5004,-7.3004,-7.2696,-7.251,-7.252,-7.2516,-7.2496,-7.2496,0.0,-7.2496,-7.2496,-7.2496,-7.2496,-7.2496,-7.2475,-7.2475,-7.2511,-7.2504,-7.2797,-7.3223,-7.3223,-7.293,-7.2519,-7.2527,-7.0289,-6.7552,-6.6976,-6.6804,-6.6761,-6.6762,-6.6796,-6.6762,-6.6762,-6.6846,-6.6812,-6.6812,-6.6812,-6.6812,-6.6812,-6.6812,-6.6812,-6.6812,-6.6812,-6.6812,-6.6812,-6.6812,-6.6812,-6.6812,-6.6812,-6.6812,-6.6812,-6.6812,-6.6812,-6.6812,-6.6812,-6.6812,-6.6812,-6.6812,-6.6812,-6.6812,-6.6812,-6.6812,-6.6812,-6.6812,-6.5648,-6.314,-6.2802,-6.0996,-5.7527,-5.715,-5.6445,-5.5451,-5.528,-5.5179,-3.3787,-3.7654,-4.2092,-4.4144,-4.3254,-4.1212,-3.8769,-3.8214,-3.8197,-3.8197,-3.8185,-3.8193,-3.8216,-4.1184,-4.6649,-5.5933,-5.8733,-6.0981,-6.4419,-7.1622,-7.6442,-7.6165,-7.9069,-8.1128,-8.1099,-8.1107,-8.1107,-8.1107,-8.1074,-8.1103,-8.1078,-7.9781,-7.7521,-7.4212,-7.4139,-7.3616,-7.2501,-7.3566,-7.3564,-7.2522,-7.2532,-7.2484,-7.2496,-7.2496,-7.2496,-7.2496,0.0,-7.2496,-7.2496,-7.2496,-7.2496,-7.2496,-7.2496,-7.2496,-7.2496,-7.2475,-7.2511,-7.2511,-7.2511,-7.2511,-7.2482,-7.2539,-6.9916,-6.6773,-6.6769,-6.6806,-6.6812,-6.6812,-6.6812,-6.6812,-6.6812,-6.6812,-6.6812,-6.6812,-6.6812,-6.6812,-6.6812,-6.6812,-6.6812,-6.6812,-6.6812,-6.6812,-6.6812,-6.6812,-6.6812,-6.6812,-6.6812,-6.6812,-6.6812,-6.6812,-6.6812,-6.6812,-6.6812,-6.6812,-6.6812,-6.6812,-6.6812,-6.6812,-6.6812,-6.6812,-6.6812,-6.6812,-6.5563,-6.288,-6.2166,-6.028,-5.6991,-5.6378,-5.572,-5.5179,-5.5179,-5.5179,-3.3808,-3.9415,-4.5145,-4.4574,-4.3023,-4.1703,-4.1683,-4.1703,-4.1684,-4.17,-4.1684,-4.17,-4.1694,-4.6853,-5.4831,-6.6238,-6.8084,-6.9212,-7.2476,-7.4707,-7.4735,-7.1295,-7.5543,-7.871,-7.872,-7.872,-7.872,-7.872,-7.8683,-7.8481,-7.7988,-7.6107,-7.3935,-7.1462,-7.21,-7.2532,-7.2466,-7.2503,-7.2484,-7.2489,-7.2465,-7.2496,-7.2496,-7.2496,-7.2496,-7.2496,-7.2496,-7.2496,-7.2496,-7.2496,-7.2496,-7.2496,-7.2496,-7.2496,-7.2496,-7.2496,-7.2496,-7.2496,-7.2496,-7.249,-7.2522,-7.2502,-6.992,-6.6795,-6.6834,-6.6812,-6.6812,-6.6812,-6.6812,-6.6812,-6.6812,-6.6812,-6.6812,-6.6812,-6.6812,-6.6812,-6.6812,-6.6812,-6.6812,-6.6812,-6.6812,-6.6812,-6.6812,-6.6812,-6.6812,-6.6812,-6.6812,-6.6812,-6.6812,-6.6812,-6.6812,-6.6812,-6.6812,-6.6812,-6.6812,-6.6812,-6.6812,-6.6812,-6.6812,-6.6643,-6.632,-6.632,-6.5047,-6.2191,-6.1142,-5.9349,-5.6757,-5.5711,-5.5179,-5.5179,-5.5179,-5.5179,-3.3808,-3.5063,-3.7148,-4.0093,-4.3044,-4.5222,-4.5246,-4.5227,-4.5227,-4.5225,-4.5245,-4.5243,-4.524,-5.6308,-6.6784,-7.0976,-7.165,-7.2592,-7.5332,-7.588,-7.4735,-7.1295,-7.1324,-7.1622,-7.1602,-7.1641,-7.1641,-7.1641,-7.1642,-7.0764,-6.8758,-6.8493,-6.8269,-6.8055,-7.0919,-7.2503,-7.2503,-7.2484,-7.2483,-7.248,-7.2496,-7.2496,-7.2496,-7.2496,-7.2496,-7.2496,-7.2496,-7.2496,-7.2496,-7.2496,-7.2496,-7.2496,-7.2496,-7.2496,-7.2496,-7.2496,-7.2496,-7.2496,-7.2496,-7.2486,-7.2517,-7.2508,-6.991,-6.6798,-6.6792,-6.6812,-6.6812,-6.6812,-6.6812,-6.6812,-6.6812,-6.6812,-6.6812,-6.6812,-6.6812,-6.6812,-6.6812,-6.6812,-6.6812,-6.6812,-6.6812,-6.6812,-6.6812,-6.6812,-6.6812,-6.6812,-6.6812,-6.6812,-6.6812,-6.6812,-6.6812,-6.6812,-6.6812,-6.6812,-6.6812,-6.6812,-6.6812,-6.6812,-6.6812,-6.6235,-6.5081,-6.5081,-6.3562,-6.0365,-5.9643,-5.83,-5.6281,-5.558,-5.5179,-5.5179,-5.5179,-5.5179,-3.3156,-3.3543,-3.6291,-3.9642,-4.1455,-4.3537,-4.7794,-5.2028,-5.5654,-5.7795,-5.8568,-5.6861,-5.0394,-5.3626,-6.05,-7.0382,-7.3418,-7.4861,-7.5861,-7.6005,-7.4735,-7.1286,-7.0892,-7.0882,-7.092,-7.092,-7.0911,-7.0898,-7.091,-6.9954,-6.7792,-6.7704,-6.7684,-6.767,-6.8917,-6.9522,-6.954,-6.954,-6.9521,-6.9538,-7.1524,-7.2483,-7.2483,-7.25,-7.248,-7.248,-7.2496,-7.2496,-7.2496,-7.2496,-7.2496,-7.2496,-7.2496,-7.2496,-7.2496,-7.2496,-7.2496,-7.2511,-7.2498,-7.2517,-7.2142,-6.9739,-6.8002,-6.6789,-6.6792,-6.6812,-6.6812,-6.6812,-6.6812,-6.6812,-6.6812,-6.6812,-6.6812,-6.6812,-6.6812,-6.6812,-6.6812,-6.6812,-6.6812,-6.6812,-6.6812,-6.6812,-6.6812,-6.6812,-6.6812,-6.6812,-6.6812,-6.6812,-6.6812,-6.6812,-6.6812,-6.6812,-6.6812,-6.6812,-6.6812,-6.6812,-6.6812,-6.6812,-6.6812,-6.6235,-6.4959,-6.4869,-6.3408,-6.016,-5.9477,-5.8132,-5.6166,-5.5508,-5.5179,-5.5179,-5.5179,-5.5179,-3.2619,-3.21,-3.5217,-4.0713,-4.3705,-4.6509,-5.1189,-5.7678,-6.3709,-6.7128,-6.7333,-6.374,-5.3323,-5.1399,-5.5853,-6.9424,-7.4101,-7.6005,-7.5976,-7.6005,-7.513,-7.2794,-7.1563,-7.0909,-7.0898,-7.0902,-7.0907,-7.0887,-7.0268,-6.9228,-6.7794,-6.7723,-6.7724,-6.7689,-6.7689,-6.7726,-6.7707,-6.7707,-6.7707,-6.7744,-6.9908,-7.0974,-7.0992,-7.101,-7.1524,-7.2483,-7.25,-7.248,-7.248,-7.2516,-7.2496,-7.2496,-7.2496,-7.2496,-7.2496,-7.2496,-7.2496,-7.249,-7.2481,-7.168,-7.0293,-6.7626,-6.6824,-6.685,-6.681,-6.6812,-6.6812,-6.6812,-6.6812,-6.6812,-6.6812,-6.6812,-6.6812,-6.6812,-6.6812,-6.6812,-6.6812,-6.6812,-6.6812,-6.6812,-6.6812,-6.6812,-6.6812,-6.6812,-6.6812,-6.6812,-6.6812,-6.6812,-6.6812,-6.6812,-6.6812,-6.6812,-6.6812,-6.6812,-6.6812,-6.6812,-6.6812,-6.6812,-6.644,-6.5646,-6.4322,-6.3919,-6.2332,-5.9481,-5.8807,-5.776,-5.6166,-5.5508,-5.5179,-5.5179,-5.5179,-5.5179,-3.2298,-3.0495,-3.2919,-4.3018,-5.0642,-5.5625,-5.5746,-6.1543,-6.7879,-7.1302,-6.9323,-6.3779,-5.3421,-5.1521,-5.5777,-6.8789,-7.3745,-7.6005,-7.5976,-7.6005,-7.6005,-7.6005,-7.3014,-7.0948,-7.0909,-7.0891,-7.0892,-7.0854,-6.8918,-6.7672,-6.7672,-6.7723,-6.7687,-6.7687,-6.7687,-6.7687,-6.7687,-6.7687,-6.7687,-6.7687,-6.7687,-6.7689,-6.7707,-6.7707,-6.9467,-7.2448,-7.2448,-7.2448,-7.2484,-7.2483,-7.248,-7.2496,-7.2496,-7.2496,-7.2496,-7.2496,-7.2496,-7.249,-7.2481,-7.0007,-6.6775,-6.6761,-6.6839,-6.6812,-6.6812,-6.6812,-6.6812,-6.6812,-6.6812,-6.6812,-6.6812,-6.6812,-6.6812,-6.6812,-6.6812,-6.6812,-6.6812,-6.6812,-6.6812,-6.6812,-6.6812,-6.6812,-6.6812,-6.6812,-6.6812,-6.6812,-6.6812,-6.6812,-6.6812,-6.6812,-6.6812,-6.6812,-6.6812,-6.6812,-6.6812,-6.6812,-6.6812,-6.6812,-6.5559,-6.4322,-6.31,-6.1696,-6.0126,-5.8141,-5.7453,-5.6795,-5.6166,-5.5508,-5.5179,-5.5179,-5.5179,-5.5179,-3.6773,-3.7507,-3.8243,-4.1262,-4.557,-5.0998,-5.8258,-6.3552,-6.7851,-7.1291,-7.1175,-6.8042,-6.0099,-6.0261,-6.3625,-6.9882,-7.3773,-7.5995,-7.5995,-7.6005,-7.6005,-7.6005,-7.5082,-7.3543,-7.1134,-7.0921,-7.0267,-6.8758,-6.8054,-6.7714,-6.7709,-6.7684,-6.7687,-6.7687,-6.7687,-6.7687,-6.7687,-6.7687,-6.7687,-6.7687,-6.7687,-6.7724,-6.7707,-6.7671,-6.8239,-6.9155,-6.9082,-6.9118,-6.9265,-7.1544,-7.2502,-7.2483,-7.25,-7.248,-7.248,-7.2496,-7.2496,-7.2517,-7.2458,-7.0026,-6.6796,-6.6792,-6.6777,-6.6812,-6.6812,-6.6812,-6.6812,-6.6812,-6.6812,-6.6812,-6.6812,-6.6812,-6.6812,-6.6812,-6.6812,-6.6812,-6.6812,-6.6812,-6.6812,-6.6812,-6.6812,-6.6812,-6.6812,-6.6812,-6.6812,-6.6812,-6.6812,-6.6812,-6.6812,-6.6812,-6.6812,-6.6812,-6.6812,-6.6812,-6.6812,-6.6812,-6.644,-6.5559,-6.423,-6.3355,-6.3004,-6.1696,-6.0126,-5.8141,-5.7453,-5.6795,-5.6166,-5.5508,-5.5179,-5.5179,-5.5179,-5.5179,-3.5366,-3.7475,-3.9543,-4.3775,-4.8631,-5.4789,-6.3767,-6.7398,-6.9506,-7.1597,-7.1979,-7.0629,-6.6189,-6.6754,-6.8537,-7.0552,-7.1514,-7.2927,-7.56,-7.6024,-7.5995,-7.5995,-7.5985,-7.4657,-7.1235,-7.0149,-6.9092,-6.7803,-6.7703,-6.77,-6.7704,-6.7687,-6.7687,-6.7687,-6.7687,-6.7687,-6.7687,-6.7687,-6.7687,-6.7687,-6.7687,-6.7687,-6.7687,-6.7707,-6.7689,-6.7689,-6.7671,-6.7707,-6.7835,-6.9779,-7.0625,-7.0606,-7.0587,-7.1354,-7.2504,-7.2519,-7.2533,-7.2269,-7.0771,-6.8728,-6.6764,-6.684,-6.6812,-6.6812,-6.6812,-6.6812,-6.6812,-6.6812,-6.6812,-6.6812,-6.6812,-6.6812,-6.6812,-6.6812,-6.6812,-6.6812,-6.6812,-6.6812,-6.6812,-6.6812,-6.6812,-6.6812,-6.6812,-6.6812,-6.6812,-6.6812,-6.6812,-6.6812,-6.6812,-6.6812,-6.6812,-6.6812,-6.6812,-6.6812,-6.6812,-6.632,-6.5734,-6.4959,-6.3259,-6.2193,-6.2193,-6.067,-5.9136,-5.7723,-5.7064,-5.6406,-5.5777,-5.5388,-5.5179,-5.5179,-5.5179,-5.5179,-3.185,-3.4353,-3.936,-4.9359,-5.7288,-6.4273,-7.0549,-7.1987,-7.2015,-7.1989,-7.1926,-7.1695,-7.1029,-7.0914,-7.0798,-7.0502,-6.7883,-6.8037,-7.4202,-7.505,-7.5089,-7.5071,-7.5369,-7.4312,-7.1169,-6.8943,-6.7734,-6.7709,-6.7686,-6.7704,-6.7704,-6.7704,-6.7704,-6.7704,-6.7704,-6.7704,-6.7704,-6.7704,-6.7704,-6.7704,-6.7741,-6.7687,-6.7687,-6.7687,-6.7687,-6.7687,-6.7687,-6.7707,-6.7689,-6.7707,-6.7689,-6.7724,-6.7724,-6.9486,-7.2035,-7.1692,-7.1572,-7.1052,-6.7601,-6.6547,-6.6773,-6.6772,-6.6779,-6.6779,-6.6779,-6.6779,-6.6779,-6.6812,-6.6812,-6.6812,-6.6812,-6.6812,-6.6812,-6.6812,-6.6812,-6.6812,-6.6812,-6.6812,-6.6812,-6.6812,-6.6812,-6.6812,-6.6812,-6.6812,-6.6812,-6.6812,-6.6812,-6.6812,-6.6812,-6.6812,-6.6812,-6.6812,-6.6812,-6.6812,-6.6812,-6.5646,-6.4869,-6.4688,-6.2358,-6.0887,-6.0815,-5.9017,-5.7812,-5.7094,-5.6496,-5.5837,-5.5179,-5.5179,-5.5179,-5.5179,-5.5179,-5.5179,-4.2875,-4.5366,-4.9188,-5.4245,-6.2688,-7.0192,-7.1642,-7.199,-7.1977,-7.1993,-7.1568,-7.1106,-7.0952,-7.0914,-7.0028,-6.7398,-6.6358,-6.6408,-6.7845,-6.8075,-6.8052,-6.8056,-7.0369,-7.1735,-7.096,-6.8966,-6.7709,-6.7714,-6.7694,-6.7715,-6.7715,-6.7715,-6.7715,-6.7715,-6.7715,-6.7715,-6.7715,-6.7715,-6.7715,-6.7715,-6.77,-6.7684,-6.7684,-6.7704,-6.7687,-6.7687,-6.7687,-6.7707,-6.7724,-6.7726,-6.7688,-6.7738,-6.7692,-6.8102,-6.8414,-6.5617,-6.4568,-6.4481,-6.3624,-6.4873,-6.6804,-6.68,-6.6787,-6.6821,-6.6792,-6.6826,-6.6777,-6.6779,-6.6812,-6.6812,-6.6812,-6.6812,-6.6812,-6.6812,-6.6812,-6.6812,-6.6812,-6.6812,-6.6812,-6.6812,-6.6812,-6.6812,-6.6812,-6.6812,-6.6812,-6.6812,-6.6812,-6.6812,-6.6812,-6.6812,-6.6812,-6.6812,-6.6812,-6.6812,-6.6812,-6.5646,-6.4505,-6.3449,-6.1896,-6.0506,-5.9576,-5.8548,-5.7812,-5.7094,-5.6496,-5.5837,-5.5179,-5.5179,-5.5179,-5.5179,-5.5179,-5.5179,-4.4943,-4.9996,-5.5132,-6.0266,-6.5596,-6.9916,-7.1171,-7.1448,-7.1468,-7.1441,-7.1156,-7.0387,-6.8794,-6.8513,-6.7936,-6.6179,-6.5904,-6.5906,-6.5906,-6.5879,-6.5884,-6.5872,-6.6552,-6.7014,-6.7016,-6.5978,-6.5366,-6.5353,-6.5338,-6.5338,-6.5338,-6.5338,-6.5338,-6.5338,-6.5338,-6.5338,-6.5338,-6.5338,-6.5338,-6.5338,-6.5359,-6.6145,-6.7715,-6.7667,-6.7687,-6.7687,-6.7687,-6.7724,-6.7559,-6.5866,-6.6198,-6.768,-6.7716,-6.6624,-6.4937,-6.3066,-6.2423,-6.2395,-6.2421,-6.343,-6.4708,-6.4729,-6.4681,-6.4681,-6.4701,-6.5725,-6.6772,-6.6777,-6.6844,-6.6761,-6.6779,-6.6812,-6.6812,-6.6812,-6.6812,-6.6812,-6.6812,-6.6812,-6.6812,-6.6812,-6.6812,-6.6812,-6.6812,-6.6812,-6.6812,-6.6812,-6.6812,-6.6812,-6.6812,-6.6812,-6.6812,-6.6812,-6.6812,-6.6525,-6.5942,-6.4688,-6.3449,-6.2094,-6.0815,-5.9607,-5.865,-5.7992,-5.7453,-5.7094,-5.6166,-5.5538,-5.5179,-5.5179,-5.5179,-5.5179,-5.5179,-5.5179,-4.2772,-5.1319,-5.8961,-6.5205,-6.6727,-6.7459,-7.026,-7.0925,-7.0925,-7.0925,-7.0887,-6.9886,-6.6523,-6.5923,-6.5884,-6.5909,-6.5915,-6.5747,-6.5416,-6.5379,-6.5351,-6.5387,-6.3838,-6.2807,-6.2798,-6.2826,-6.2815,-6.2823,-6.2808,-6.2808,-6.2808,-6.2808,-6.2808,-6.2808,-6.2808,-6.2808,-6.2808,-6.2808,-6.2808,-6.2808,-6.2808,-6.4244,-6.6853,-6.6843,-6.7173,-6.7704,-6.7704,-6.7704,-6.7414,-6.3896,-6.4171,-6.6798,-6.6798,-6.5022,-6.2427,-6.2419,-6.2419,-6.2415,-6.2425,-6.2413,-6.2413,-6.2421,-6.2374,-6.2374,-6.2408,-6.4093,-6.599,-6.5997,-6.6418,-6.6758,-6.6795,-6.6779,-6.6779,-6.6812,-6.6812,-6.6812,-6.6812,-6.6812,-6.6812,-6.6812,-6.6812,-6.6812,-6.6812,-6.6812,-6.6812,-6.6812,-6.6812,-6.6812,-6.6812,-6.6812,-6.6812,-6.6812,-6.661,-6.6029,-6.4959,-6.3544,-6.2193,-6.1091,-5.9668,-5.868,-5.8141,-5.7363,-5.6944,-5.6944,-5.5777,-5.5179,-5.5179,-5.5179,-5.5179,-5.5179,-5.5179,-5.5179,-3.987,-5.1239,-6.1835,-6.5191,-6.6035,-6.69,-7.0144,-7.0928,-7.0902,-7.0928,-7.0902,-6.9886,-6.6512,-6.5884,-6.5909,-6.5902,-6.5887,-6.527,-6.3461,-6.3201,-6.3199,-6.3238,-6.2966,-6.2777,-6.2806,-6.2831,-6.2818,-6.2792,-6.2792,-6.2792,-6.2792,-6.2792,-6.2792,-6.2792,-6.2792,-6.2792,-6.2792,-6.2792,-6.2792,-6.2792,-6.2764,-6.3006,-6.3481,-6.3429,-6.5014,-6.7684,-6.7684,-6.7716,-6.7403,-6.3893,-6.2711,-6.3095,-6.3095,-6.2779,-6.2423,-6.2438,-6.2358,-6.2381,-6.2415,-6.2415,-6.2448,-6.237,-6.237,-6.2403,-6.2447,-6.2683,-6.2952,-6.2993,-6.4816,-6.6834,-6.6758,-6.6792,-6.6777,-6.6779,-6.6812,-6.6812,-6.6812,-6.6812,-6.6812,-6.6812,-6.6812,-6.6812,-6.6812,-6.6812,-6.6812,-6.6812,-6.6812,-6.6812,-6.6812,-6.6812,-6.6812,-6.6812,-6.5855,-6.5081,-6.4869,-6.265,-6.1193,-6.0989,-5.9213,-5.8201,-5.8112,-5.6944,-5.6286,-5.6286,-5.5568,-5.5179,-5.5179,-5.5179,-5.5179,-5.5179,-5.5179,-5.5179,-3.4094,-4.6636,-5.8655,-5.9873,-6.3075,-6.5779,-6.5345,-6.5218,-6.6295,-7.0119,-6.94,-6.7654,-6.6154,-6.591,-6.5909,-6.5879,-6.4904,-6.3839,-6.2963,-6.2774,-6.2806,-6.2788,-6.2825,-6.2804,-6.2805,-6.2805,-6.2805,-6.2805,-6.2805,-6.2805,-6.2805,-6.2805,-6.2805,-6.2805,-6.2805,-6.2805,-6.2805,-6.2805,-6.2805,-6.2805,-6.2792,-6.2778,-6.2801,-6.2801,-6.357,-6.505,-6.6875,-6.77,-6.7397,-6.3875,-6.2366,-6.2426,-6.2377,-6.2412,-6.237,-6.2402,-6.2381,-6.2381,-6.2381,-6.2381,-6.2381,-6.2381,-6.2381,-6.2415,-6.2403,-6.2358,-6.2392,-6.2434,-6.3337,-6.4309,-6.4315,-6.559,-6.6821,-6.6806,-6.6826,-6.681,-6.681,-6.6829,-6.6812,-6.6812,-6.6812,-6.6812,-6.6812,-6.6812,-6.6812,-6.6812,-6.6812,-6.6812,-6.6812,-6.6812,-6.6525,-6.5855,-6.526,-6.4289,-6.2844,-6.1665,-6.0558,-5.9423,-5.855,-5.7782,-5.7064,-5.6466,-5.5987,-5.5628,-5.5329,-5.5179,-5.5179,-5.5179,-5.5179,-5.5179,-5.5179,-5.5179,-3.102,-4.3694,-5.571,-5.5703,-5.9534,-6.2868,-6.118,-6.08,-6.2246,-6.7281,-6.6332,-6.4603,-6.4588,-6.5306,-6.5876,-6.59,-6.4176,-6.2776,-6.2784,-6.2804,-6.2768,-6.2805,-6.2805,-6.2805,-6.2805,-6.2805,-6.2805,-6.2805,-6.2805,-6.2805,-6.2805,-6.2805,-6.2805,-6.2805,-6.2805,-6.2805,-6.2805,-6.2805,-6.2805,-6.2805,-6.2805,-6.2805,-6.2805,-6.2805,-6.2778,-6.2969,-6.539,-6.6442,-6.6153,-6.2711,-6.171,-6.2377,-6.2436,-6.2425,-6.2381,-6.2381,-6.2381,-6.2381,-6.2381,-6.2381,-6.2381,-6.2381,-6.2381,-6.2381,-6.2381,-6.2381,-6.2415,-6.2425,-6.238,-6.2413,-6.2374,-6.4025,-6.5685,-6.5637,-6.5691,-6.588,-6.6607,-6.6795,-6.6812,-6.6812,-6.6812,-6.6812,-6.6812,-6.6812,-6.6812,-6.6812,-6.6812,-6.6812,-6.6812,-6.6525,-6.5942,-6.4992,-6.4159,-6.2875,-6.0944,-6.028,-5.9417,-5.7872,-5.7723,-5.7184,-5.6226,-5.6017,-5.5688,-5.5209,-5.5179,-5.5179,-5.5179,-5.5179,-5.5179,-5.5179,-5.5179,-5.5179,-3.3915,-4.5491,-5.5719,-5.5692,-5.5979,-5.7016,-6.0118,-6.0804,-6.0911,-6.1257,-6.1171,-6.1083,-6.1086,-6.3703,-6.5887,-6.5907,-6.4178,-6.2811,-6.2804,-6.2806,-6.2794,-6.2805,-6.2805,-6.2805,-6.2805,-6.2805,-6.2805,-6.2805,-6.2805,-6.2805,-6.2805,-6.2805,-6.2805,-6.2805,-6.2805,-6.2805,-6.2805,-6.2805,-6.2805,-6.2805,-6.2805,-6.2805,-6.2805,-6.2805,-6.2805,-6.2792,-6.2961,-6.3036,-6.2832,-5.9517,-5.984,-6.2377,-6.2377,-6.2402,-6.2381,-6.2381,-6.2381,-6.2381,-6.2381,-6.2381,-6.2381,-6.2381,-6.2381,-6.2381,-6.2381,-6.2381,-6.2381,-6.2415,-6.2415,-6.237,-6.2413,-6.2468,-6.2603,-6.2609,-6.2643,-6.3396,-6.6187,-6.6812,-6.6812,-6.6812,-6.6812,-6.6812,-6.6812,-6.6812,-6.6812,-6.6812,-6.6812,-6.6812,-6.6812,-6.5767,-6.4959,-6.4869,-6.2173,-6.0291,-6.0191,-5.8419,-5.7288,-5.7154,-5.6585,-5.6256,-5.6166,-5.5568,-5.5239,-5.5179,-5.5179,-5.5179,-5.5179,-5.5179,-5.5179,-5.5179,-5.5179,-5.5179,-2.8489,-3.579,-4.3772,-4.812,-4.9202,-5.0681,-5.6246,-5.9211,-6.0789,-6.0813,-6.081,-6.0798,-6.079,-6.1818,-6.2211,-6.1016,-6.017,-5.9721,-5.9711,-6.1507,-6.2781,-6.2818,-6.2769,-6.2769,-6.2769,-6.2769,-6.2769,-6.2769,-6.2769,-6.2769,-6.2769,-6.2769,-6.2769,-6.2769,-6.2769,-6.2806,-6.2794,-6.2794,-6.2781,-6.2805,-6.2805,-6.2805,-6.2805,-6.2805,-6.2805,-6.2805,-6.2792,-6.2838,-6.2557,-5.9241,-5.8556,-5.9724,-6.1661,-6.2353,-6.2368,-6.2368,-6.2358,-6.2381,-6.2381,-6.2381,-6.2381,-6.2381,-6.2381,-6.2381,-6.2381,-6.2381,-6.2381,-6.2381,-6.2381,-6.2415,-6.2403,-6.2403,-6.2392,-6.2434,-6.2388,-6.2656,-6.3781,-6.5444,-6.681,-6.6779,-6.6812,-6.6812,-6.6812,-6.6812,-6.6508,-6.5527,-6.6203,-6.6188,-6.4414,-6.4608,-6.4289,-6.2553,-6.1002,-5.9756,-5.8893,-5.7767,-5.6915,-5.6526,-5.6286,-5.5987,-5.5568,-5.5329,-5.5179,-5.5179,-5.5179,-5.5179,-5.5179,-5.5179,-5.5179,-5.5179,-5.5179,-5.5179,-2.8133,-3.0352,-3.3708,-4.0499,-4.3073,-4.5667,-5.2492,-5.6644,-5.8934,-5.8339,-5.9109,-5.9836,-5.9886,-5.9877,-5.9432,-5.8185,-5.8011,-5.801,-5.7993,-5.9821,-6.1176,-6.1213,-6.1213,-6.1213,-6.1213,-6.1213,-6.1213,-6.1213,-6.1213,0.0,-6.1213,-6.1213,-6.1213,-6.1213,-6.1213,-6.1165,-6.119,-6.2291,-6.2806,-6.2831,-6.2781,-6.2818,-6.2818,-6.2805,-6.2805,-6.2805,-6.2805,-6.2777,-6.2655,-6.0438,-5.8916,-5.8119,-6.012,-6.0876,-6.0994,-6.2072,-6.2445,-6.2391,-6.2381,-6.2381,-6.2381,-6.2381,-6.2381,-6.2381,-6.2381,-6.2381,-6.2381,-6.2381,-6.2381,-6.2381,-6.2381,-6.2381,-6.2415,-6.2392,-6.2425,-6.2413,-6.2421,-6.4701,-6.6792,-6.6761,-6.6779,-6.6812,-6.6812,-6.6812,-6.6474,-6.5493,-6.58,-6.5487,-6.3705,-6.3323,-6.262,-6.0882,-5.9501,-5.843,-5.7558,-5.6855,-5.6286,-5.5867,-5.5837,-5.5658,-5.5209,-5.5179,-5.5179,-5.5179,-5.5179,-5.5179,-5.5179,-5.5179,-5.5179,-5.5179,-5.5179,-5.5179,0.0,0.0,0.0,-3.3561,-3.804,-4.247,-4.8818,-5.2992,-5.5123,-5.3514,-5.5655,-5.7893,-5.7974,-5.7965,-5.7999,-5.7999,-5.7987,-5.7987,-5.8004,-5.8004,-5.7993,-5.7971,-5.8007,-5.8007,-5.8007,-5.8007,-5.8007,-5.8007,-5.8007,-5.8007,-5.8007,-5.8007,-5.8007,-5.8007,-5.8007,-5.8007,-5.8007,-6.1103,-6.2645,-6.2645,-6.2671,-6.2733,-6.2806,-6.2818,-6.2805,-6.2805,-6.2792,-6.2814,-6.2799,-6.2809,-6.0838,-5.7878,-5.7881,-5.7917,-5.8278,-6.1206,-6.231,-6.2377,-6.2391,-6.2381,-6.2381,-6.2381,-6.2381,-6.2381,-6.2381,-6.2381,-6.2381,-6.2381,-6.2381,-6.2381,-6.2381,-6.2381,-6.2381,-6.2381,-6.2381,-6.237,-6.2413,-6.4647,-6.6656,-6.6656,-6.6693,-6.6812,-6.6779,-6.6779,-6.6812,-6.6745,-6.5667,-6.486,-6.477,-6.1982,-6.0066,-5.9997,-5.7679,-5.6166,-5.6166,-5.5568,-5.5179,-5.5179,-5.5179,-5.5179,-5.5179,-5.5179,-5.5179,-5.5179,-5.5179,-5.5179,-5.5179,-5.5179,-5.5179,-5.5179,-5.5179,-5.5179,-3.3661,0.0,0.0,0.0,0.0,0.0,-4.0938,-4.6109,-5.2294,-5.3025,-5.3941,-5.5249,-5.7566,-5.7999,-5.7999,-5.7999,-5.7994,-5.7997,-5.7987,-5.7987,-5.7987,-5.7977,-5.7977,-5.7977,-5.7977,-5.7977,-5.7977,0.0,-5.7977,-5.7977,-5.7977,-5.7977,-5.7977,-5.7977,-5.7977,-5.7967,-5.7993,-5.8893,-5.9344,-5.9322,-5.9358,-6.0566,-6.2793,-6.2806,-6.2794,-6.2831,-6.2798,-6.2803,-6.2799,-6.2809,-6.0832,-5.7912,-5.7895,-5.7864,-5.7984,-5.8807,-6.0486,-6.2377,-6.2411,-6.2358,-6.2381,-6.2381,-6.2381,-6.2381,-6.2381,-6.2381,-6.2381,-6.2381,-6.2381,-6.2381,-6.2381,-6.2381,-6.2381,-6.2381,-6.2381,-6.2415,-6.237,-6.3079,-6.364,-6.3579,-6.5392,-6.6573,-6.5865,-6.6373,-6.644,-6.5358,-6.4469,-6.323,-6.1465,-5.9876,-5.8717,-5.8043,-5.6955,-5.6166,-5.6166,-5.5568,-5.5179,-5.5179,-5.5179,-5.5179,-5.5179,-5.5179,-5.5179,-5.5179,-5.5179,-5.5179,-5.5179,-5.5179,-5.5179,-5.5179,-5.5179,-5.5179,-3.1885,-3.1492,-2.9232,-2.7765,0.0,0.0,-3.4404,-3.9064,-4.4651,-4.5611,-4.974,-5.3756,-5.566,-5.6018,-5.6012,-5.5999,-5.5978,-5.6492,-5.7794,-5.8023,-5.8023,-5.8023,-5.8023,-5.8023,-5.8023,-5.8015,-5.8006,-5.8006,-5.796,-5.7997,-5.7997,-5.7997,-5.7997,-5.7997,-5.7997,-5.7987,-5.8014,-5.8014,-5.7967,-5.7993,-5.7982,-5.9003,-6.0809,-6.0786,-6.1532,-6.2769,-6.2801,-6.2037,-6.0769,-6.076,-5.9609,-5.791,-5.7899,-5.7876,-5.7938,-5.7857,-5.9017,-6.0732,-6.197,-6.2411,-6.2358,-6.2381,-6.2381,-6.2381,-6.2381,-6.2381,-6.2381,-6.2381,-6.2381,-6.2381,-6.2381,-6.2381,-6.2381,-6.2381,-6.2381,-6.2381,-6.2381,-6.2403,-6.238,-6.2421,-6.3795,-6.5005,-6.5256,-6.5628,-6.5595,-6.4749,-6.3799,-6.251,-6.0468,-5.9093,-5.7961,-5.6822,-5.6137,-5.5777,-5.5777,-5.5418,-5.5179,-5.5179,-5.5179,-5.5179,-5.5179,-5.5179,-5.5179,-5.5179,-5.5179,-5.5179,-5.5179,-5.5179,-5.5179,-5.5179,-5.5179,-5.4845,-3.0035,-3.3467,-3.5239,-3.1837,-2.8389,0.0,-2.972,-3.3523,-3.6382,-3.6401,-4.4779,-5.2119,-5.2109,-5.2438,-5.2688,-5.2669,-5.2956,-5.4216,-5.7037,-5.7449,-5.7449,-5.7449,-5.7449,-5.7449,-5.7449,-5.7471,-5.761,-5.7949,-5.8015,-5.8006,-5.8006,-5.796,-5.7997,-5.7997,-5.7997,-5.7997,-5.7997,-5.7997,-5.7997,-5.7997,-5.8014,-5.8004,-5.8004,-5.7982,-5.9553,-6.2266,-6.2275,-6.0633,-5.7877,-5.7898,-5.7877,-5.7878,-5.7899,-5.7881,-5.7915,-5.7864,-5.7891,-5.8302,-6.0969,-6.2106,-6.2377,-6.2391,-6.2381,-6.2381,-6.2381,-6.2381,-6.2381,-6.2381,-6.2381,-6.2381,-6.2381,-6.2381,-6.2381,-6.2381,-6.2381,-6.2381,-6.2381,-6.2381,-6.237,-6.238,-6.2388,-6.2925,-6.4729,-6.4762,-6.4546,-6.4546,-6.3282,-6.1993,-6.0917,-5.8939,-5.7181,-5.6131,-5.5508,-5.5149,-5.5089,-5.5149,-5.5179,-5.5179,-5.5179,-5.5179,-5.5179,-5.5179,-5.5179,-5.5179,-5.5179,-5.5179,-5.5179,-5.5179,-5.5179,-5.5179,-5.5179,-5.4406,-3.3582,-3.6972,-3.8709,-3.5355,-3.1941,0.0,-3.0251,-3.637,-4.195,-4.192,-4.3792,-4.5376,-4.5404,-4.75,-4.927,-4.927,-5.1482,-5.3424,-5.4049,-5.4115,-5.4115,-5.4115,-5.4115,-5.4115,-5.4115,-5.4151,-5.5192,-5.7818,-5.8002,-5.8002,-5.8002,-5.7986,-5.7978,-5.7978,-5.8006,-5.7997,-5.7997,-5.7997,-5.7997,-5.7997,-5.8033,-5.7987,-5.7987,-5.8004,-5.8333,-5.8919,-5.8896,-5.8509,-5.7912,-5.7912,-5.7902,-5.7895,-5.792,-5.7881,-5.7881,-5.7915,-5.7904,-5.7958,-5.8538,-6.0351,-6.2377,-6.2411,-6.2436,-6.2381,-6.2381,-6.2381,-6.2381,-6.2381,-6.2381,-6.2381,-6.2381,-6.2381,-6.2381,-6.2381,-6.2381,-6.2381,-6.2381,-6.2381,-6.2415,-6.237,-6.238,-6.2502,-6.2885,-6.3573,-6.4011,-6.4011,-6.1816,-6.0096,-6.0083,-5.7337,-5.5122,-5.462,-5.494,-5.497,-5.4431,-5.488,-5.5179,-5.5179,-5.5179,-5.5179,-5.5179,-5.5179,-5.5179,-5.5179,-5.5179,-5.5179,-5.5179,-5.5179,-5.5179,-5.5179,-5.5179,-5.4406,-3.7522,-3.922,-4.0521,-4.0511,-3.5441,0.0,0.0,-3.745,-3.7293,-3.8409,-3.8656,-3.8678,-3.8631,-4.1309,-4.4039,-4.5655,-4.4565,-4.5799,-5.2283,-5.3193,-5.3219,-5.3219,-5.3219,-5.3219,-5.3219,-5.3207,-5.3902,-5.5464,-5.5611,-5.5611,-5.5611,-5.5603,-5.6308,-5.7965,-5.8023,-5.7969,-5.7969,-5.8006,-5.7997,-5.7997,-5.8007,-5.7971,-5.7997,-5.7996,-5.8032,-5.8019,-5.7973,-5.7127,-5.5834,-5.7295,-5.7895,-5.7925,-5.792,-5.7881,-5.7881,-5.7881,-5.7876,-5.7904,-5.7931,-5.8916,-6.0427,-6.1911,-6.2421,-6.2402,-6.2402,-6.2391,-6.2381,-6.2381,-6.2381,-6.2381,-6.2381,-6.2381,-6.2381,-6.2381,-6.2381,-6.2381,-6.2381,-6.2381,-6.2381,-6.2381,-6.2403,-6.2392,-6.2392,-6.2843,-6.3147,-6.3147,-6.1217,-5.952,-5.8844,-5.6743,-5.5033,-5.4261,-5.4192,-5.4192,-5.4221,-5.4521,-5.485,-5.5179,-5.5179,-5.5179,-5.5179,-5.5179,-5.5179,-5.5179,-5.5179,-5.5179,-5.5179,-5.5179,-5.5179,-5.5179,-5.5179,-5.3964,-4.0492,-4.0515,-4.1168,-4.3926,-3.8953,-3.5124,0.0,0.0,0.0,-3.2632,-3.3873,-3.436,-3.3117,-3.5048,0.0,-4.1115,0.0,0.0,0.0,-5.1191,0.0,-5.2099,-5.2247,-5.2467,-5.3138,-5.3198,-5.3182,-5.32,-5.3207,-5.3207,-5.32,-5.323,-5.4422,-5.6963,-5.7059,-5.7353,-5.7994,-5.8015,-5.8006,-5.796,-5.8019,-5.7701,-5.7131,-5.7732,-5.7995,-5.7978,-5.7391,-5.5784,-5.3661,-5.6064,-5.7352,-5.7933,-5.7887,-5.7881,-5.7881,-5.7881,-5.7881,-5.7915,-5.7938,-5.7931,-5.8302,-6.0714,-6.1877,-6.2377,-6.2377,-6.2402,-6.2381,-6.2381,-6.2381,-6.2381,-6.2381,-6.2381,-6.2381,-6.2381,-6.2381,-6.2381,-6.2381,-6.2381,-6.2381,-6.2381,-6.2381,-6.2381,-6.2381,-6.2381,-6.2448,-6.2425,-6.1318,-5.9784,-5.8069,-5.6715,-5.5394,-5.4261,-5.3614,-5.3495,-5.3982,-5.4251,-5.4581,-5.497,-5.5119,-5.5179,-5.5179,-5.5179,-5.5179,-5.5179,-5.5179,-5.5179,-5.5179,-5.4875,-5.4976,-5.5179,-5.4875,-5.3279,-4.052,-4.0515,-4.0583,-4.0984,-4.2496,-4.2625,-3.7753,0.0,-3.2686,-3.0075,0.0,-3.638,-3.0628,0.0,0.0,0.0,0.0,0.0,-4.8231,-4.3928,-4.245,-4.8162,-4.886,-5.0002,-5.2929,-5.3234,-5.3195,-5.3216,-5.3188,-5.3225,-5.3203,-5.3219,-5.339,-5.3726,-5.3749,-5.5126,-5.7973,-5.7994,-5.8023,-5.7978,-5.7983,-5.6624,-5.4107,-5.6778,-5.8009,-5.7882,-5.5203,-5.3852,-5.3524,-5.382,-5.5551,-5.7933,-5.7887,-5.7881,-5.7881,-5.7881,-5.7881,-5.7881,-5.7915,-5.7904,-5.7958,-5.8302,-6.0216,-6.2377,-6.2377,-6.2402,-6.2381,-6.2381,-6.2381,-6.2381,-6.2381,-6.2381,-6.2381,-6.2381,-6.2381,-6.2381,-6.2381,-6.2381,-6.2381,-6.2381,-6.2381,-6.2381,-6.2381,-6.2381,-6.238,-6.2399,-6.2212,-6.1278,-5.894,-5.6684,-5.489,-5.4032,-5.3893,-5.3714,-5.3354,-5.4401,-5.485,-5.4371,-5.488,-5.5179,-5.5179,-5.5179,-5.5179,-5.5179,-5.5179,-5.5179,-5.5179,-5.386,-5.3964,-5.5179,-5.386,-5.2295,-4.3481,-4.285,-4.2683,-4.4569,-4.1851,-3.8037,-3.5154,-3.4143,-3.3412,-3.2056,0.0,0.0,0.0,0.0,0.0,0.0,-3.4848,0.0,0.0,0.0,-4.0419,-4.4965,0.0,0.0,-5.0047,-5.0343,-4.8015,-4.2397,-4.7163,-5.1189,-5.3101,-5.3198,-5.3188,-5.3219,-5.3163,-5.3829,-5.5214,-5.5207,-5.6136,-5.7996,-5.7991,-5.6403,-5.3509,-5.477,-5.5424,-5.5329,-5.4044,-5.2506,-5.1026,-5.2775,-5.4192,-5.5547,-5.7281,-5.7853,-5.7881,-5.7881,-5.7881,-5.7881,-5.7881,-5.7876,-5.7904,-5.7931,-5.8781,-6.0148,-6.1902,-6.2411,-6.2402,-6.2425,-6.2381,-6.2381,-6.2381,-6.2381,-6.2381,-6.2381,-6.2381,-6.2381,-6.2381,-6.2381,-6.2381,-6.2381,-6.2381,-6.2381,-6.2381,-6.2381,-6.2403,-6.2421,-6.0075,-5.7852,-5.6806,-5.5791,-5.505,-5.472,-5.3913,-5.3367,-5.3204,-5.3516,-5.3784,-5.4059,-5.4441,-5.461,-5.461,-5.497,-5.5179,-5.5179,-5.5179,-5.5179,-5.5179,-5.3727,-5.3308,-5.386,-5.2402,-5.0823,-4.5587,-4.4851,-4.4738,-4.7579,-4.0976,-3.3795,-3.3771,-3.3784,-3.3808,-3.3808,-3.3799,0.0,0.0,0.0,-3.2763,-2.9539,0.0,-3.3323,0.0,-3.604,-3.7235,0.0,0.0,0.0,0.0,-4.6979,-4.3322,-3.4469,-4.1977,-4.8421,-5.1701,-5.2733,-5.3203,-5.3193,-5.3219,-5.3213,-5.3213,-5.3213,-5.39,-5.5352,-5.6295,-5.5644,-5.3497,-5.3487,-5.3518,-5.3518,-5.3513,-5.2225,-5.0426,-5.2572,-5.3483,-5.3683,-5.5815,-5.7209,-5.7887,-5.7881,-5.7881,-5.7881,-5.7881,-5.7881,-5.7915,-5.7904,-5.7931,-5.8336,-6.0452,-6.1723,-6.2377,-6.2436,-6.2425,-6.2381,-6.2381,-6.2381,-6.2381,-6.2381,-6.2381,-6.2381,-6.2381,-6.2381,-6.2381,-6.2381,-6.2381,-6.2381,-6.2381,-6.2381,-6.2358,-6.2393,-5.9393,-5.6699,-5.5349,-5.5237,-5.5198,-5.5189,-5.4307,-5.3766,-5.3803,-5.3098,-5.3,-5.3669,-5.3832,-5.4032,-5.447,-5.491,-5.5179,-5.5179,-5.5179,-5.5179,-5.5179,-5.3279,-5.2402,-5.2295,-5.0823,-4.9508,0.0,0.0,0.0,-4.7838,0.0,-3.3791,-3.3797,-3.3799,-3.3785,-3.3822,-3.3804,-3.38,-3.3785,-3.3798,-3.2755,-2.9518,-2.9104,0.0,0.0,-2.9315,-3.0534,-3.3716,0.0,0.0,0.0,-4.3643,-4.0924,0.0,-3.9938,-4.5068,-4.8269,-5.144,-5.3216,-5.3166,-5.3193,-5.3225,-5.3225,-5.3225,-5.1661,-4.8615,-5.2005,-5.3584,-5.352,-5.3502,-5.3484,-5.3517,-5.3547,-5.3481,-5.3382,-5.3481,-5.3517,-5.3515,-5.3576,-5.5404,-5.7861,-5.7887,-5.7881,-5.7881,-5.7881,-5.7881,-5.7881,-5.7881,-5.787,-5.7924,-5.7992,-6.0114,-6.2377,-6.2377,-6.2402,-6.2381,-6.2381,-6.2381,-6.2381,-6.2381,-6.2381,-6.2381,-6.2381,-6.2381,-6.2381,-6.2381,-6.2381,-6.2381,-6.2381,-6.2381,-6.2408,-6.2409,-6.2255,-6.0463,-5.5811,-5.5167,-5.5183,-5.5159,-5.5213,-5.5104,-5.5149,-5.396,-5.3174,-5.3204,-5.3179,-5.3784,-5.5159,-5.516,-5.5179,-5.5179,-5.5179,-5.5179,-5.5179,-5.2266,-5.0823,-5.0713,-4.9308,-4.8532,0.0,0.0,-4.4365,-4.4941,0.0,0.0,0.0,0.0,-3.5645,-4.206,-4.1705,-4.022,-4.0204,-4.0221,-3.9867,-3.8776,-3.3205,-2.8999,0.0,-2.7172,0.0,-2.7308,-3.2183,-3.6707,0.0,0.0,0.0,-3.4145,-3.9816,-4.4002,-4.5077,-4.8197,-5.0964,-5.3142,-5.3213,-5.3193,-5.3225,-5.3217,-5.1551,-4.8267,-4.785,-4.9698,-5.3507,-5.3479,-5.3518,-5.3518,-5.3483,-5.3517,-5.3518,-5.3483,-5.3484,-5.3483,-5.3515,-5.5274,-5.7939,-5.7925,-5.7881,-5.7881,-5.7881,-5.7881,-5.7881,-5.7881,-5.7949,-5.791,-5.791,-5.8646,-5.9861,-6.1809,-6.2377,-6.2381,-6.2381,-6.2381,-6.2381,-6.2381,-6.2381,-6.2381,-6.2381,-6.2381,-6.2381,-6.2381,-6.2381,-6.2425,-6.2402,-6.238,-6.2397,-6.2425,-5.9729,-5.6415,-5.3019,-5.408,-5.4503,-5.2762,-5.2554,-5.2599,-5.2522,-5.2192,-5.2282,-5.3164,-5.2405,-5.2515,-5.3781,-5.477,-5.5179,-5.5179,-5.5179,-5.5179,-5.5179,-5.2159,-5.11,-5.1627,-4.8431,-4.7087,-5.2626,-5.0969,0.0,-4.7228,-4.0518,0.0,-3.124,0.0,-3.6567,-4.6321,-4.576,-4.348,-4.3517,-4.3526,-4.349,-4.3519,-3.6325,-2.9886,0.0,-2.5514,-2.4216,-2.4216,-3.1726,-3.7404,-3.8572,-3.6609,-3.5344,-3.5535,-4.0467,-4.3504,0.0,-4.548,-4.7572,-4.9658,-5.201,-5.2717,-5.169,-5.2726,-5.1129,-4.6951,-4.5384,-4.7733,-5.3489,-5.3477,-5.3516,-5.3518,-5.3518,-5.3518,-5.3518,-5.3518,-5.3518,-5.3518,-5.3483,-5.47,-5.6467,-5.7552,-5.792,-5.7881,-5.7881,-5.7881,-5.7881,-5.7881,-5.792,-5.7853,-5.7853,-5.719,-5.7204,-6.1238,-6.2404,-6.2368,-6.2425,-6.2381,-6.2381,-6.2381,-6.2425,-6.2391,-6.2391,-6.2402,-6.2368,-6.2436,-6.2402,-6.2402,-6.237,-6.1508,-6.1185,-6.2212,-5.8323,-5.4259,-5.1558,-5.2708,-5.3068,-5.1402,-5.1224,-5.1172,-5.1214,-5.1225,-5.1593,-5.2472,-5.1713,-5.2002,-5.3856,-5.471,-5.5179,-5.5179,-5.5179,-5.5227,-5.5159,-5.3303,-5.21,-5.1569,-4.8003,-4.6301]}]]